Date StartTime U_cm/s V_cm/s W_cm/s Ustd_cm/s Vstd_cm/s Wstd_cm/s Uvar_(cm/s)^2 Vvar_(cm/s)^2 Wvar_(cm/s)^2 KE_(m/s)^2 TurbulentKE_(m/s)^2 HorizWindSpeed_cm/s FrictionSpeec_cm/s DragCoef SpeedOfSound_m/s SonicTemperature_C Pressure_mb 
12/27/2013  00:00:00      -54.273       -6.267       -5.353       10.820       10.042       10.279      117.065      100.836      105.666        0.167        0.016       54.634        8.445        0.024      330.951       -1.349      871.237
12/27/2013  00:01:00      -60.141      -15.249      -14.894        5.740        9.016        3.981       32.946       81.286       15.846        0.210        0.007       62.044        3.095        0.002      331.130       -1.054      871.218
12/27/2013  00:02:00      -43.603      -18.728       -8.263       13.606        6.281        7.359      185.135       39.454       54.152        0.130        0.014       47.455        6.578        0.019      331.221       -0.903      871.204
12/27/2013  00:03:00       -6.388      -17.113        1.745        8.924        9.290        8.237       79.640       86.310       67.845        0.029        0.012       18.266        3.659        0.040      331.244       -0.866      871.201
12/27/2013  00:04:00      -29.670       -6.412       -5.054        5.047        5.855        3.639       25.469       34.285       13.241        0.051        0.004       30.355        2.733        0.008      331.163       -1.001      871.183
12/27/2013  00:05:00      -12.976       -2.774        2.670        9.181        4.431        5.271       84.293       19.637       27.787        0.016        0.007       13.269        5.807        0.192      331.157       -1.011      871.167
12/27/2013  00:06:00       18.655       12.176        5.387        7.863       12.860        6.898       61.826      165.386       47.589        0.040        0.014       22.277        2.910        0.017      331.181       -0.971      871.152
12/27/2013  00:07:00       19.295       21.346       -4.710        6.990        8.846        6.743       48.861       78.245       45.475        0.051        0.009       28.774        3.831        0.018      331.127       -1.059      871.149
12/27/2013  00:08:00        8.035       17.153       -4.518        6.621        5.832        3.825       43.833       34.011       14.634        0.024        0.005       18.942        2.706        0.020      331.088       -1.124      871.152
12/27/2013  00:09:00       -3.631       -4.677       -7.370        7.452        5.851        3.699       55.531       34.229       13.683        0.010        0.005        5.921        2.052        0.120      331.059       -1.171      871.164
12/27/2013  00:10:00      -50.264      -14.004       -7.908       11.834        9.437        8.402      140.037       89.048       70.592        0.154        0.015       52.178        5.588        0.011      331.010       -1.250      871.175
12/27/2013  00:11:00      -66.602      -32.610       -9.582       13.114        8.256        6.017      171.968       68.162       36.206        0.293        0.014       74.157        2.234        0.001      330.888       -1.449      871.183
12/27/2013  00:12:00      -97.188      -33.945      -11.261       11.466       11.126        6.421      131.475      123.777       41.223        0.551        0.015      102.945        5.220        0.003      330.905       -1.423      871.195
12/27/2013  00:13:00     -109.132      -35.245      -14.261       13.528       12.142        8.396      182.996      147.422       70.489        0.688        0.020      114.682        8.109        0.005      330.897       -1.436      871.218
12/27/2013  00:14:00      -89.125      -23.769        0.396       28.456       21.686       16.191      809.756      470.289      262.153        0.503        0.077       92.240       15.212        0.027      330.820       -1.563      871.247
12/27/2013  00:15:00     -108.767      -23.209        0.281       35.097       28.832       19.351     1231.822      831.279      374.475        0.740        0.122      111.216       19.369        0.030      330.782       -1.624      871.268
12/27/2013  00:16:00     -101.183      -38.258        2.584       46.392       28.286       21.930     2152.205      800.093      480.941        0.757        0.172      108.174       21.125        0.038      330.817       -1.567      871.273
12/27/2013  00:17:00     -104.850      -20.021        2.884       34.400       23.710       19.015     1183.384      562.166      361.585        0.675        0.105      106.744       15.872        0.022      330.842       -1.526      871.271
12/27/2013  00:18:00      -66.010      -18.694        3.392       35.080       17.192       12.324     1230.587      295.562      151.872        0.320        0.084       68.606       13.998        0.042      330.902       -1.428      871.256
12/27/2013  00:19:00      -52.965        2.376       -3.360       12.478        9.077        7.619      155.709       82.391       58.056        0.156        0.015       53.018        5.803        0.012      330.961       -1.331      871.236
12/27/2013  00:20:00      -53.590       -4.359       -3.283       14.497       12.858        8.144      210.172      165.337       66.329        0.167        0.022       53.767        8.763        0.027      331.093       -1.114      871.220
12/27/2013  00:21:00      -42.745      -20.076       -4.052        6.439        9.671        7.479       41.466       93.523       55.937        0.122        0.010       47.225        3.693        0.006      331.136       -1.045      871.213
12/27/2013  00:22:00      -51.169      -32.942       -9.509        9.362        9.719        7.428       87.644       94.457       55.176        0.202        0.012       60.856        5.035        0.007      331.119       -1.072      871.201
12/27/2013  00:23:00      -62.121      -40.698      -11.946        9.615       10.450        7.309       92.449      109.213       53.416        0.296        0.013       74.265        3.742        0.003      331.097       -1.108      871.193
12/27/2013  00:24:00      -82.152      -34.359      -10.930        9.847       10.306        9.212       96.967      106.220       84.860        0.417        0.014       89.048        5.281        0.004      331.036       -1.208      871.183
12/27/2013  00:25:00      -81.801      -22.052       -4.837       11.153       17.419        8.125      124.394      303.421       66.012        0.385        0.025       84.722        8.154        0.009      330.941       -1.364      871.164
12/27/2013  00:26:00      -63.321       -4.687       -8.377       13.505        8.098        7.317      182.388       65.582       53.534        0.220        0.015       63.494        4.849        0.006      330.901       -1.427      871.138
12/27/2013  00:27:00      -21.076      -11.153       -9.764       12.814       10.459        7.376      164.189      109.388       54.413        0.050        0.016       23.845        5.746        0.058      331.058       -1.173      871.131
12/27/2013  00:28:00      -10.990      -10.143       -6.369        6.565       10.473        8.799       43.098      109.674       77.419        0.025        0.012       14.955        4.851        0.105      331.061       -1.166      871.135
12/27/2013  00:29:00      -13.960      -11.067       -1.111        8.497        8.078        6.443       72.191       65.256       41.508        0.025        0.009       17.814        3.717        0.044      330.966       -1.324      871.144
12/27/2013  00:30:00       -5.897       -9.726        2.638       11.223       11.824        8.900      125.945      139.811       79.214        0.024        0.017       11.374        5.697        0.251      330.945       -1.358      871.155
12/27/2013  00:31:00       31.433       22.629       11.875       21.259       14.153        6.478      451.925      200.310       41.959        0.117        0.035       38.732        3.319        0.007      331.016       -1.241      871.140
12/27/2013  00:32:00       65.535       23.972        1.907       12.902       15.499       14.658      166.469      240.210      214.848        0.275        0.031       69.782       11.066        0.025      331.130       -1.053      871.116
12/27/2013  00:33:00       61.695       29.440        8.636       10.845       11.149       13.059      117.605      124.289      170.549        0.258        0.021       68.359        4.584        0.004      331.060       -1.169      871.099
12/27/2013  00:34:00       50.829       36.585        2.364       13.808       10.395       12.506      190.665      108.051      156.392        0.219        0.023       62.626        6.871        0.012      331.167       -0.991      871.093
12/27/2013  00:35:00       17.643       30.613        2.409       12.414        8.585       12.527      154.104       73.697      156.935        0.082        0.019       35.333        4.891        0.019      331.221       -0.903      871.084
12/27/2013  00:36:00      -18.845        4.695       -1.024       20.535       11.977        7.948      421.686      143.455       63.175        0.050        0.031       19.421        7.024        0.131      331.172       -0.985      871.089
12/27/2013  00:37:00      -67.580       -8.118      -12.053        9.591        7.491        7.210       91.995       56.109       51.979        0.249        0.010       68.066        3.522        0.003      330.759       -1.663      871.102
12/27/2013  00:38:00      -72.312       -7.497      -12.463        7.321       10.349        7.474       53.600      107.094       55.863        0.283        0.011       72.699        3.271        0.002      330.797       -1.601      871.118
12/27/2013  00:39:00      -78.981       11.017      -10.996       10.430       10.148        8.348      108.777      102.991       69.682        0.338        0.014       79.745        5.549        0.005      330.855       -1.504      871.137
12/27/2013  00:40:00      -56.369       -1.729       -8.402        7.552        5.466        4.071       57.031       29.883       16.574        0.168        0.005       56.395        3.952        0.005      331.013       -1.247      871.147
12/27/2013  00:41:00      -59.194      -10.009       -8.223        7.673       10.305        5.897       58.870      106.203       34.772        0.194        0.010       60.034        4.530        0.006      331.058       -1.174      871.166
12/27/2013  00:42:00      -78.937      -33.726       -6.814       24.604        9.477        9.724      605.362       89.817       94.559        0.410        0.039       85.840        8.253        0.009      330.987       -1.288      871.188
12/27/2013  00:43:00     -107.941      -13.777      -12.742        9.384       11.912        8.735       88.060      141.902       76.306        0.615        0.015      108.817        5.827        0.003      330.797       -1.601      871.200
12/27/2013  00:44:00      -89.655       -5.763       -4.076       18.559       17.590       10.441      344.439      309.410      109.010        0.443        0.038       89.840       10.496        0.014      330.755       -1.670      871.205
12/27/2013  00:45:00      -98.639       -1.969       -9.403       20.019       13.129       11.760      400.744      172.371      138.302        0.527        0.036       98.659       10.890        0.012      330.738       -1.698      871.201
12/27/2013  00:46:00     -110.908        0.771      -13.558       17.057       11.183       12.006      290.950      125.068      144.147        0.652        0.028      110.911        8.881        0.006      330.776       -1.637      871.207
12/27/2013  00:47:00     -102.472       -8.396       -6.965       20.012       14.189       16.077      400.497      201.330      258.476        0.574        0.043      102.815       14.165        0.019      330.742       -1.692      871.215
12/27/2013  00:48:00      -73.205      -15.231       -2.863       23.080       14.487       10.909      532.698      209.877      119.002        0.323        0.043       74.773        8.606        0.013      330.818       -1.567      871.206
12/27/2013  00:49:00      -58.268      -16.701       -3.648       15.430        9.036        9.864      238.075       81.641       97.296        0.205        0.021       60.614        7.901        0.017      330.892       -1.444      871.185
12/27/2013  00:50:00      -56.641      -16.300       -8.202       19.402       11.193        8.482      376.418      125.272       71.937        0.206        0.029       58.939        6.880        0.014      330.853       -1.508      871.165
12/27/2013  00:51:00      -53.605      -27.870       -5.701       18.290       16.962       11.903      334.541      287.723      141.677        0.222        0.038       60.417        8.075        0.018      330.740       -1.695      871.154
12/27/2013  00:52:00      -75.292      -39.894      -14.976       15.928       18.216       10.902      253.696      331.819      118.864        0.409        0.035       85.208        8.198        0.009      330.712       -1.740      871.159
12/27/2013  00:53:00      -79.305      -42.245      -20.845       12.106       13.915       11.648      146.552      193.616      135.675        0.449        0.024       89.855        7.422        0.007      330.668       -1.811      871.163
12/27/2013  00:54:00      -25.618      -40.948        4.783       26.117       17.213       16.509      682.092      296.284      272.552        0.180        0.063       48.301       16.875        0.122      330.745       -1.686      871.174
12/27/2013  00:55:00      -33.554      -27.337       -1.469       15.228        7.716       11.597      231.886       59.535      134.498        0.115        0.021       43.280        9.874        0.052      330.751       -1.675      871.164
12/27/2013  00:56:00      -49.826      -17.556       -5.110       14.364        6.407        8.676      206.328       41.051       75.279        0.157        0.016       52.828        7.028        0.018      330.880       -1.464      871.137
12/27/2013  00:57:00      -45.765      -19.111       -6.270        8.127        8.618        7.213       66.056       74.277       52.020        0.135        0.010       49.594        3.366        0.005      330.820       -1.564      871.106
12/27/2013  00:58:00      -60.254      -23.918       -9.009       12.066        6.928        6.057      145.585       48.003       36.686        0.226        0.012       64.828        1.445        0.000      330.774       -1.640      871.081
12/27/2013  00:59:00      -86.267      -43.179      -10.927        8.221        8.826        6.567       67.590       77.903       43.119        0.481        0.009       96.470        2.867        0.001      330.720       -1.726      871.066
12/27/2013  01:00:00     -110.191      -38.719       -8.982       15.483       13.494        8.313      239.719      182.099       69.106        0.711        0.025      116.795        3.966        0.001      330.723       -1.722      871.057
12/27/2013  01:01:00     -109.112      -38.141       -6.730       19.997       23.191       15.048      399.864      537.810      226.431        0.728        0.058      115.587        8.917        0.006      330.677       -1.798      871.047
12/27/2013  01:02:00     -103.830      -43.201      -12.605       19.271       17.931       12.894      371.389      321.525      166.244        0.683        0.043      112.459        8.979        0.006      330.586       -1.947      871.033
12/27/2013  01:03:00      -92.238      -39.671       -4.815       17.353       18.559       11.019      301.115      344.454      121.415        0.544        0.038      100.408       10.077        0.010      330.594       -1.933      871.026
12/27/2013  01:04:00      -83.818      -20.932       -7.729       15.840       12.155       10.953      250.911      147.741      119.961        0.402        0.026       86.392        8.491        0.010      330.629       -1.875      871.032
12/27/2013  01:05:00      -90.979      -20.820      -11.289        9.595       11.700        9.181       92.065      136.891       84.290        0.458        0.016       93.331        4.196        0.002      330.683       -1.785      871.030
12/27/2013  01:06:00     -110.498      -29.781       -4.817       26.644       17.313       14.339      709.921      299.746      205.614        0.717        0.061      114.441       13.287        0.013      330.637       -1.862      871.035
12/27/2013  01:07:00     -133.643      -26.984       -9.616       25.216       21.973       17.138      635.836      482.797      293.710        1.005        0.071      136.340       12.458        0.008      330.535       -2.031      871.055
12/27/2013  01:08:00     -131.312      -47.815       -1.410       29.911       25.079       17.812      894.643      628.947      317.276        1.069        0.092      139.746       16.659        0.014      330.484       -2.113      871.065
12/27/2013  01:09:00     -103.059      -17.638       -8.035       33.314       32.231       16.694     1109.818     1038.822      278.685        0.671        0.121      104.558       13.408        0.016      330.592       -1.935      871.068
12/27/2013  01:10:00     -107.747       -2.265       -8.156       26.357       20.195       15.704      694.668      407.857      246.607        0.651        0.067      107.771       13.129        0.015      330.512       -2.068      871.051
12/27/2013  01:11:00     -134.700      -15.296      -15.548       20.598       15.484       12.296      424.260      239.756      151.181        0.972        0.041      135.566       10.408        0.006      330.518       -2.059      871.033
12/27/2013  01:12:00     -138.064      -37.007      -13.052       16.099       22.528       11.127      259.189      507.511      123.814        1.075        0.045      142.938        7.893        0.003      330.487       -2.109      871.034
12/27/2013  01:13:00     -105.067      -38.383        0.036       23.394       21.316       16.948      547.296      454.374      287.220        0.690        0.064      111.858       14.690        0.017      330.466       -2.143      871.037
12/27/2013  01:14:00     -111.483      -14.843       -6.469       26.755       25.689       14.328      715.827      659.939      205.282        0.714        0.079      112.466       12.498        0.012      330.408       -2.237      871.044
12/27/2013  01:15:00     -100.631       -8.796       -2.781       42.714       29.882       20.747     1824.511      892.915      430.417        0.668        0.157      101.015       19.049        0.036      330.376       -2.291      871.044
12/27/2013  01:16:00     -160.609        5.420      -15.973       47.394       41.820       26.866     2246.194     1748.896      721.794        1.540        0.236      160.701       19.960        0.015      330.387       -2.273      871.041
12/27/2013  01:17:00     -129.304       -2.330      -12.591       37.877       33.894       24.651     1434.686     1148.821      607.674        1.004        0.160      129.325       20.310        0.025      330.355       -2.324      871.053
12/27/2013  01:18:00     -117.806      -38.075      -15.590       40.555       42.055       27.854     1644.693     1768.608      775.818        0.988        0.209      123.806       24.225        0.038      330.369       -2.302      871.077
12/27/2013  01:19:00     -128.865      -11.452       -9.806       45.235       59.610       30.423     2046.225     3553.382      925.570        1.168        0.326      129.373       25.996        0.040      330.380       -2.285      871.089
12/27/2013  01:20:00     -147.743        7.983      -17.479       56.496       40.599       25.045     3191.840     1648.262      627.247        1.383        0.273      147.958       25.298        0.029      330.421       -2.218      871.080
12/27/2013  01:21:00     -114.215       -2.767      -13.741       31.432       37.707       23.232      987.966     1421.783      539.741        0.810        0.147      114.249       10.876        0.009      330.466       -2.143      871.065
12/27/2013  01:22:00     -137.155       20.547      -19.201       39.403       34.986       18.722     1552.630     1224.048      350.519        1.136        0.156      138.686       10.799        0.006      330.509       -2.073      871.048
12/27/2013  01:23:00     -177.170       50.585      -21.836       33.155       34.179       23.844     1099.221     1168.212      568.533        1.863        0.142      184.250       14.279        0.006      330.563       -1.985      871.021
12/27/2013  01:24:00     -167.107       39.780      -16.830       23.955       29.285       21.731      573.836      857.589      472.231        1.585        0.095      171.776        9.591        0.003      330.580       -1.955      871.004
12/27/2013  01:25:00     -124.200       23.906       -8.524       35.734       25.013       17.466     1276.894      625.649      305.065        0.914        0.110      126.480       13.134        0.011      330.640       -1.857      870.986
12/27/2013  01:26:00      -78.063       16.453       -6.013       32.509       24.700       20.141     1056.854      610.082      405.661        0.424        0.104       79.778        7.528        0.009      330.760       -1.661      870.973
12/27/2013  01:27:00      -62.614      -11.109       -6.732       15.740       22.184       13.339      247.752      492.138      177.925        0.250        0.046       63.592       11.380        0.032      330.647       -1.847      870.957
12/27/2013  01:28:00      -43.090      -24.665       -4.335       25.811       14.483       11.010      666.205      209.760      121.220        0.174        0.050       49.650       12.154        0.060      330.620       -1.891      870.932
12/27/2013  01:29:00      -27.677      -15.393       -9.007       17.593       10.216       12.461      309.513      104.366      155.267        0.083        0.028       31.669        5.957        0.035      330.580       -1.956      870.928
12/27/2013  01:30:00       -5.113      -30.352      -11.170       19.582       13.689       13.386      383.448      187.383      179.180        0.091        0.038       30.780       11.309        0.135      330.596       -1.928      870.927
12/27/2013  01:31:00      -30.163      -20.323       -8.971       20.290       13.621       10.951      411.675      185.526      119.928        0.106        0.036       36.370        9.856        0.073      330.523       -2.049      870.927
12/27/2013  01:32:00      -26.488      -20.818       -8.849       15.346       11.389        9.519      235.503      129.710       90.611        0.083        0.023       33.690        9.052        0.072      330.581       -1.954      870.938
12/27/2013  01:33:00      -47.038      -44.204       -7.859       12.857       12.112        9.478      165.308      146.696       89.825        0.232        0.020       64.549        3.460        0.003      330.602       -1.920      870.955
12/27/2013  01:34:00      -37.432      -26.935       -9.363       12.359       15.856        9.209      152.749      251.401       84.812        0.135        0.024       46.116        5.715        0.015      330.843       -1.526      870.973
12/27/2013  01:35:00      -65.556      -37.491       -9.884       22.333       16.323       10.188      498.771      266.439      103.798        0.333        0.043       75.519       10.329        0.019      330.741       -1.691      871.015
12/27/2013  01:36:00      -62.253      -43.097      -17.545       27.029       22.319       15.303      730.546      498.131      234.189        0.375        0.073       75.715       14.883        0.039      330.572       -1.969      871.062
12/27/2013  01:37:00     -105.910      -27.658       -7.804       22.901       21.488       15.673      524.446      461.713      245.629        0.664        0.062      109.462       10.970        0.010      330.360       -2.316      871.090
12/27/2013  01:38:00     -119.432      -23.191      -18.937       17.239       15.334       12.573      297.182      235.122      158.079        0.793        0.035      121.663        7.188        0.003      330.396       -2.258      871.096
12/27/2013  01:39:00      -86.554      -31.891      -10.927       14.203       13.070        7.941      201.739      170.835       63.063        0.453        0.022       92.243        3.177        0.001      330.424       -2.212      871.107
12/27/2013  01:40:00      -93.507      -30.517      -13.774       19.060       14.091       12.384      363.271      198.566      153.358        0.529        0.036       98.360       11.179        0.013      330.408       -2.239      871.106
12/27/2013  01:41:00     -105.202       -9.545      -10.003       29.980       22.813       16.310      898.791      520.413      266.009        0.647        0.084      105.634       15.541        0.022      330.412       -2.232      871.082
12/27/2013  01:42:00      -80.208       10.191       -8.435       53.658       40.641       26.573     2879.167     1651.693      706.140        0.592        0.262       80.852       29.438        0.133      330.507       -2.075      871.065
12/27/2013  01:43:00     -162.205       49.018      -24.180       50.645       40.972       29.844     2564.910     1678.698      890.673        1.722        0.257      169.450       13.859        0.007      330.523       -2.051      871.069
12/27/2013  01:44:00     -182.977       26.303      -23.059       31.552       45.614       23.980      995.542     2080.682      575.062        1.918        0.183      184.858       15.284        0.007      330.493       -2.101      871.096
12/27/2013  01:45:00     -137.839      -24.143      -10.960       51.388       34.288       24.097     2640.709     1175.654      580.644        1.205        0.220      139.938       27.420        0.038      330.375       -2.293      871.136
12/27/2013  01:46:00     -139.872      -32.861       -5.460       41.270       33.875       24.283     1703.234     1147.505      589.642        1.206        0.172      143.681       24.257        0.029      330.401       -2.250      871.174
12/27/2013  01:47:00     -176.874       -5.563      -22.594       27.610       22.604       15.543      762.324      510.954      241.571        1.667        0.076      176.961       13.439        0.006      330.365       -2.308      871.181
12/27/2013  01:48:00     -127.645      -24.035      -12.700       28.156       32.385       17.892      792.772     1048.769      320.120        0.960        0.108      129.888       15.124        0.014      330.377       -2.290      871.171
12/27/2013  01:49:00      -69.340      -28.683        1.265       26.313       16.556       13.425      692.349      274.089      180.224        0.339        0.057       75.038       12.456        0.028      330.357       -2.322      871.165
12/27/2013  01:50:00      -52.173      -25.383       -5.313       20.283       12.965       10.491      411.399      168.102      110.060        0.204        0.034       58.019       10.095        0.030      330.433       -2.198      871.154
12/27/2013  01:51:00      -69.489      -25.019       -7.625       12.969        9.731        8.141      168.200       94.694       66.273        0.292        0.016       73.855        4.679        0.004      330.509       -2.072      871.143
12/27/2013  01:52:00      -78.942      -22.060       -9.091       12.599        8.780        7.470      158.735       77.094       55.800        0.355        0.015       81.967        5.488        0.004      330.522       -2.051      871.132
12/27/2013  01:53:00      -92.771      -23.058       -6.450       20.170       16.253       14.722      406.839      264.164      216.740        0.503        0.044       95.594       10.844        0.013      330.528       -2.042      871.122
12/27/2013  01:54:00     -103.376      -28.447      -10.805       17.377       21.263       17.202      301.970      452.096      295.919        0.633        0.052      107.219       14.729        0.019      330.476       -2.126      871.117
12/27/2013  01:55:00     -134.506      -24.922      -18.765       12.150       14.549       11.476      147.629      211.659      131.707        0.978        0.025      136.796        4.694        0.001      330.368       -2.304      871.124
12/27/2013  01:56:00     -116.905      -34.426       -7.040       30.600       28.070       16.057      936.365      787.932      257.833        0.844        0.099      121.869       14.057        0.013      330.315       -2.392      871.122
12/27/2013  01:57:00     -137.670      -33.944      -15.181       24.485       23.681       15.334      599.501      560.772      235.117        1.087        0.070      141.793        7.532        0.003      330.383       -2.279      871.135
12/27/2013  01:58:00     -160.862      -55.233       -6.868       34.353       34.170       19.976     1180.163     1167.557      399.059        1.586        0.137      170.080       17.518        0.011      330.310       -2.400      871.144
12/27/2013  01:59:00     -133.913      -37.358       -6.078       38.817       45.364       21.209     1506.733     2057.909      449.817        1.169        0.201      139.026       15.350        0.012      330.310       -2.398      871.138
12/27/2013  02:00:00     -173.387        2.456      -18.114       43.938       40.629       32.700     1930.518     1650.739     1069.277        1.752        0.233      173.404       26.827        0.024      330.221       -2.546      871.126
12/27/2013  02:01:00      -99.330       -7.648       -5.237       41.217       38.473       24.819     1698.802     1480.159      615.963        0.687        0.190       99.624       19.387        0.038      330.242       -2.511      871.119
12/27/2013  02:02:00      -81.828       -7.099       -1.490       45.935       31.397       22.329     2110.065      985.782      498.572        0.517        0.180       82.136       21.501        0.069      330.286       -2.438      871.113
12/27/2013  02:03:00     -109.657        7.761       -2.672       32.278       35.238       24.218     1041.896     1241.705      586.489        0.748        0.144      109.931       19.324        0.031      330.469       -2.138      871.100
12/27/2013  02:04:00     -139.365        5.074      -10.476       48.246       29.366       22.255     2327.694      862.356      495.278        1.162        0.184      139.458       24.823        0.032      330.415       -2.226      871.093
12/27/2013  02:05:00     -155.762        3.858      -12.880       30.524       27.007       16.368      931.743      729.380      267.927        1.319        0.096      155.810        8.445        0.003      330.531       -2.037      871.089
12/27/2013  02:06:00     -111.810       -2.609       -8.631       35.091       27.943       13.583     1231.354      780.796      184.484        0.739        0.110      111.840        8.720        0.006      330.564       -1.984      871.098
12/27/2013  02:07:00      -99.394      -15.766       -5.859       24.292       29.678       17.591      590.112      880.813      309.459        0.597        0.089      100.636       10.079        0.010      330.525       -2.045      871.101
12/27/2013  02:08:00     -109.032      -29.772      -10.409       26.810       18.054       19.107      718.790      325.944      365.095        0.715        0.070      113.023       18.439        0.027      330.484       -2.113      871.096
12/27/2013  02:09:00      -87.310      -24.822       -9.250       21.974       14.751       13.671      482.843      217.583      186.892        0.461        0.044       90.770       11.080        0.015      330.470       -2.136      871.086
12/27/2013  02:10:00      -83.562      -19.782       -4.693       26.569       23.636       15.132      705.887      558.651      228.972        0.444        0.075       85.872       15.618        0.033      330.460       -2.152      871.078
12/27/2013  02:11:00     -109.805      -40.260       -7.111       25.235       25.227       11.956      636.822      636.413      142.934        0.757        0.071      116.954       10.592        0.008      330.515       -2.061      871.089
12/27/2013  02:12:00      -99.090      -40.966       -3.579       45.923       36.899       20.218     2108.968     1361.531      408.785        0.769        0.194      107.224       16.081        0.022      330.521       -2.054      871.101
12/27/2013  02:13:00      -51.162      -15.837        9.801       29.238       37.878       20.653      854.888     1434.710      426.565        0.284        0.136       53.557       18.347        0.117      330.477       -2.125      871.096
12/27/2013  02:14:00      -35.807      -28.156        1.399       23.564       22.624       18.637      555.269      511.823      347.347        0.175        0.071       45.551       11.727        0.066      330.496       -2.094      871.076
12/27/2013  02:15:00      -35.330      -11.481       -5.426       15.982       18.005       17.548      255.438      324.192      307.920        0.115        0.044       37.149       11.108        0.089      330.518       -2.056      871.084
12/27/2013  02:16:00      -30.010      -11.996      -19.703       11.050       10.579        8.873      122.099      111.923       78.725        0.087        0.016       32.319        5.796        0.032      330.691       -1.775      871.097
12/27/2013  02:17:00       -3.652      -22.319        5.450       13.575       12.066       10.603      184.271      145.581      112.413        0.049        0.022       22.616        4.937        0.048      330.673       -1.803      871.098
12/27/2013  02:18:00       -3.565      -23.274        3.980       18.505       15.400        8.987      342.440      237.174       80.769        0.062        0.033       23.546        6.972        0.088      330.752       -1.676      871.103
12/27/2013  02:19:00      -95.162      -37.845       -9.435       17.160       15.829       12.363      294.479      250.542      152.845        0.564        0.035      102.412        6.972        0.005      330.506       -2.077      871.100
12/27/2013  02:20:00     -101.956      -44.803       -9.109       29.885       14.766       17.527      893.116      218.042      307.196        0.695        0.071      111.366       19.679        0.031      330.430       -2.202      871.102
12/27/2013  02:21:00      -45.825      -29.316       -5.685       20.272       20.858        9.991      410.954      435.060       99.818        0.197        0.047       54.400        5.467        0.010      330.401       -2.249      871.114
12/27/2013  02:22:00      -29.652       -5.147        0.472       16.096       17.198       13.452      259.091      295.769      180.951        0.082        0.037       30.096       11.286        0.141      330.417       -2.223      871.115
12/27/2013  02:23:00      -45.725       -4.844      -11.133       13.638       17.569        8.966      185.996      308.655       80.385        0.141        0.029       45.981        4.998        0.012      330.446       -2.175      871.116
12/27/2013  02:24:00      -50.913      -33.355      -11.169       26.176       14.503       13.702      685.165      210.338      187.746        0.246        0.054       60.866       14.129        0.054      330.477       -2.126      871.139
12/27/2013  02:25:00      -29.853      -24.405        4.617       29.315       16.312       20.426      859.360      266.084      417.202        0.153        0.077       38.559       17.891        0.215      330.449       -2.171      871.168
12/27/2013  02:26:00     -105.394      -56.075       -4.924       16.975       19.528       13.926      288.167      381.327      193.930        0.757        0.043      119.383        9.122        0.006      330.353       -2.327      871.179
12/27/2013  02:27:00     -125.093      -36.859       -5.393       24.482       20.967       12.709      599.348      439.609      161.530        0.912        0.060      130.410       10.442        0.006      330.341       -2.348      871.185
12/27/2013  02:28:00     -119.090      -53.438       -5.989       20.461       21.209       13.940      418.669      449.820      194.320        0.907        0.053      130.530        8.861        0.005      330.276       -2.455      871.211
12/27/2013  02:29:00     -107.001      -45.446        1.486       42.177       26.598       21.927     1778.929      707.456      480.788        0.824        0.148      116.252       20.342        0.031      330.336       -2.356      871.226
12/27/2013  02:30:00     -104.739      -54.128       -0.220       28.024       22.910       14.492      785.317      524.874      210.009        0.771        0.076      117.898       10.972        0.009      330.338       -2.355      871.228
12/27/2013  02:31:00      -34.798      -35.601        0.271       39.079       19.943       14.479     1527.131      397.733      209.645        0.231        0.107       49.783       14.977        0.091      330.435       -2.195      871.220
12/27/2013  02:32:00      -18.924      -26.980       -1.203       21.281       17.234       12.035      452.866      297.012      144.836        0.099        0.045       32.955       11.056        0.113      330.465       -2.145      871.218
12/27/2013  02:33:00      -62.795      -36.011       -1.975       21.471       19.170       14.329      460.997      367.489      205.324        0.314        0.052       72.388       11.287        0.024      330.368       -2.305      871.219
12/27/2013  02:34:00      -67.180      -20.225       -1.859       18.135       20.293       14.533      328.880      411.795      211.202        0.294        0.048       70.158        3.744        0.003      330.328       -2.368      871.201
12/27/2013  02:35:00      -38.530      -33.299        2.152       24.726       15.529       14.368      611.367      241.147      206.454        0.183        0.053       50.925       14.834        0.085      330.399       -2.253      871.197
12/27/2013  02:36:00      -71.537      -46.238       -4.160       25.291       15.358       13.639      639.632      235.866      186.022        0.417        0.053       85.179       13.119        0.024      330.397       -2.256      871.219
12/27/2013  02:37:00     -132.429      -53.602       -4.093       26.643       24.733       16.544      709.872      611.728      273.704        1.101        0.080      142.866       11.451        0.006      330.308       -2.403      871.241
12/27/2013  02:38:00      -89.934      -47.656        9.797       42.052       30.130       22.349     1768.336      907.802      499.462        0.681        0.159      101.780       20.592        0.041      330.265       -2.472      871.245
12/27/2013  02:39:00      -74.712      -35.317       -0.604       21.836       20.123       15.097      476.830      404.953      227.916        0.397        0.055       82.639       13.584        0.027      330.348       -2.336      871.241
12/27/2013  02:40:00      -81.415      -21.592       -8.746       19.184       15.982       11.847      368.044      255.417      140.351        0.397        0.038       84.230        8.076        0.009      330.397       -2.256      871.228
12/27/2013  02:41:00      -82.605      -23.178      -10.626       12.035       13.949        9.233      144.852      194.571       85.252        0.395        0.021       85.795        7.866        0.008      330.402       -2.249      871.221
12/27/2013  02:42:00      -82.206      -22.676      -12.931       19.542       11.507       12.399      381.902      132.412      153.730        0.405        0.033       85.276       12.183        0.020      330.359       -2.318      871.209
12/27/2013  02:43:00      -81.543      -17.933       -5.903       17.106       12.728       11.104      292.608      162.015      123.291        0.379        0.029       83.492        7.514        0.008      330.356       -2.324      871.188
12/27/2013  02:44:00      -98.762      -16.866      -11.565       32.200       17.319       14.201     1036.810      299.961      201.665        0.585        0.077      100.191       13.639        0.019      330.334       -2.358      871.173
12/27/2013  02:45:00      -88.842      -33.899       -3.120       26.607       21.811       17.260      707.926      475.706      297.897        0.527        0.074       95.090       15.706        0.027      330.239       -2.516      871.163
12/27/2013  02:46:00      -79.717      -35.870       -8.020       28.609       18.893       13.108      818.459      356.927      171.812        0.453        0.067       87.415       14.223        0.026      330.169       -2.631      871.158
12/27/2013  02:47:00     -101.326      -25.719      -10.005       24.105       21.343       14.206      581.053      455.520      201.818        0.613        0.062      104.539       10.727        0.011      330.152       -2.659      871.148
12/27/2013  02:48:00      -69.768       -6.415       -2.952       31.617       25.602       18.527      999.621      655.459      343.258        0.346        0.100       70.062       15.161        0.047      330.117       -2.717      871.153
12/27/2013  02:49:00      -54.451        3.948       -8.050       28.448       23.006       15.341      809.303      529.297      235.354        0.231        0.079       54.594       13.414        0.060      330.113       -2.723      871.158
12/27/2013  02:50:00      -51.310        3.581       -6.234       27.852       24.229       12.448      775.733      587.054      154.965        0.210        0.076       51.435       14.913        0.084      330.184       -2.605      871.146
12/27/2013  02:51:00       -1.137       -7.410        7.763       13.553       10.372        8.191      183.671      107.573       67.101        0.024        0.018        7.497        4.810        0.412      330.315       -2.391      871.124
12/27/2013  02:52:00      -34.400      -11.975       -3.346        8.048        9.400       10.459       64.774       88.356      109.399        0.080        0.013       36.424        4.922        0.018      330.345       -2.343      871.107
12/27/2013  02:53:00      -41.320      -17.119       -9.259        8.812       11.948        8.193       77.650      142.761       67.132        0.119        0.014       44.726        5.002        0.013      330.223       -2.542      871.093
12/27/2013  02:54:00      -62.018      -16.499       -8.137       11.122        7.531        6.927      123.706       56.716       47.982        0.221        0.011       64.175        3.961        0.004      330.181       -2.612      871.090
12/27/2013  02:55:00      -80.585      -16.891      -13.112       13.513       12.997        9.071      182.597      168.934       82.274        0.369        0.022       82.336        5.303        0.004      330.077       -2.781      871.088
12/27/2013  02:56:00      -62.331      -27.758      -11.910       16.164       16.428       10.041      261.264      269.893      100.828        0.271        0.032       68.233        8.801        0.017      330.008       -2.894      871.087
12/27/2013  02:57:00      -64.436      -23.602      -10.943       10.215       14.004        7.791      104.356      196.108       60.698        0.259        0.018       68.623        5.650        0.007      330.020       -2.874      871.089
12/27/2013  02:58:00      -82.100      -12.762      -11.200       13.241        6.920        6.696      175.328       47.883       44.840        0.365        0.013       83.086        1.324        0.000      330.033       -2.853      871.094
12/27/2013  02:59:00      -86.526      -25.081      -14.947       11.626       14.980        7.915      135.171      224.403       62.643        0.438        0.021       90.088        4.757        0.003      329.948       -2.994      871.096
12/27/2013  03:00:00      -64.048      -17.353      -12.395       14.616       16.362       12.289      213.640      267.706      151.026        0.259        0.032       66.357        9.496        0.020      329.964       -2.966      871.094
12/27/2013  03:01:00      -54.344        0.712       -3.585       24.834       17.803       14.244      616.720      316.932      202.895        0.205        0.057       54.349       12.638        0.054      330.025       -2.865      871.078
12/27/2013  03:02:00      -52.556        1.685      -11.819       12.269        8.625       10.462      150.532       74.394      109.443        0.162        0.017       52.583        4.850        0.009      330.168       -2.634      871.079
12/27/2013  03:03:00      -23.963        1.287       -7.777       12.911       10.483        7.617      166.689      109.885       58.024        0.049        0.017       23.997        2.474        0.011      330.290       -2.431      871.084
12/27/2013  03:04:00      -46.467      -10.955       -7.546       19.196       12.163        8.023      368.494      147.937       64.362        0.146        0.029       47.741       10.841        0.052      330.371       -2.299      871.078
12/27/2013  03:05:00      -87.973      -11.408      -10.725       19.222       15.902       14.578      369.466      252.881      212.521        0.441        0.042       88.709       10.969        0.015      330.079       -2.776      871.058
12/27/2013  03:06:00      -78.978      -23.924       -7.735       23.659       22.457       11.213      559.739      504.337      125.722        0.403        0.059       82.522       11.677        0.020      329.993       -2.919      871.047
12/27/2013  03:07:00      -65.047        8.616      -10.593       19.885       16.288       14.784      395.419      265.286      218.568        0.265        0.044       65.615        9.312        0.020      330.150       -2.661      871.043
12/27/2013  03:08:00      -43.656       -2.821       -7.565       11.986        7.808        7.264      143.669       60.964       52.769        0.111        0.013       43.747        2.889        0.004      330.149       -2.664      871.041
12/27/2013  03:09:00      -50.073      -11.291       -3.471       16.945        8.734        5.941      287.146       76.289       35.298        0.152        0.020       51.330        1.317        0.001      330.161       -2.643      871.066
12/27/2013  03:10:00      -59.591      -22.412       -8.330        9.572       14.492        8.436       91.627      210.025       71.161        0.225        0.019       63.666        4.830        0.006      330.133       -2.690      871.097
12/27/2013  03:11:00      -56.628      -11.875       -8.464       18.258       17.148       10.682      333.355      294.046      114.115        0.208        0.037       57.859        8.818        0.023      330.008       -2.894      871.116
12/27/2013  03:12:00      -57.543        5.039      -15.071       14.024       14.376        8.236      196.659      206.665       67.825        0.202        0.024       57.763        3.028        0.003      330.086       -2.767      871.121
12/27/2013  03:13:00      -50.938        9.458       -8.564       20.769       10.018       12.263      431.339      100.366      150.389        0.172        0.034       51.809        7.847        0.023      330.069       -2.794      871.110
12/27/2013  03:14:00      -34.923        3.609        0.505       21.483        7.508        7.941      461.529       56.373       63.058        0.091        0.029       35.109        9.692        0.076      330.088       -2.764      871.083
12/27/2013  03:15:00       12.405       12.691        4.372       22.727        8.015        6.175      516.538       64.248       38.126        0.048        0.031       17.747        5.270        0.088      330.259       -2.481      871.038
12/27/2013  03:16:00       55.994       17.993       -1.304        9.934       12.197       10.341       98.681      148.764      106.946        0.191        0.018       58.813        7.029        0.014      330.469       -2.139      871.013
12/27/2013  03:17:00       10.887        6.991        4.278       11.728       12.136        9.398      137.542      147.271       88.321        0.028        0.019       12.938        4.473        0.120      330.371       -2.300      871.015
12/27/2013  03:18:00       -0.644       -5.828        9.358        5.306        9.301        6.557       28.159       86.512       42.991        0.014        0.008        5.864        3.857        0.433      330.503       -2.082      871.019
12/27/2013  03:19:00      -29.065       -8.535       -3.031       14.721        9.234        9.943      216.695       85.266       98.871        0.066        0.020       30.292       10.157        0.112      330.355       -2.326      871.027
12/27/2013  03:20:00      -56.965      -16.446      -13.014        9.552        9.838        6.926       91.246       96.782       47.973        0.196        0.012       59.291        0.476        0.000      330.093       -2.754      871.051
12/27/2013  03:21:00      -48.399       -5.863       -5.317       10.471       10.836        8.349      109.634      117.412       69.714        0.135        0.015       48.753        6.538        0.018      330.025       -2.868      871.055
12/27/2013  03:22:00      -58.933       -4.524       -9.463        8.979        8.979        6.567       80.622       80.620       43.124        0.189        0.010       59.107        4.325        0.005      330.124       -2.706      871.035
12/27/2013  03:23:00      -62.160      -15.804       -7.574        9.212       10.214        6.454       84.857      104.326       41.659        0.220        0.012       64.138        5.224        0.007      330.197       -2.583      871.020
12/27/2013  03:24:00      -14.260       -7.324       -7.512       11.335       11.547        5.954      128.481      133.342       35.446        0.031        0.015       16.031        3.797        0.056      330.155       -2.654      871.010
12/27/2013  03:25:00       12.475       20.687       14.404       11.054        8.388       12.796      122.184       70.357      163.728        0.057        0.018       24.157       11.498        0.227      330.200       -2.580      870.996
12/27/2013  03:26:00       36.839       22.578       15.627       10.834       10.885       11.823      117.383      118.493      139.777        0.124        0.019       43.207       10.158        0.055      330.364       -2.310      870.972
12/27/2013  03:27:00        9.036       16.306        1.450       15.531       10.301        7.837      241.198      106.116       61.420        0.038        0.020       18.643        6.042        0.105      330.489       -2.106      870.972
12/27/2013  03:28:00      -31.894       -1.361       -3.578       18.007        8.826        7.801      324.257       77.900       60.851        0.075        0.023       31.923        9.736        0.093      330.230       -2.530      870.980
12/27/2013  03:29:00      -61.293      -13.176       -9.720       11.258        8.080        6.773      126.749       65.284       45.874        0.213        0.012       62.693        2.608        0.002      330.040       -2.843      870.998
12/27/2013  03:30:00      -51.701      -19.066       -8.859        5.610        6.064        5.721       31.473       36.772       32.727        0.161        0.005       55.105        3.797        0.005      330.088       -2.764      870.997
12/27/2013  03:31:00      -30.666        5.679       -3.953       11.580        8.386        9.731      134.101       70.318       94.695        0.064        0.015       31.188        6.520        0.044      330.093       -2.755      870.985
12/27/2013  03:32:00      -22.469       -9.214       -1.459       13.933       15.904       10.145      194.121      252.940      102.917        0.057        0.027       24.284       12.827        0.279      330.140       -2.678      870.995
12/27/2013  03:33:00      -17.456      -24.990       -6.743       14.079       13.861       11.695      198.209      192.128      136.781        0.075        0.026       30.483        8.144        0.071      330.113       -2.724      871.022
12/27/2013  03:34:00      -43.385       -2.875       -4.869       15.960       11.298        7.610      254.735      127.635       57.910        0.118        0.022       43.480        9.147        0.044      329.988       -2.928      871.000
12/27/2013  03:35:00      -81.485       14.368      -10.683       11.399        8.682        8.026      129.947       75.384       64.419        0.362        0.013       82.742        4.228        0.003      329.871       -3.118      870.954
12/27/2013  03:36:00      -46.520      -12.363       -9.183       15.966       10.716        7.571      254.904      114.833       57.313        0.141        0.021       48.135        5.734        0.014      329.899       -3.075      870.947
12/27/2013  03:37:00      -67.882       -1.901      -11.683        9.577        6.379        7.616       91.714       40.688       58.011        0.247        0.010       67.909        4.528        0.004      329.907       -3.059      870.955
12/27/2013  03:38:00      -77.758       -7.295      -15.398       12.968       13.996        8.521      168.178      195.880       72.612        0.339        0.022       78.100        7.499        0.009      329.869       -3.122      870.947
12/27/2013  03:39:00      -75.162      -27.491       -9.624       14.411       16.463       14.797      207.672      271.021      218.942        0.360        0.035       80.032       11.178        0.020      329.804       -3.226      870.946
12/27/2013  03:40:00      -89.679      -28.072      -14.538       15.047       20.772       13.609      226.409      431.472      185.201        0.494        0.042       93.970       10.734        0.013      329.744       -3.325      870.962
12/27/2013  03:41:00     -104.651      -39.018      -14.888       22.859       22.197       16.975      522.557      492.692      288.156        0.700        0.065      111.688       12.951        0.013      329.699       -3.399      870.968
12/27/2013  03:42:00      -71.490      -39.706       -6.990       33.267       20.776       18.039     1106.682      431.631      325.396        0.430        0.093       81.777       10.765        0.017      329.733       -3.343      870.956
12/27/2013  03:43:00      -57.352      -14.579       -4.780       22.958       12.724       10.000      527.087      161.906      100.002        0.216        0.039       59.176        9.053        0.023      329.730       -3.347      870.926
12/27/2013  03:44:00      -14.862        5.683       -1.565        8.018        6.304        3.113       64.294       39.738        9.691        0.018        0.006       15.912        2.993        0.035      329.901       -3.068      870.896
12/27/2013  03:45:00       -5.479       17.186        2.418        7.380        6.290        6.197       54.470       39.564       38.405        0.023        0.007       18.038        3.949        0.048      330.131       -2.692      870.880
12/27/2013  03:46:00      -16.389        3.855        1.546        9.909        7.558        5.514       98.183       57.118       30.407        0.024        0.009       16.836        3.046        0.033      330.205       -2.571      870.881
12/27/2013  03:47:00      -46.494       -8.221       -7.803        7.531        9.678        8.474       56.711       93.659       71.814        0.126        0.011       47.215        5.343        0.013      330.040       -2.841      870.878
12/27/2013  03:48:00      -65.615      -17.332       -3.384       23.670       13.843        9.284      560.285      191.628       86.191        0.273        0.042       67.866       10.927        0.026      329.868       -3.123      870.891
12/27/2013  03:49:00      -92.735      -30.085      -13.140       15.618       13.567       10.548      243.922      184.067      111.251        0.511        0.027       97.493        7.191        0.005      329.746       -3.323      870.935
12/27/2013  03:50:00      -84.151      -32.112      -10.702       14.119       18.623       11.534      199.357      346.819      133.035        0.445        0.034       90.070        6.793        0.006      329.770       -3.283      870.987
12/27/2013  03:51:00      -99.025      -23.848      -12.515       20.511       12.773       10.979      420.704      163.159      120.537        0.562        0.035      101.856        7.378        0.005      329.823       -3.198      871.025
12/27/2013  03:52:00      -77.574      -19.719       -3.909       20.797       15.397       13.020      432.497      237.054      169.520        0.363        0.042       80.041       12.830        0.026      329.863       -3.132      871.021
12/27/2013  03:53:00     -101.155      -18.227      -13.519       18.281       14.263        8.676      334.206      203.425       75.274        0.568        0.031      102.784        4.546        0.002      329.843       -3.164      870.961
12/27/2013  03:54:00     -116.825        2.998      -14.975       48.664       23.402       18.979     2368.191      547.673      360.214        0.858        0.164      116.863       23.570        0.041      329.746       -3.322      870.905
12/27/2013  03:55:00     -109.111      -21.029       -6.676       33.610       26.558       18.634     1129.615      705.348      347.212        0.729        0.109      111.120       19.917        0.032      329.779       -3.268      870.881
12/27/2013  03:56:00      -72.685       -4.070       -6.377       32.472       22.921       17.584     1054.463      525.368      309.197        0.361        0.094       72.799       13.584        0.035      329.723       -3.361      870.864
12/27/2013  03:57:00      -64.892      -15.144        0.282       26.192       24.784       17.894      686.009      614.240      320.187        0.303        0.081       66.636       16.316        0.060      329.792       -3.249      870.833
12/27/2013  03:58:00      -80.350      -45.910        2.391       37.493       26.307       19.680     1405.695      692.043      387.288        0.553        0.124       92.541       18.501        0.040      329.781       -3.266      870.824
12/27/2013  03:59:00      -88.071      -35.991       -3.794       23.579       29.273       13.942      555.950      856.923      194.390        0.534        0.080       95.141       10.791        0.013      329.655       -3.471      870.807
12/27/2013  04:00:00      -82.833       16.689      -11.886       41.784       29.578       17.990     1745.893      874.858      323.644        0.511        0.147       84.497       18.149        0.046      329.736       -3.339      870.766
12/27/2013  04:01:00      -91.374       33.373      -14.119       34.641       35.327       22.610     1199.970     1248.020      511.216        0.631        0.148       97.278       14.190        0.021      329.879       -3.105      870.719
12/27/2013  04:02:00      -71.648      -12.991       -3.448       29.892       28.140       19.422      893.523      791.844      377.213        0.369        0.103       72.816       16.263        0.050      329.795       -3.243      870.713
12/27/2013  04:03:00     -114.448      -34.338       -7.409       20.870       28.302       15.142      435.562      801.026      229.265        0.790        0.073      119.488        7.637        0.004      329.755       -3.309      870.725
12/27/2013  04:04:00      -93.346      -53.162       -4.000       61.589       33.481       23.716     3793.232     1120.959      562.460        0.852        0.274      107.423       32.343        0.091      329.754       -3.310      870.735
12/27/2013  04:05:00      -27.848        2.093        2.717       20.187        9.806       17.842      407.522       96.150      318.329        0.080        0.041       27.926       10.788        0.149      329.764       -3.293      870.754
12/27/2013  04:06:00      -29.887      -20.212       -2.344       16.639       17.723       10.460      276.867      314.118      109.417        0.100        0.035       36.080        6.146        0.029      329.924       -3.032      870.759
12/27/2013  04:07:00      -42.939      -28.078       -6.967       43.555       10.678       11.339     1897.011      114.014      128.569        0.241        0.107       51.305        7.808        0.023      329.958       -2.976      870.755
12/27/2013  04:08:00      -86.456      -27.454       -4.810       32.162       30.835       17.075     1034.408      950.797      291.571        0.526        0.114       90.710       10.332        0.013      329.803       -3.230      870.723
12/27/2013  04:09:00      -49.509        3.027       -6.259       27.712       29.175       24.611      767.955      851.209      605.724        0.236        0.111       49.601       18.134        0.134      329.703       -3.394      870.680
12/27/2013  04:10:00      -41.784       16.168      -12.793       12.416       12.187        9.809      154.159      148.517       96.217        0.128        0.020       44.803        7.115        0.025      329.880       -3.103      870.638
12/27/2013  04:11:00      -19.458       16.027       -0.896       19.421       11.120        8.048      377.190      123.662       64.773        0.060        0.028       25.209        8.464        0.113      330.520       -2.053      870.619
12/27/2013  04:12:00      -47.091      -19.254       -6.842       34.441       17.730       10.003     1186.210      314.361      100.065        0.212        0.080       50.875       14.156        0.077      330.149       -2.663      870.613
12/27/2013  04:13:00      -98.212      -30.578       -6.897       22.227       18.373       12.896      494.060      337.560      166.296        0.581        0.050      102.862       11.382        0.012      329.803       -3.230      870.624
12/27/2013  04:14:00     -118.233      -29.096      -14.381       20.706       17.648       12.156      428.757      311.442      147.765        0.796        0.044      121.760        7.835        0.004      329.706       -3.388      870.630
12/27/2013  04:15:00      -43.127      -19.065       -5.550       18.271       19.481       15.995      333.818      379.493      255.834        0.161        0.048       47.153       11.260        0.057      329.718       -3.369      870.625
12/27/2013  04:16:00      -37.476       -7.956      -12.976       13.754       12.079        7.634      189.163      145.913       58.274        0.101        0.020       38.311        4.929        0.017      329.940       -3.006      870.625
12/27/2013  04:17:00      -47.623       -6.554       -9.473        7.604       10.946        6.227       57.828      119.815       38.770        0.131        0.011       48.072        4.087        0.007      330.102       -2.740      870.603
12/27/2013  04:18:00      -56.147      -20.528      -13.036       11.731       14.354       10.646      137.625      206.028      113.347        0.210        0.023       59.782        7.167        0.014      329.821       -3.200      870.568
12/27/2013  04:19:00      -64.573      -37.891      -15.343       20.960       14.107       14.166      439.307      199.015      200.684        0.334        0.042       74.869        4.837        0.004      329.816       -3.208      870.561
12/27/2013  04:20:00      -52.536      -27.175      -10.874       17.011       21.264       12.612      289.375      452.166      159.072        0.226        0.045       59.148        9.235        0.024      329.785       -3.259      870.563
12/27/2013  04:21:00      -94.265        0.021      -20.142       20.985       16.025       15.949      440.385      256.792      254.371        0.512        0.048       94.265       14.566        0.024      329.748       -3.319      870.545
12/27/2013  04:22:00      -83.372      -28.154      -12.821       20.230       19.542       13.831      409.258      381.899      191.293        0.445        0.049       87.997       12.876        0.021      329.728       -3.351      870.518
12/27/2013  04:23:00      -80.687      -11.152       -7.422       14.877       17.173        9.910      221.322      294.900       98.206        0.365        0.031       81.454        7.212        0.008      329.729       -3.351      870.496
12/27/2013  04:24:00     -107.118      -10.758      -15.555       11.146       14.969        7.844      124.244      224.059       61.532        0.612        0.020      107.657        5.862        0.003      329.789       -3.252      870.486
12/27/2013  04:25:00     -105.427      -22.381      -12.725       11.764       10.137        7.796      138.396      102.759       60.772        0.604        0.015      107.777        5.254        0.002      329.673       -3.440      870.493
12/27/2013  04:26:00     -121.791      -44.684      -18.510       23.920       19.415       12.163      572.185      376.947      147.928        0.913        0.055      129.730       10.687        0.007      329.540       -3.658      870.505
12/27/2013  04:27:00      -63.453      -49.116       -6.019       52.564       28.896       20.699     2762.950      834.952      428.462        0.525        0.201       80.242       16.890        0.044      329.550       -3.643      870.532
12/27/2013  04:28:00      -86.987      -39.114       -1.973       57.697       27.864       21.249     3328.989      776.403      451.525        0.683        0.228       95.376       28.980        0.092      329.582       -3.591      870.562
12/27/2013  04:29:00     -114.754      -29.641      -13.467       14.416       16.902       10.228      207.814      285.686      104.620        0.741        0.030      118.520        3.772        0.001      329.583       -3.591      870.570
12/27/2013  04:30:00     -116.552      -26.563      -16.801       16.661       18.924       15.252      277.600      358.107      232.634        0.772        0.043      119.540       11.473        0.009      329.564       -3.621      870.555
12/27/2013  04:31:00     -105.352      -51.558       -7.013       27.107       26.157       20.202      734.812      684.188      408.135        0.782        0.091      117.291       18.183        0.024      329.551       -3.641      870.557
12/27/2013  04:32:00     -100.486      -46.700       -4.986       18.325       15.903       10.596      335.795      252.898      112.282        0.650        0.035      110.807       10.465        0.009      329.586       -3.584      870.576
12/27/2013  04:33:00      -95.940      -44.328       -6.995       15.436       14.049        8.783      238.257      197.385       77.136        0.587        0.026      105.686        5.192        0.002      329.675       -3.439      870.571
12/27/2013  04:34:00      -81.478      -27.834       -9.143       10.581       15.454       10.323      111.967      238.837      106.558        0.398        0.023       86.101        5.660        0.004      329.707       -3.386      870.544
12/27/2013  04:35:00      -76.717      -21.824       -8.839       15.790       15.458       11.451      249.315      238.961      131.116        0.353        0.031       79.761        5.994        0.006      329.707       -3.386      870.531
12/27/2013  04:36:00     -125.924      -60.194      -16.075       23.747       14.677       12.804      563.912      215.409      163.937        1.034        0.047      139.571       10.042        0.005      329.653       -3.476      870.556
12/27/2013  04:37:00     -114.579      -62.949       -5.399       31.669       20.906       18.730     1002.955      437.054      350.803        0.946        0.090      130.733        8.333        0.004      329.628       -3.518      870.569
12/27/2013  04:38:00      -60.998      -29.681       -1.702       18.943       19.916       11.504      358.846      396.658      132.336        0.275        0.044       67.836        8.688        0.016      329.671       -3.444      870.531
12/27/2013  04:39:00      -39.242      -27.677        0.267       29.052       18.588       12.243      844.022      345.519      149.883        0.182        0.067       48.020       13.188        0.075      329.716       -3.372      870.499
12/27/2013  04:40:00      -52.708      -40.613       -7.327       29.880       14.872       15.417      892.818      221.163      237.697        0.292        0.068       66.540       11.206        0.028      329.757       -3.305      870.493
12/27/2013  04:41:00      -40.225      -23.704       -4.353       14.387        9.438        8.924      206.987       89.075       79.645        0.129        0.019       46.690        8.592        0.034      329.719       -3.363      870.485
12/27/2013  04:42:00      -42.348      -12.847       -1.782       14.859        9.815        6.628      220.782       96.328       43.933        0.116        0.018       44.254        5.042        0.013      329.780       -3.267      870.459
12/27/2013  04:43:00      -50.143      -30.529       -7.453       10.139       11.115        7.108      102.797      123.549       50.520        0.189        0.014       58.705        3.994        0.005      329.801       -3.234      870.441
12/27/2013  04:44:00      -58.731       -9.186       -4.731       17.106       11.885        8.827      292.617      141.247       77.917        0.203        0.026       59.445        4.997        0.007      329.741       -3.330      870.420
12/27/2013  04:45:00      -71.665      -15.325       -6.730        9.694       10.783        8.727       93.965      116.279       76.159        0.285        0.014       73.285        3.173        0.002      329.721       -3.362      870.425
12/27/2013  04:46:00      -62.720      -29.021      -10.829       10.852        8.062        5.481      117.776       65.002       30.038        0.255        0.011       69.109        2.309        0.001      329.714       -3.373      870.438
12/27/2013  04:47:00      -55.691      -17.317       -5.412       10.040       13.439        8.503      100.809      180.598       72.297        0.189        0.018       58.321        6.048        0.011      329.732       -3.346      870.452
12/27/2013  04:48:00      -61.749      -11.708       -7.240       14.621        8.807        8.576      213.776       77.556       73.546        0.218        0.018       62.850        8.215        0.017      329.753       -3.312      870.445
12/27/2013  04:49:00      -76.759       -9.560       -6.258       11.631       13.345        8.028      135.283      178.095       64.455        0.320        0.019       77.352        6.120        0.006      329.714       -3.375      870.438
12/27/2013  04:50:00      -76.753      -11.795       -7.095       14.260       11.204        9.071      203.350      125.520       82.287        0.325        0.021       77.654        6.705        0.007      329.658       -3.466      870.436
12/27/2013  04:51:00      -51.489      -25.919       -6.301       15.269       14.275        8.467      233.135      203.777       71.685        0.194        0.025       57.644        4.697        0.007      329.627       -3.518      870.449
12/27/2013  04:52:00      -76.639      -16.229       -5.220       19.087       17.125        9.667      364.312      293.273       93.453        0.346        0.038       78.339        6.495        0.007      329.598       -3.565      870.451
12/27/2013  04:53:00      -99.184      -15.716      -13.797       19.298       14.276       13.379      372.421      203.791      178.999        0.551        0.038      100.422       10.440        0.011      329.585       -3.587      870.456
12/27/2013  04:54:00      -62.571      -12.769       -5.277       18.118       15.469       11.418      328.274      239.287      130.371        0.240        0.035       63.861        8.114        0.016      329.487       -3.745      870.450
12/27/2013  04:55:00      -49.303      -10.072       -2.490        7.577        9.492        7.168       57.408       90.090       51.373        0.137        0.010       50.321        5.097        0.010      329.512       -3.705      870.455
12/27/2013  04:56:00      -53.996      -13.884      -10.075       10.762       10.791        7.488      115.813      116.437       56.074        0.175        0.014       55.752        4.515        0.007      329.574       -3.604      870.465
12/27/2013  04:57:00      -63.047       -7.513      -11.901        8.359        8.820        5.968       69.872       77.788       35.617        0.218        0.009       63.493        3.741        0.003      329.558       -3.632      870.469
12/27/2013  04:58:00      -65.457      -13.682       -9.313       13.253       11.598        6.872      175.645      134.508       47.218        0.246        0.018       66.872        4.155        0.004      329.534       -3.670      870.467
12/27/2013  04:59:00      -94.544      -21.960      -17.120        9.597       12.279        7.867       92.107      150.763       61.887        0.501        0.015       97.061        4.527        0.002      329.497       -3.729      870.477
12/27/2013  05:00:00     -113.195      -12.045      -13.996        8.448        8.824        8.187       71.374       77.864       67.032        0.669        0.011      113.834        3.073        0.001      329.423       -3.850      870.473
12/27/2013  05:01:00      -80.931      -12.708      -11.193       16.653        9.312        8.938      277.331       86.714       79.893        0.364        0.022       81.922        8.443        0.011      329.375       -3.931      870.460
12/27/2013  05:02:00      -59.648      -11.468      -11.353       11.282       11.504        7.835      127.273      132.336       61.391        0.207        0.016       60.740        6.075        0.010      329.469       -3.776      870.470
12/27/2013  05:03:00      -40.082       -9.287       -4.082       23.620       13.482       13.099      557.910      181.756      171.573        0.131        0.046       41.144       11.791        0.082      329.440       -3.823      870.473
12/27/2013  05:04:00      -72.264       -7.559       -8.369       23.486       12.263        9.385      551.580      150.378       88.072        0.307        0.040       72.659        6.892        0.009      329.468       -3.777      870.462
12/27/2013  05:05:00      -75.111       -8.302       -9.613       13.168       11.333       10.324      173.395      128.435      106.586        0.311        0.020       75.568        5.701        0.006      329.443       -3.819      870.461
12/27/2013  05:06:00      -38.515       -3.026       -1.726       11.696        8.322        8.537      136.798       69.251       72.885        0.089        0.014       38.633        6.259        0.026      329.444       -3.817      870.443
12/27/2013  05:07:00      -10.344        4.910        1.902        7.076        5.738        3.887       50.066       32.928       15.110        0.012        0.005       11.450        2.447        0.046      329.675       -3.439      870.435
12/27/2013  05:08:00       -7.318        0.494        1.218       11.226        5.714        6.207      126.029       32.646       38.530        0.013        0.010        7.335        6.133        0.699      329.755       -3.308      870.451
12/27/2013  05:09:00      -12.586       -9.981        1.003        7.501        5.581        4.125       56.272       31.143       17.017        0.018        0.005       16.063        2.986        0.035      329.628       -3.514      870.461
12/27/2013  05:10:00      -27.831      -15.434       -2.896       14.516        6.472        5.337      210.720       41.887       28.487        0.065        0.014       31.824        3.775        0.014      329.548       -3.648      870.454
12/27/2013  05:11:00      -71.897       -7.414       -7.307       12.539       12.675        9.880      157.225      160.662       97.621        0.285        0.021       72.278        6.288        0.008      329.432       -3.836      870.445
12/27/2013  05:12:00      -80.626       -2.619       -9.417       19.386       19.633       14.339      375.817      385.449      205.615        0.378        0.048       80.669        9.032        0.013      329.363       -3.951      870.449
12/27/2013  05:13:00      -83.761      -17.429      -11.580       26.127       16.436       13.929      682.600      270.132      194.009        0.430        0.057       85.555       14.561        0.029      329.297       -4.057      870.458
12/27/2013  05:14:00      -68.658      -35.651      -10.314       13.527       17.594       10.272      182.978      309.561      105.523        0.334        0.030       77.362        4.425        0.003      329.304       -4.046      870.465
12/27/2013  05:15:00      -73.571      -35.981      -18.385       14.751       13.452       10.369      217.588      180.969      107.518        0.378        0.025       81.898        2.644        0.001      329.349       -3.973      870.482
12/27/2013  05:16:00      -57.017      -33.088      -14.966       19.777       13.882       11.495      391.135      192.723      132.135        0.264        0.036       65.922        7.156        0.012      329.367       -3.942      870.478
12/27/2013  05:17:00      -62.669      -20.291      -10.865       12.475       20.996       10.153      155.633      440.848      103.074        0.258        0.035       65.872        4.774        0.005      329.461       -3.788      870.475
12/27/2013  05:18:00      -69.077        4.691       -9.787       22.312       13.160        7.977      497.807      173.175       63.629        0.281        0.037       69.236        7.947        0.013      329.489       -3.745      870.470
12/27/2013  05:19:00      -58.625       11.541       -4.493       15.155       14.862       12.920      229.681      220.886      166.927        0.210        0.031       59.750       10.270        0.030      329.483       -3.753      870.462
12/27/2013  05:20:00        5.729       13.202        1.261       21.187       12.702        9.913      448.910      161.353       98.260        0.046        0.035       14.392       10.063        0.489      329.791       -3.250      870.458
12/27/2013  05:21:00       29.851       37.508        4.040       18.465       16.484       10.914      340.955      271.723      119.119        0.152        0.037       47.937        7.426        0.024      329.853       -3.147      870.467
12/27/2013  05:22:00        3.063       12.292        4.357        7.392       12.056        7.073       54.639      145.343       50.026        0.021        0.013       12.668        3.030        0.057      329.752       -3.314      870.487
12/27/2013  05:23:00       13.638       11.881       -5.063        7.571       12.888        6.119       57.324      166.095       37.439        0.031        0.013       18.087        5.399        0.089      329.866       -3.129      870.496
12/27/2013  05:24:00      -10.697       -2.014        0.058        8.474        5.154        6.497       71.803       26.566       42.208        0.013        0.007       10.885        5.720        0.276      329.847       -3.157      870.487
12/27/2013  05:25:00      -58.285       -3.203       -9.019       16.543        9.106        9.331      273.662       82.924       87.063        0.197        0.022       58.373        7.823        0.018      329.489       -3.744      870.475
12/27/2013  05:26:00      -68.800       16.101       -7.845       20.065       11.143       10.508      402.602      124.156      110.410        0.285        0.032       70.659        8.676        0.015      329.441       -3.823      870.457
12/27/2013  05:27:00      -31.184        0.216       -7.887       12.952        9.685        7.955      167.757       93.803       63.277        0.068        0.016       31.185        6.198        0.039      329.688       -3.419      870.451
12/27/2013  05:28:00       -0.583       47.277       -5.451       28.347       35.366        6.951      803.527     1250.761       48.315        0.218        0.105       47.281       13.657        0.083      329.757       -3.305      870.454
12/27/2013  05:29:00       19.387       89.989       -9.754       10.175       10.849        5.770      103.532      117.711       33.296        0.441        0.013       92.054        4.224        0.002      329.874       -3.115      870.439
12/27/2013  05:30:00       -0.818       90.357      -13.105       13.832       10.992        6.193      191.313      120.825       38.354        0.434        0.018       90.361        4.413        0.002      329.869       -3.122      870.450
12/27/2013  05:31:00       -4.480       31.439        3.314       16.239       21.955       13.872      263.689      482.017      192.440        0.098        0.047       31.756       15.791        0.247      329.863       -3.132      870.470
12/27/2013  05:32:00       30.618       16.213       12.065       24.813       15.600       13.840      615.688      243.371      191.558        0.120        0.053       34.645        8.538        0.061      329.789       -3.252      870.461
12/27/2013  05:33:00       12.981       27.509       -4.825       15.622       19.501        5.705      244.031      380.274       32.553        0.080        0.033       30.418        4.105        0.018      329.782       -3.265      870.491
12/27/2013  05:34:00        6.774        5.281        2.596        6.044       12.911       12.543       36.535      166.700      157.318        0.022        0.018        8.589        7.124        0.688      329.787       -3.257      870.522
12/27/2013  05:35:00       23.854       36.221        7.831       11.797       10.948        9.101      139.181      119.864       82.833        0.114        0.017       43.370        8.430        0.038      329.757       -3.304      870.505
12/27/2013  05:36:00       30.247       39.762       -6.047        8.154        7.314        5.800       66.486       53.488       33.646        0.134        0.008       49.959        5.524        0.012      329.731       -3.345      870.469
12/27/2013  05:37:00       17.219       29.525       -6.267        8.536       20.144        7.145       72.861      405.768       51.058        0.087        0.026       34.180        7.166        0.044      329.672       -3.445      870.452
12/27/2013  05:38:00        7.268       -1.512       -0.890        8.531        9.036        9.046       72.779       81.647       81.837        0.015        0.012        7.423        5.980        0.649      329.707       -3.389      870.447
12/27/2013  05:39:00       17.777       16.893        2.255       12.123       12.451        8.349      146.962      155.029       69.712        0.049        0.019       24.524        2.530        0.011      329.718       -3.367      870.437
12/27/2013  05:40:00       38.265       30.069        5.573        9.737        7.557        7.754       94.815       57.110       60.120        0.131        0.011       48.666        6.207        0.016      329.747       -3.320      870.418
12/27/2013  05:41:00       14.124        8.901       -1.342       14.857        8.028        5.592      220.745       64.444       31.275        0.030        0.016       16.695        6.986        0.175      329.751       -3.314      870.448
12/27/2013  05:42:00      -21.927       -3.259       -1.950       12.156       11.629        6.939      147.767      135.227       48.144        0.041        0.017       22.167        1.319        0.004      329.677       -3.435      870.488
12/27/2013  05:43:00        2.401        3.133        8.323       10.867        6.628        7.038      118.090       43.928       49.529        0.015        0.011        3.948        6.465        2.682      329.544       -3.654      870.468
12/27/2013  05:44:00       14.632       24.391        5.141       10.277        7.317        6.438      105.616       53.544       41.449        0.052        0.010       28.443        4.664        0.027      329.764       -3.294      870.443
12/27/2013  05:45:00      -58.997       -3.388       -8.499       26.743       15.778       12.083      715.174      248.933      146.002        0.234        0.056       59.095       14.156        0.057      329.496       -3.731      870.471
12/27/2013  05:46:00      -87.534       -9.156       -6.627       14.917       14.539       10.807      222.532      211.372      116.801        0.417        0.028       88.012        6.975        0.006      329.424       -3.849      870.509
12/27/2013  05:47:00      -95.465       18.600      -11.957       13.348       13.299        8.691      178.162      176.859       75.539        0.502        0.022       97.260        3.445        0.001      329.340       -3.987      870.508
12/27/2013  05:48:00      -37.725        9.466       -9.576       20.045        8.443        8.944      401.819       71.279       80.002        0.108        0.028       38.894       10.700        0.076      329.469       -3.776      870.493
12/27/2013  05:49:00       -4.964       -7.594        2.837        4.813       12.034        5.336       23.162      144.809       28.477        0.014        0.010        9.073        1.580        0.030      329.628       -3.518      870.509
12/27/2013  05:50:00      -33.197      -21.135       -3.617       15.145        8.933       11.346      229.372       79.798      128.738        0.100        0.022       39.354        7.766        0.039      329.617       -3.533      870.554
12/27/2013  05:51:00      -22.149       -4.967       -6.191       16.803        7.850        8.989      282.352       61.630       80.793        0.049        0.021       22.699        7.461        0.108      329.468       -3.777      870.538
12/27/2013  05:52:00       -2.323        1.570        2.429        6.036        4.611        8.564       36.438       21.262       73.336        0.007        0.007        2.804        3.532        1.587      329.494       -3.736      870.499
12/27/2013  05:53:00      -14.423        4.102       -6.582       17.760       10.295        4.937      315.405      105.997       24.377        0.036        0.022       14.995        5.461        0.133      329.625       -3.521      870.503
12/27/2013  05:54:00      -69.932      -16.985       -7.936       12.466       10.020        9.144      155.408      100.398       83.619        0.279        0.017       71.966        2.978        0.002      329.486       -3.748      870.516
12/27/2013  05:55:00      -33.960      -10.419        3.124       11.585       11.083        7.962      134.201      122.825       63.396        0.080        0.016       35.523        4.547        0.016      329.437       -3.829      870.506
12/27/2013  05:56:00       -7.216        1.053        5.117        8.771        4.067        6.031       76.935       16.542       36.367        0.010        0.006        7.292        3.987        0.299      329.464       -3.784      870.500
12/27/2013  05:57:00        1.764        4.067        1.130        7.000       10.610        7.309       48.997      112.565       53.424        0.012        0.011        4.433        4.320        0.950      329.671       -3.444      870.498
12/27/2013  05:58:00       -3.013       -0.882        1.708       11.521        9.630        4.439      132.743       92.727       19.709        0.013        0.012        3.139        3.432        1.195      329.723       -3.360      870.506
12/27/2013  05:59:00      -25.822      -14.165       -5.125        9.565       11.519        5.265       91.488      132.685       27.719        0.057        0.013       29.452        3.925        0.018      329.506       -3.716      870.524
12/27/2013  06:00:00       24.043       13.574        2.013       29.040       11.026        6.518      843.336      121.562       42.490        0.089        0.050       27.610        7.960        0.083      329.618       -3.531      870.500
12/27/2013  06:01:00       34.819       14.081        5.526       29.302       18.492       13.717      858.596      341.969      188.168        0.141        0.069       37.559       15.309        0.166      329.700       -3.398      870.486
12/27/2013  06:02:00       -4.916      -24.571       -1.438       14.762       11.813        9.936      217.919      139.537       98.732        0.054        0.023       25.058        5.902        0.055      329.782       -3.265      870.524
12/27/2013  06:03:00      -12.278       -5.513        7.992       10.677        9.450        7.515      113.998       89.307       56.471        0.025        0.013       13.459        7.425        0.304      329.682       -3.426      870.507
12/27/2013  06:04:00       27.864       28.189       11.774       11.946        7.585       11.106      142.715       57.526      123.347        0.102        0.016       39.636        3.772        0.009      329.758       -3.302      870.440
12/27/2013  06:05:00        6.424        5.735       -2.989       17.925       10.911        3.257      321.323      119.055       10.606        0.027        0.023        8.612        5.356        0.387      329.761       -3.301      870.451
12/27/2013  06:06:00      -12.608      -23.428        6.554       20.976       11.569       13.327      439.993      133.844      177.601        0.075        0.038       26.605       12.183        0.210      329.552       -3.640      870.492
12/27/2013  06:07:00        0.180       -2.964       15.045        7.256       10.408        9.724       52.643      108.328       94.550        0.025        0.013        2.969        7.884        7.051      329.457       -3.795      870.466
12/27/2013  06:08:00      -21.909        2.967       -2.029       15.394        4.532        7.474      236.980       20.540       55.863        0.040        0.016       22.109        7.612        0.119      329.485       -3.749      870.445
12/27/2013  06:09:00      -42.887      -14.373       -9.461       11.785        8.154        5.365      138.880       66.485       28.785        0.118        0.012       45.231        3.077        0.005      329.436       -3.829      870.477
12/27/2013  06:10:00      -11.811       14.613        2.731       12.641        8.792       14.289      159.805       77.299      204.162        0.040        0.022       18.789       12.602        0.450      329.433       -3.835      870.462
12/27/2013  06:11:00       16.004       20.575        2.550        6.733        8.572        6.834       45.331       73.479       46.699        0.043        0.008       26.067        3.909        0.022      329.690       -3.412      870.448
12/27/2013  06:12:00       -8.364       -0.769        7.947       12.862        8.712        5.926      165.425       75.894       35.121        0.021        0.014        8.400        5.362        0.407      329.653       -3.474      870.494
12/27/2013  06:13:00       31.009       13.883       22.334       17.963       16.395       10.031      322.680      268.788      100.615        0.117        0.035       33.975        9.537        0.079      329.623       -3.525      870.489
12/27/2013  06:14:00       61.998       26.617       17.856       27.418       13.924       15.729      751.721      193.870      247.409        0.303        0.060       67.470       10.793        0.026      329.684       -3.424      870.465
12/27/2013  06:15:00      -22.169       -3.683        0.917       27.936       12.988       15.753      780.445      168.680      248.146        0.085        0.060       22.473       16.861        0.563      329.582       -3.590      870.517
12/27/2013  06:16:00      -37.311       13.495       -6.491       24.829       18.748       11.798      616.480      351.491      139.194        0.136        0.055       39.676        5.349        0.018      329.429       -3.841      870.540
12/27/2013  06:17:00      -24.251       13.874       -7.089        8.467       12.562        8.010       71.697      157.802       64.161        0.056        0.015       27.939        6.509        0.054      329.432       -3.837      870.522
12/27/2013  06:18:00      -36.356        2.143       -1.016        8.954        7.519        7.196       80.171       56.530       51.784        0.076        0.009       36.419        1.917        0.003      329.549       -3.643      870.525
12/27/2013  06:19:00      -23.801       10.183       -2.944        8.210        8.532        7.199       67.400       72.798       51.822        0.044        0.010       25.888        5.105        0.039      329.569       -3.613      870.535
12/27/2013  06:20:00       11.374       21.189        5.387       10.953       10.995        9.463      119.960      120.893       89.545        0.047        0.017       24.049        4.536        0.036      329.570       -3.611      870.521
12/27/2013  06:21:00      -12.545       10.084       -3.759       16.240       10.777        7.877      263.737      116.146       62.045        0.036        0.022       16.096        5.819        0.131      329.590       -3.578      870.572
12/27/2013  06:22:00      -88.351       -8.285      -13.674       13.925       11.825       10.262      193.902      139.832      105.304        0.425        0.022       88.739        4.586        0.003      329.323       -4.014      870.626
12/27/2013  06:23:00      -64.851       12.779       -7.191       16.018       14.615       10.894      256.588      213.611      118.684        0.250        0.029       66.098        7.480        0.013      329.269       -4.103      870.613
12/27/2013  06:24:00      -44.256       11.132       -4.277        7.572        8.331        4.348       57.331       69.411       18.902        0.112        0.007       45.635        2.535        0.003      329.401       -3.888      870.577
12/27/2013  06:25:00      -60.496      -15.748       -7.075       23.748       15.543        9.479      563.970      241.589       89.858        0.243        0.045       62.512        8.186        0.017      329.494       -3.736      870.596
12/27/2013  06:26:00     -105.319      -44.348       -8.353       19.630       32.590       15.522      385.336     1062.097      240.929        0.741        0.084      114.276       12.770        0.012      329.329       -4.005      870.603
12/27/2013  06:27:00      -86.334        5.961      -11.118       26.019       18.016       11.269      677.002      324.564      126.984        0.437        0.056       86.539        8.223        0.009      329.268       -4.104      870.562
12/27/2013  06:28:00      -27.512       -7.828       -3.342       17.095       14.883        8.065      292.239      221.489       65.038        0.070        0.029       28.604        7.169        0.063      329.355       -3.963      870.535
12/27/2013  06:29:00      -48.261      -36.550       -3.722       16.863       15.365       11.917      284.345      236.089      142.018        0.217        0.033       60.539        5.939        0.010      329.527       -3.681      870.534
12/27/2013  06:30:00      -62.844      -21.907       -5.870       16.631       13.987        7.872      276.588      195.648       61.969        0.250        0.027       66.553        7.709        0.013      329.448       -3.811      870.546
12/27/2013  06:31:00      -62.542      -18.915       -8.707       24.531       16.024       12.309      601.765      256.757      151.505        0.268        0.051       65.340        8.332        0.016      329.404       -3.883      870.577
12/27/2013  06:32:00      -59.613      -33.178       -3.372       17.833       21.065       14.695      318.026      443.736      215.940        0.282        0.049       68.224       12.835        0.035      329.429       -3.841      870.602
12/27/2013  06:33:00      -18.376        2.646        2.740       15.645       11.488        9.139      244.773      131.983       83.516        0.041        0.023       18.566        9.022        0.236      329.396       -3.896      870.587
12/27/2013  06:34:00      -16.403        4.765        2.338       15.911        7.394        9.893      253.170       54.673       97.866        0.035        0.020       17.081        8.611        0.254      329.417       -3.861      870.578
12/27/2013  06:35:00      -56.522        0.565       -7.342       14.244       13.392        8.378      202.899      179.358       70.188        0.185        0.023       56.524        7.112        0.016      329.542       -3.657      870.594
12/27/2013  06:36:00      -34.877      -13.860       -2.431       11.396        9.921        6.933      129.870       98.428       48.073        0.085        0.014       37.530        5.797        0.024      329.498       -3.727      870.595
12/27/2013  06:37:00      -10.447       -3.954        1.008       11.871        9.315        6.400      140.919       86.778       40.954        0.020        0.013       11.170        6.900        0.382      329.540       -3.657      870.587
12/27/2013  06:38:00      -11.312       -7.608       -4.183        7.527        6.873        4.075       56.657       47.243       16.608        0.016        0.006       13.632        2.476        0.033      329.516       -3.699      870.589
12/27/2013  06:39:00      -32.075      -18.707      -11.618       21.455        9.136        7.159      460.326       83.459       51.246        0.105        0.030       37.131        7.066        0.036      329.650       -3.481      870.605
12/27/2013  06:40:00      -82.666      -21.001      -13.430       14.413       13.379        9.283      207.729      179.001       86.170        0.396        0.024       85.291        5.185        0.004      329.406       -3.880      870.606
12/27/2013  06:41:00      -60.068      -21.036       -3.714       16.767       16.947       10.712      281.132      287.197      114.751        0.237        0.034       63.645        8.801        0.019      329.397       -3.893      870.587
12/27/2013  06:42:00      -37.036        3.334       -1.950        9.889        6.090        4.497       97.791       37.083       20.221        0.077        0.008       37.186        4.123        0.012      329.469       -3.772      870.569
12/27/2013  06:43:00      -42.093        9.030       -2.004        9.335       10.122        4.316       87.145      102.452       18.630        0.103        0.010       43.051        4.590        0.011      329.515       -3.700      870.562
12/27/2013  06:44:00      -55.113       16.759      -10.153        6.534        7.213        5.268       42.688       52.024       27.756        0.177        0.006       57.605        2.008        0.001      329.420       -3.855      870.548
12/27/2013  06:45:00      -53.161       16.449       -6.333       13.568       11.363        8.841      184.086      129.127       78.166        0.176        0.020       55.648        7.085        0.016      329.432       -3.838      870.534
12/27/2013  06:46:00      -83.372      -23.064       -8.483       21.020       22.172       12.242      441.853      491.586      149.860        0.432        0.054       86.503        8.445        0.010      329.315       -4.028      870.542
12/27/2013  06:47:00     -105.644       -8.727       -4.661       35.463       23.616       14.992     1257.604      557.699      224.770        0.665        0.102      106.004       15.427        0.021      329.263       -4.112      870.549
12/27/2013  06:48:00      -58.928       11.199       -7.317       17.934       15.493       13.537      321.640      240.040      183.254        0.220        0.037       59.983        8.097        0.018      329.253       -4.127      870.537
12/27/2013  06:49:00      -45.826        3.147       -6.833       10.018        9.495        7.156      100.360       90.148       51.212        0.120        0.012       45.934        7.506        0.027      329.483       -3.754      870.535
12/27/2013  06:50:00      -28.156       13.523       -2.907       13.811       11.390        8.944      190.735      129.733       79.990        0.069        0.020       31.236        6.673        0.046      329.684       -3.425      870.552
12/27/2013  06:51:00      -65.257      -34.780      -14.240       32.136       21.981       10.761     1032.726      483.160      115.809        0.365        0.082       73.946       10.344        0.020      329.486       -3.749      870.592
12/27/2013  06:52:00      -75.829      -52.717       -6.369       32.690       24.905       16.540     1068.652      620.276      273.570        0.527        0.098       92.353       12.273        0.018      329.384       -3.916      870.596
12/27/2013  06:53:00      -30.035       -1.834       -1.942       20.723       17.493       12.251      429.458      305.990      150.098        0.090        0.044       30.091       13.649        0.206      329.354       -3.964      870.565
12/27/2013  06:54:00      -80.522      -22.524       -8.231       18.741       22.828       12.961      351.211      521.107      167.980        0.405        0.052       83.613       12.435        0.022      329.479       -3.760      870.582
12/27/2013  06:55:00      -95.987      -65.217       -2.159       25.381       22.389       15.198      644.196      501.282      230.988        0.742        0.069      116.047       11.748        0.010      329.401       -3.887      870.631
12/27/2013  06:56:00      -47.958        3.748       -4.765       17.599       22.250        9.786      309.717      495.057       95.771        0.162        0.045       48.104        9.521        0.039      329.363       -3.950      870.610
12/27/2013  06:57:00      -36.196       14.617       -9.608       20.667       20.307       14.410      427.144      412.380      207.662        0.133        0.052       39.036       12.597        0.104      329.487       -3.747      870.560
12/27/2013  06:58:00      -17.513       10.872        0.430       14.146       11.321       10.708      200.098      128.173      114.651        0.043        0.022       20.613        7.802        0.143      329.538       -3.662      870.545
12/27/2013  06:59:00        5.057        3.998        2.977       12.025        7.492        9.503      144.599       56.130       90.309        0.017        0.015        6.446        7.755        1.447      329.765       -3.292      870.538
12/27/2013  07:00:00      -41.308      -15.463       -4.683       26.005       11.040       10.770      676.283      121.877      115.994        0.144        0.046       44.107       14.701        0.111      329.696       -3.405      870.556
12/27/2013  07:01:00      -51.726       -9.239      -10.359       26.237       14.146       11.643      688.382      200.111      135.548        0.195        0.051       52.545       11.371        0.047      329.404       -3.883      870.568
12/27/2013  07:02:00        3.704        4.130       -1.889       10.573        9.551        3.537      111.797       91.214       12.509        0.012        0.011        5.548        4.443        0.641      329.532       -3.674      870.535
12/27/2013  07:03:00      -38.714      -31.026       -3.138       35.372       16.660        8.788     1251.194      277.558       77.230        0.204        0.080       49.613       10.180        0.042      329.688       -3.419      870.521
12/27/2013  07:04:00      -88.582      -30.138       -4.414       18.642       18.949       13.266      347.527      359.051      175.989        0.483        0.044       93.568       11.473        0.015      329.442       -3.820      870.542
12/27/2013  07:05:00      -59.185       -9.658       -4.905       14.632       15.233       10.906      214.105      232.051      118.936        0.209        0.028       59.968        6.117        0.010      329.380       -3.922      870.544
12/27/2013  07:06:00      -22.993      -18.160       -8.103       11.787       13.654        7.083      138.944      186.442       50.170        0.065        0.019       29.300        5.468        0.035      329.455       -3.799      870.552
12/27/2013  07:07:00      -23.062        3.273       -1.997        8.696       15.541       12.758       75.623      241.532      162.759        0.051        0.024       23.293        7.883        0.115      329.511       -3.705      870.545
12/27/2013  07:08:00      -45.698       14.040       -2.728       16.892        6.934        8.444      285.335       48.081       71.302        0.135        0.020       47.806       11.018        0.053      329.485       -3.750      870.536
12/27/2013  07:09:00      -81.065      -27.545      -13.263       14.566       15.661        8.283      212.163      245.270       68.601        0.402        0.026       85.617        4.620        0.003      329.490       -3.742      870.559
12/27/2013  07:10:00      -15.743      -18.814       -2.767       26.915       20.295       15.583      724.402      411.903      242.843        0.099        0.069       24.532       17.860        0.530      329.441       -3.823      870.548
12/27/2013  07:11:00      -21.310       -3.177        1.416       22.100        8.748        9.903      488.394       76.535       98.070        0.056        0.033       21.546       13.741        0.407      329.523       -3.686      870.520
12/27/2013  07:12:00     -130.308      -56.738      -15.509       28.135       28.079        9.891      791.565      788.419       97.840        1.106        0.084      142.125        9.889        0.005      329.424       -3.851      870.553
12/27/2013  07:13:00      -74.196      -54.171        1.730       51.136       28.559       19.901     2614.877      815.641      396.052        0.613        0.191       91.867       22.735        0.061      329.407       -3.877      870.567
12/27/2013  07:14:00      -60.688       21.115       -5.656       28.269       18.734       11.878      799.118      350.974      141.098        0.273        0.065       64.256       12.672        0.039      329.370       -3.938      870.508
12/27/2013  07:15:00      -96.487       22.299      -11.817       19.396       20.229       13.172      376.223      409.222      173.491        0.545        0.048       99.030        5.790        0.003      329.538       -3.663      870.471
12/27/2013  07:16:00      -66.996       -1.065       -4.420       25.522       19.420       16.278      651.397      377.119      264.973        0.290        0.065       67.005       11.546        0.030      329.493       -3.736      870.471
12/27/2013  07:17:00      -17.749       -6.446        2.286       12.933        8.774        9.338      167.268       76.992       87.205        0.035        0.017       18.884        4.718        0.062      329.430       -3.841      870.470
12/27/2013  07:18:00      -32.682       -8.721        1.451       11.920       11.110        9.680      142.075      123.426       93.706        0.075        0.018       33.825        8.560        0.064      329.721       -3.364      870.473
12/27/2013  07:19:00      -21.550      -14.230       -6.401       12.646        9.300        7.342      159.919       86.487       53.898        0.050        0.015       25.825        3.536        0.019      329.765       -3.291      870.500
12/27/2013  07:20:00      -58.042      -26.123       -9.469       17.632       11.689        8.727      310.894      136.635       76.156        0.233        0.026       63.649        7.897        0.015      329.607       -3.550      870.524
12/27/2013  07:21:00      -67.325       -7.371       -5.450       25.996       14.349       11.834      675.803      205.908      140.051        0.282        0.051       67.727       13.725        0.041      329.520       -3.693      870.524
12/27/2013  07:22:00      -56.382      -24.637      -13.084       19.686       12.367       10.687      387.531      152.932      114.209        0.231        0.033       61.530        6.165        0.010      329.483       -3.752      870.527
12/27/2013  07:23:00      -39.071      -19.514       -8.978       11.165        7.845        7.420      124.660       61.538       55.054        0.111        0.012       43.673        3.803        0.008      329.590       -3.577      870.546
12/27/2013  07:24:00      -35.233        2.387       -3.306       16.876       13.314        9.071      284.814      177.258       82.277        0.090        0.027       35.314       10.301        0.085      329.554       -3.636      870.537
12/27/2013  07:25:00      -57.546        5.368      -12.456        9.423       10.662        6.539       88.787      113.689       42.759        0.187        0.012       57.796        5.962        0.011      329.554       -3.638      870.523
12/27/2013  07:26:00      -56.089        2.811       -4.389       11.831       13.092       11.556      139.981      171.412      133.535        0.181        0.022       56.160        5.668        0.010      329.615       -3.539      870.518
12/27/2013  07:27:00      -69.262       -0.080       -9.387        9.464       10.751       10.142       89.562      115.581      102.854        0.260        0.015       69.262        5.935        0.007      329.581       -3.593      870.519
12/27/2013  07:28:00      -64.701       -0.455      -13.042       15.417       14.641       14.838      237.683      214.362      220.153        0.251        0.034       64.702        6.272        0.009      329.571       -3.609      870.540
12/27/2013  07:29:00      -59.852      -12.550      -12.737       18.925       24.339       12.800      358.174      592.379      163.850        0.251        0.056       61.154        6.806        0.012      329.579       -3.596      870.577
12/27/2013  07:30:00      -41.090       -6.848       -4.680       17.626       21.055       13.058      310.683      443.317      170.499        0.134        0.046       41.657        8.410        0.041      329.470       -3.773      870.605
12/27/2013  07:31:00       -3.468      -19.961        5.569       10.153       10.995       12.453      103.078      120.898      155.081        0.041        0.019       20.260        6.374        0.099      329.506       -3.716      870.611
12/27/2013  07:32:00      -32.809       -9.509        0.272       26.615       21.513       16.306      708.335      462.808      265.894        0.130        0.072       34.159       10.134        0.088      329.482       -3.753      870.639
12/27/2013  07:33:00      -81.227      -11.162        2.927       52.982       45.433       25.905     2807.119     2064.177      671.062        0.614        0.277       81.991       27.361        0.111      329.348       -3.973      870.655
12/27/2013  07:34:00      -53.059        6.759        1.311       36.109       28.284       23.189     1303.870      799.976      537.744        0.275        0.132       53.488       23.754        0.197      329.298       -4.056      870.648
12/27/2013  07:35:00      -68.677        6.069       -6.591       48.474       27.555       24.024     2349.747      759.283      577.173        0.424        0.184       68.944       25.363        0.135      329.312       -4.032      870.622
12/27/2013  07:36:00     -109.797      -25.473       -9.872       44.568       40.464       26.681     1986.337     1637.311      711.886        0.857        0.217      112.713       26.694        0.056      329.281       -4.083      870.614
12/27/2013  07:37:00      -69.153      -18.009       -3.390       33.677       33.465       17.805     1134.109     1119.932      317.033        0.384        0.129       71.459       12.871        0.032      329.255       -4.126      870.630
12/27/2013  07:38:00     -119.290       17.531      -13.224       33.132       28.814       23.128     1097.721      830.224      534.901        0.859        0.123      120.571       15.673        0.017      329.259       -4.118      870.639
12/27/2013  07:39:00      -46.231        6.744        2.440       45.879       26.854       20.969     2104.908      721.112      439.687        0.273        0.163       46.720       22.394        0.230      329.250       -4.133      870.624
12/27/2013  07:40:00      -41.045       -9.259        3.139       39.574       26.832       22.793     1566.086      719.942      519.523        0.229        0.140       42.076       24.009        0.326      329.353       -3.966      870.618
12/27/2013  07:41:00      -28.993       -9.732        1.871       24.987       22.356       14.829      624.328      499.807      219.906        0.114        0.067       30.583        9.556        0.098      329.435       -3.831      870.613
12/27/2013  07:42:00       -2.746       -4.316        9.386       14.554       14.506       12.591      211.806      210.436      158.532        0.035        0.029        5.116       10.252        4.016      329.504       -3.720      870.591
12/27/2013  07:43:00      -13.008       -3.576        6.655       13.585        9.610        9.784      184.552       92.358       95.731        0.030        0.019       13.491        9.250        0.470      329.557       -3.632      870.566
12/27/2013  07:44:00      -40.364        7.470      -17.058       14.878       10.050        7.935      221.368      101.000       62.971        0.118        0.019       41.049        4.373        0.011      329.667       -3.453      870.571
12/27/2013  07:45:00      -70.345      -16.513      -10.531       11.219       13.509       11.900      125.867      182.485      141.617        0.289        0.022       72.257        5.692        0.006      329.534       -3.670      870.581
12/27/2013  07:46:00      -89.390      -18.758      -10.342       19.029       18.702       11.833      362.098      349.757      140.016        0.465        0.043       91.337       11.334        0.015      329.462       -3.787      870.562
12/27/2013  07:47:00      -95.407      -19.977      -10.458       32.236       20.639       16.870     1039.182      425.954      284.599        0.568        0.087       97.476       16.552        0.029      329.474       -3.768      870.555
12/27/2013  07:48:00      -83.369      -13.970       -7.368       15.186       20.001       12.136      230.608      400.030      147.293        0.399        0.039       84.532        6.112        0.005      329.474       -3.766      870.549
12/27/2013  07:49:00      -34.719       -8.516       -1.800       19.538       14.000        9.028      381.752      196.001       81.498        0.097        0.033       35.749        7.524        0.044      329.496       -3.731      870.525
12/27/2013  07:50:00      -30.103        5.012       -5.666       15.369       10.647       11.173      236.198      113.349      124.832        0.072        0.024       30.518        9.286        0.093      329.722       -3.362      870.510
12/27/2013  07:51:00      -19.778       -1.211        2.664       10.570       10.088        6.996      111.716      101.762       48.938        0.033        0.013       19.815        6.286        0.101      329.842       -3.166      870.504
12/27/2013  07:52:00       -4.071        0.401        1.977       11.166        9.336        9.184      124.671       87.152       84.353        0.016        0.015        4.090        7.465        3.331      330.001       -2.906      870.507
12/27/2013  07:53:00       17.662        9.470        3.711       12.103       14.055       13.558      146.475      197.531      183.807        0.047        0.026       20.041       11.007        0.302      329.996       -2.913      870.520
12/27/2013  07:54:00       38.145       27.144       17.483       22.080       11.979       18.448      487.515      143.486      340.323        0.173        0.049       46.817       16.633        0.126      329.772       -3.279      870.533
12/27/2013  07:55:00       28.461       11.386        1.892       10.279        9.720       10.758      105.654       94.487      115.730        0.063        0.016       30.654        4.991        0.027      329.721       -3.363      870.529
12/27/2013  07:56:00        6.430        3.105        2.227        7.221        7.368        7.955       52.144       54.292       63.275        0.011        0.008        7.140        6.462        0.819      329.859       -3.140      870.548
12/27/2013  07:57:00        2.362      -13.414        6.175        7.156       12.426        7.214       51.203      154.405       52.040        0.024        0.013       13.620        5.030        0.136      329.948       -2.992      870.587
12/27/2013  07:58:00        0.623       -9.703       15.999        6.351       13.235        8.159       40.330      175.176       66.571        0.032        0.014        9.723        4.713        0.235      330.004       -2.900      870.622
12/27/2013  07:59:00        0.236       14.611       28.261        9.035        8.822        5.383       81.633       77.826       28.977        0.060        0.009       14.613        4.461        0.093      329.880       -3.104      870.634
12/27/2013  08:00:00       24.846       12.619       18.470       21.847       15.792       14.529      477.286      249.388      211.085        0.103        0.047       27.867       11.488        0.170      329.805       -3.227      870.610
12/27/2013  08:01:00       13.410        8.171       15.806       12.221       14.693       12.279      149.361      215.887      150.778        0.051        0.026       15.703        8.971        0.326      329.820       -3.201      870.613
12/27/2013  08:02:00      -10.243      -15.382       -2.283       17.360        9.659        6.404      301.383       93.294       41.005        0.039        0.022       18.480        3.959        0.046      329.892       -3.082      870.635
12/27/2013  08:03:00      -17.622       -8.377        1.099       12.775        6.059        7.064      163.193       36.708       49.894        0.032        0.012       19.512        3.226        0.027      329.754       -3.311      870.616
12/27/2013  08:04:00        2.635        5.620       13.128        8.123        8.104        7.250       65.979       65.667       52.556        0.020        0.009        6.207        2.928        0.223      329.958       -2.977      870.587
12/27/2013  08:05:00        5.272       19.013        0.825        8.983       10.170        9.131       80.696      103.420       83.376        0.033        0.013       19.730        3.025        0.024      329.896       -3.078      870.553
12/27/2013  08:06:00       11.093       30.616       -1.626        9.362        8.233        5.684       87.650       67.790       32.305        0.063        0.009       32.564        2.764        0.007      329.899       -3.073      870.563
12/27/2013  08:07:00       16.336       13.004        4.597       10.773       11.351       13.006      116.049      128.850      169.146        0.044        0.021       20.880        9.350        0.201      329.962       -2.968      870.578
12/27/2013  08:08:00        8.090       19.337       -3.454        7.031       10.899        5.449       49.430      118.791       29.693        0.032        0.010       20.961        3.302        0.025      329.928       -3.025      870.582
12/27/2013  08:09:00       13.249        5.309        6.793       15.073       15.375       10.889      227.182      236.406      118.561        0.042        0.029       14.273        9.067        0.404      330.036       -2.848      870.609
12/27/2013  08:10:00      -14.111      -19.260        1.246       10.579       14.872        9.472      111.909      221.178       89.711        0.050        0.021       23.876        6.394        0.072      330.028       -2.861      870.623
12/27/2013  08:11:00      -35.206       10.796       -5.001       16.823        9.532        7.588      283.029       90.867       57.570        0.091        0.022       36.824        6.886        0.035      329.797       -3.239      870.613
12/27/2013  08:12:00      -14.301       18.579        2.015       19.565       15.246       11.801      382.772      232.454      139.267        0.065        0.038       23.445       14.574        0.386      329.893       -3.081      870.573
12/27/2013  08:13:00       10.920        4.943        7.450       11.971       14.497       10.385      143.315      210.163      107.855        0.033        0.023       11.986        8.433        0.495      330.032       -2.854      870.558
12/27/2013  08:14:00       23.236       22.852        5.269       13.762        7.950        7.768      189.391       63.209       60.334        0.070        0.016       32.590        7.743        0.056      330.057       -2.814      870.580
12/27/2013  08:15:00       -2.476      -26.596        1.531       11.824       21.178        8.800      139.799      448.495       77.446        0.069        0.033       26.711       11.628        0.190      330.216       -2.553      870.655
12/27/2013  08:16:00       -1.990       13.211       23.648        9.229       26.041       17.443       85.170      678.154      304.264        0.090        0.053       13.360       18.095        1.834      330.268       -2.467      870.673
12/27/2013  08:17:00       24.917       26.934       28.177       20.779       14.794       12.591      431.747      218.869      158.537        0.147        0.040       36.692       11.657        0.101      330.240       -2.516      870.633
12/27/2013  08:18:00       53.010       36.001        8.393       16.180       12.265       13.244      261.800      150.433      175.409        0.238        0.029       64.079        7.714        0.014      330.143       -2.673      870.597
12/27/2013  08:19:00       66.246       41.483       20.729       31.146       17.381       24.911      970.080      302.116      620.560        0.422        0.095       78.162       17.888        0.052      330.169       -2.630      870.568
12/27/2013  08:20:00       15.949        5.910       29.136       22.431       27.256       19.475      503.150      742.911      379.272        0.138        0.081       17.009       19.430        1.305      330.322       -2.379      870.622
12/27/2013  08:21:00        3.807       -3.991       12.595       10.123       17.574       14.709      102.467      308.850      216.364        0.041        0.031        5.515        8.435        2.339      330.389       -2.270      870.676
12/27/2013  08:22:00      -15.422       14.694       25.600        9.094       30.994       19.310       82.706      960.644      372.867        0.126        0.071       21.302       14.988        0.495      330.350       -2.333      870.660
12/27/2013  08:23:00      -27.045       32.334       -2.979       20.218       12.954       13.241      408.774      167.813      175.312        0.127        0.038       42.154       11.559        0.075      330.189       -2.598      870.636
12/27/2013  08:24:00      -44.805        3.359        2.226       17.718       22.030       13.436      313.932      485.341      180.524        0.150        0.049       44.930       11.688        0.068      330.185       -2.607      870.654
12/27/2013  08:25:00       15.287       27.358       24.703       27.435       12.118       13.591      752.701      146.848      184.718        0.134        0.054       31.339        8.085        0.067      330.257       -2.485      870.649
12/27/2013  08:26:00       12.732       35.176        8.667       28.866       16.714       17.219      833.260      279.352      296.501        0.144        0.070       37.410       13.739        0.135      330.204       -2.573      870.644
12/27/2013  08:27:00      -19.539       15.602       33.428       12.700       12.789       15.015      161.294      163.569      225.457        0.115        0.028       25.004       10.806        0.187      330.388       -2.271      870.676
12/27/2013  08:28:00       46.276       61.297       49.832       31.201       19.381       20.503      973.511      375.636      420.367        0.508        0.088       76.804       13.987        0.033      330.153       -2.658      870.698
12/27/2013  08:29:00       14.543       41.498       48.988       27.238       28.707       26.905      741.929      824.073      723.885        0.331        0.114       43.973       24.596        0.313      330.277       -2.452      870.720
12/27/2013  08:30:00       59.656       37.224       19.439       34.495       19.975       22.805     1189.934      399.004      520.082        0.372        0.105       70.317       20.189        0.082      330.215       -2.555      870.699
12/27/2013  08:31:00       65.666       32.368       16.349       25.337       23.334       21.136      641.941      544.478      446.716        0.363        0.082       73.210       14.780        0.041      330.222       -2.544      870.675
12/27/2013  08:32:00       35.651       34.633       32.602       26.788       22.833       24.030      717.603      521.351      577.447        0.267        0.091       49.703       11.740        0.056      330.278       -2.450      870.695
12/27/2013  08:33:00       32.180       43.854       30.625       39.633       25.050       23.466     1570.749      627.482      550.673        0.332        0.137       54.395       17.010        0.098      330.237       -2.517      870.677
12/27/2013  08:34:00       20.792       19.984        8.629       20.196       16.038       20.254      407.883      257.211      410.209        0.099        0.054       28.838       13.667        0.225      330.288       -2.436      870.693
12/27/2013  08:35:00       31.143       18.815       16.962       19.607       14.422       17.735      384.431      207.998      314.532        0.126        0.045       36.385       10.328        0.081      330.271       -2.462      870.714
12/27/2013  08:36:00       20.453       50.128        6.095       28.612       14.268       17.595      818.619      203.568      309.582        0.215        0.067       54.140       18.579        0.118      330.125       -2.703      870.664
12/27/2013  08:37:00      -42.473       26.345      -11.074       21.968       26.290        7.960      482.611      691.144       63.359        0.193        0.062       49.981       11.664        0.054      330.114       -2.719      870.624
12/27/2013  08:38:00      -28.108       13.962       -2.051       24.775       17.199        9.309      613.813      295.819       86.657        0.099        0.050       31.385        8.626        0.076      330.194       -2.589      870.618
12/27/2013  08:39:00        1.260       -2.482        0.812        8.512       12.123        9.438       72.446      146.979       89.076        0.016        0.015        2.783        7.347        6.969      330.448       -2.173      870.608
12/27/2013  08:40:00      -17.762      -14.419       -0.645       13.576       12.672        9.146      184.310      160.580       83.643        0.048        0.021       22.878        8.078        0.125      330.402       -2.248      870.650
12/27/2013  08:41:00      -36.470        4.839        1.643       15.352        6.696        8.624      235.686       44.841       74.381        0.086        0.018       36.789        6.705        0.033      330.357       -2.322      870.657
12/27/2013  08:42:00      -77.624        3.392        0.533       23.494       20.788       12.285      551.991      432.126      150.932        0.359        0.057       77.698       10.146        0.017      330.344       -2.343      870.644
12/27/2013  08:43:00      -74.672       16.466       -3.476       19.391       15.656        9.336      376.003      245.114       87.164        0.328        0.035       76.466        9.955        0.017      330.337       -2.355      870.631
12/27/2013  08:44:00      -17.684       11.939        5.545       20.241       13.422       10.378      409.704      180.159      107.700        0.059        0.035       21.337        9.777        0.210      330.475       -2.129      870.629
12/27/2013  08:45:00       23.589       19.704       12.415       18.315       17.105       15.454      335.442      292.577      238.824        0.098        0.043       30.736       16.921        0.303      330.539       -2.023      870.650
12/27/2013  08:46:00       39.343       25.690       -1.035       22.597       26.330       20.304      510.618      693.251      412.241        0.191        0.081       46.988       19.203        0.167      330.471       -2.137      870.661
12/27/2013  08:47:00       31.639       20.557       15.061       21.923       20.848       16.665      480.637      434.623      277.715        0.142        0.060       37.731        8.907        0.056      330.504       -2.081      870.702
12/27/2013  08:48:00       26.235       22.261       30.741       24.388       22.435       28.599      594.798      503.344      817.905        0.202        0.096       34.406       23.411        0.463      330.592       -1.937      870.731
12/27/2013  08:49:00       19.231       45.687       53.032       25.473       29.687       20.153      648.896      881.301      406.158        0.360        0.097       49.569       12.919        0.068      330.606       -1.915      870.740
12/27/2013  08:50:00        8.141       37.022       43.903       22.052       30.453       20.284      486.292      927.369      411.442        0.259        0.091       37.906       13.980        0.136      330.668       -1.812      870.735
12/27/2013  08:51:00       42.379       47.223       45.296       19.036       15.720       14.084      362.388      247.112      198.347        0.344        0.040       63.450        8.938        0.020      330.522       -2.052      870.732
12/27/2013  08:52:00       42.263       20.764       14.680       33.036       28.985       19.966     1091.357      840.123      398.625        0.238        0.117       47.088       15.061        0.102      330.617       -1.896      870.715
12/27/2013  08:53:00       18.239       20.247       10.003       16.752       22.966       12.138      280.623      527.424      147.333        0.090        0.048       27.251       14.410        0.280      330.661       -1.823      870.726
12/27/2013  08:54:00       29.973       40.221        5.079       19.176       20.472       18.439      367.706      419.104      339.985        0.183        0.056       50.161       10.238        0.042      330.629       -1.876      870.737
12/27/2013  08:55:00       36.006       37.153       35.153       19.541       13.777       21.661      381.865      189.792      469.204        0.248        0.052       51.737       12.250        0.056      330.588       -1.942      870.755
12/27/2013  08:56:00       32.580       25.606       -7.229       22.264       19.207       12.233      495.696      368.907      149.636        0.139        0.051       41.438       12.533        0.091      330.573       -1.969      870.727
12/27/2013  08:57:00       28.875       19.445        3.305       15.467       11.647       14.152      239.237      135.658      200.292        0.090        0.029       34.812       10.572        0.092      330.683       -1.788      870.704
12/27/2013  08:58:00       39.507       47.756        7.818       16.521       16.404       18.930      272.958      269.083      358.329        0.240        0.045       61.979       13.307        0.046      330.649       -1.843      870.718
12/27/2013  08:59:00       18.430       42.912       -5.224       17.836       21.819       15.531      318.121      476.072      241.216        0.162        0.052       46.702       13.974        0.090      330.773       -1.640      870.722
12/27/2013  09:00:00       38.714       42.277       -7.852       21.456       19.703       18.475      460.368      388.218      341.310        0.227        0.059       57.324        9.143        0.025      330.708       -1.746      870.705
12/27/2013  09:01:00       61.326       42.551        6.679       26.708       19.014       19.192      713.292      361.524      368.334        0.353        0.072       74.642        8.757        0.014      330.768       -1.647      870.698
12/27/2013  09:02:00       42.282       36.520        3.696       18.827       16.530       19.159      354.449      273.257      367.060        0.206        0.050       55.871       12.995        0.054      330.652       -1.837      870.714
12/27/2013  09:03:00       33.339       48.371       44.657       22.104       20.768       16.955      488.575      431.321      287.481        0.333        0.060       58.747       12.225        0.043      330.745       -1.684      870.735
12/27/2013  09:04:00       49.401       49.340       40.504       21.257       22.660       27.986      451.845      513.462      783.226        0.413        0.087       69.821       21.218        0.092      330.688       -1.779      870.709
12/27/2013  09:05:00       13.992       43.281        4.612       13.570       18.114       16.779      184.155      328.112      281.532        0.144        0.040       45.486       10.843        0.057      330.745       -1.687      870.687
12/27/2013  09:06:00       44.740       54.384       34.206       30.585       18.241       23.116      935.459      332.735      534.346        0.397        0.090       70.422       18.371        0.068      330.900       -1.430      870.713
12/27/2013  09:07:00       42.161       46.961       52.834       22.266       19.971       19.908      495.753      398.822      396.331        0.403        0.065       63.110       12.303        0.038      330.845       -1.520      870.727
12/27/2013  09:08:00       56.827       39.347       21.497       21.561       25.892       28.737      464.871      670.397      825.829        0.360        0.098       69.120       22.151        0.103      330.783       -1.622      870.732
12/27/2013  09:09:00       55.655       40.639       15.673       21.180       23.736       21.919      448.578      563.406      480.442        0.324        0.075       68.913       18.468        0.072      330.730       -1.710      870.716
12/27/2013  09:10:00       -3.042       17.714       10.660       19.186       22.067       21.168      368.097      486.942      448.078        0.087        0.065       17.973       12.099        0.453      331.003       -1.263      870.713
12/27/2013  09:11:00       37.686       51.022        9.608       30.589       31.194       18.705      935.664      973.085      349.874        0.319        0.113       63.431       14.151        0.050      330.934       -1.376      870.714
12/27/2013  09:12:00       45.273       50.787       26.058       27.516       26.500       20.179      757.127      702.254      407.202        0.359        0.093       68.036        8.338        0.015      331.017       -1.239      870.678
12/27/2013  09:13:00       29.324       64.310       41.924       41.730       26.668       23.834     1741.432      711.190      568.076        0.489        0.151       70.680       18.643        0.070      331.137       -1.042      870.658
12/27/2013  09:14:00       71.400       66.438       13.917       28.685       34.162       24.576      822.832     1167.067      603.983        0.615        0.130       97.530       14.785        0.023      330.956       -1.341      870.656
12/27/2013  09:15:00        9.548       40.257       29.965       31.745       28.233       33.680     1007.739      797.083     1134.312        0.277        0.147       41.374       18.626        0.203      331.085       -1.128      870.659
12/27/2013  09:16:00        5.037       36.525       55.171       19.869       19.617       13.914      394.782      384.844      193.596        0.269        0.049       36.871       11.197        0.092      331.192       -0.950      870.673
12/27/2013  09:17:00       49.017       45.059       36.593       40.370       42.806       27.867     1629.754     1832.312      776.573        0.500        0.212       66.581       25.289        0.144      330.874       -1.474      870.675
12/27/2013  09:18:00       66.440       56.048       33.440       28.120       16.635       22.329      790.736      276.736      498.579        0.512        0.078       86.923       13.303        0.023      330.766       -1.651      870.679
12/27/2013  09:19:00       64.824       82.438       69.585       41.892       29.631       28.565     1754.956      878.007      815.940        0.964        0.172      104.873       26.178        0.062      330.926       -1.388      870.669
12/27/2013  09:20:00       84.255       62.832       40.643       20.751       23.476       24.918      430.604      551.139      620.929        0.715        0.080      105.103       15.604        0.022      330.791       -1.610      870.654
12/27/2013  09:21:00       67.446       45.180       13.374       25.697       21.844       17.030      660.360      477.144      290.022        0.410        0.071       81.180        3.476        0.002      330.854       -1.507      870.631
12/27/2013  09:22:00       75.783       49.238       -5.473       16.791       32.258       15.593      281.939     1040.566      243.137        0.488        0.078       90.374        7.616        0.007      330.832       -1.544      870.598
12/27/2013  09:23:00       22.942       30.069        9.341       31.019       21.978       24.639      962.177      483.034      607.083        0.178        0.103       37.822       20.397        0.291      331.129       -1.055      870.607
12/27/2013  09:24:00       27.370       36.779       42.429       32.901       35.512       27.820     1082.464     1261.092      773.943        0.351        0.156       45.846       26.620        0.337      331.217       -0.911      870.644
12/27/2013  09:25:00       66.628       46.988       17.213       18.207       30.951       24.074      331.493      957.948      579.580        0.441        0.093       81.530       20.720        0.065      330.878       -1.466      870.665
12/27/2013  09:26:00       76.732       37.236        6.913       32.718       24.416       25.493     1070.450      596.140      649.915        0.482        0.116       85.290       17.955        0.044      331.048       -1.190      870.649
12/27/2013  09:27:00       72.940       62.997       19.888       32.001       21.913       21.189     1024.095      480.165      448.993        0.582        0.098       96.379        9.309        0.009      331.015       -1.243      870.648
12/27/2013  09:28:00       34.179       50.304       39.096       35.490       28.789       26.417     1259.541      828.833      697.837        0.401        0.139       60.817       20.556        0.114      331.190       -0.955      870.658
12/27/2013  09:29:00       46.204       52.718        8.411       34.236       33.238       32.842     1172.106     1104.749     1078.579        0.417        0.168       70.100       28.357        0.164      331.141       -1.034      870.655
12/27/2013  09:30:00       40.589       59.661       47.624       37.853       34.234       38.284     1432.854     1171.999     1465.636        0.577        0.204       72.159       27.791        0.148      331.177       -0.977      870.633
12/27/2013  09:31:00       50.489       78.316       67.105       36.307       22.592       20.118     1318.198      510.382      404.740        0.771        0.112       93.180       17.136        0.034      331.124       -1.063      870.644
12/27/2013  09:32:00       28.865       30.982       55.975       41.736       43.407       30.300     1741.890     1884.208      918.104        0.473        0.227       42.345       30.851        0.531      331.256       -0.848      870.672
12/27/2013  09:33:00       83.101       72.946       61.518       37.419       24.701       28.787     1400.188      610.144      828.707        0.942        0.142      110.576        8.080        0.005      331.139       -1.039      870.645
12/27/2013  09:34:00       80.711       65.361       23.297       40.244       27.253       34.098     1619.616      742.722     1162.678        0.743        0.176      103.857       16.415        0.025      331.262       -0.837      870.626
12/27/2013  09:35:00       67.729       62.052       47.144       48.432       30.734       33.916     2345.677      944.554     1150.288        0.755        0.222       91.857       31.473        0.117      331.304       -0.768      870.630
12/27/2013  09:36:00       52.271       63.121       22.665       45.998       24.825       32.743     2115.801      616.270     1072.118        0.552        0.190       81.954       30.489        0.138      331.241       -0.871      870.619
12/27/2013  09:37:00       45.923       43.460       39.268       38.308       29.394       20.317     1467.508      864.016      412.785        0.414        0.137       63.227       15.271        0.058      331.421       -0.576      870.601
12/27/2013  09:38:00       55.583       30.245       21.592       49.908       26.329       31.866     2490.810      693.240     1015.451        0.433        0.210       63.279       24.451        0.149      331.384       -0.635      870.587
12/27/2013  09:39:00       76.128       62.914       28.521       37.619       48.012       27.112     1415.173     2305.130      735.040        0.751        0.223       98.761       18.359        0.035      331.284       -0.800      870.607
12/27/2013  09:40:00       42.852       61.031       54.384       31.923       35.510       22.388     1019.085     1260.939      501.239        0.565        0.139       74.573       10.768        0.021      331.501       -0.444      870.613
12/27/2013  09:41:00       49.676       76.044       73.648       38.807       35.409       26.331     1506.002     1253.825      693.316        0.856        0.173       90.832       21.893        0.058      331.270       -0.824      870.603
12/27/2013  09:42:00       96.644       70.053       47.358       35.306       29.379       38.140     1246.514      863.121     1454.667        1.003        0.178      119.363       28.644        0.058      331.084       -1.128      870.600
12/27/2013  09:43:00       79.426       68.207       42.374       39.273       34.654       35.381     1542.399     1200.930     1251.840        0.838        0.200      104.693       22.186        0.045      331.276       -0.814      870.578
12/27/2013  09:44:00       98.625       73.929       36.812       45.673       36.184       31.605     2085.996     1309.267      998.866        1.047        0.220      123.257       25.558        0.043      331.267       -0.828      870.543
12/27/2013  09:45:00      104.405       49.435       35.040       32.802       29.866       32.734     1075.969      891.968     1071.501        0.881        0.152      115.517       19.055        0.027      331.169       -0.990      870.503
12/27/2013  09:46:00       71.647       48.367       37.060       38.888       31.233       30.411     1512.266      975.496      924.824        0.613        0.171       86.444       28.224        0.107      331.214       -0.915      870.496
12/27/2013  09:47:00      133.520       91.864       13.690       25.234       31.676       29.965      636.756     1003.398      897.885        1.450        0.127      162.070       18.115        0.012      331.098       -1.106      870.501
12/27/2013  09:48:00       83.010       80.545       29.103       37.317       25.013       31.721     1392.534      625.640     1006.240        0.862        0.151      115.664       20.186        0.030      331.167       -0.992      870.519
12/27/2013  09:49:00       78.242       57.069       11.339       41.539       24.371       31.878     1725.477      593.957     1016.178        0.642        0.167       96.843       20.653        0.045      331.162       -1.001      870.521
12/27/2013  09:50:00       93.423       61.773       -2.194       26.282       19.536       20.498      690.759      381.636      420.180        0.702        0.075      111.999       10.845        0.009      331.136       -1.044      870.510
12/27/2013  09:51:00       91.984       53.485        2.862       32.429       23.523       20.625     1051.627      553.333      425.388        0.668        0.102      106.403       15.994        0.023      331.174       -0.982      870.493
12/27/2013  09:52:00       70.680       38.840       -2.126       33.084       22.699       20.708     1094.571      515.259      428.803        0.427        0.102       80.649       16.236        0.041      331.155       -1.012      870.487
12/27/2013  09:53:00       82.482       44.138       -1.493       21.820       21.587       23.570      476.097      466.005      555.542        0.513        0.075       93.550       12.249        0.017      331.177       -0.977      870.485
12/27/2013  09:54:00       60.422       67.336        5.776       25.338       23.527       20.586      641.999      553.525      423.785        0.492        0.081       90.471       12.383        0.019      331.248       -0.859      870.469
12/27/2013  09:55:00       63.220       44.364        0.949       16.796       21.190       17.759      282.092      449.008      315.390        0.351        0.052       77.233       14.947        0.037      331.384       -0.636      870.461
12/27/2013  09:56:00       39.344       44.239       10.158       16.949       18.292       18.309      287.279      334.587      335.215        0.228        0.048       59.203        8.838        0.022      331.450       -0.527      870.473
12/27/2013  09:57:00       28.841       81.118       63.949       29.132       32.176       39.309      848.646     1035.266     1545.199        0.746        0.171       86.093       22.978        0.071      331.493       -0.455      870.475
12/27/2013  09:58:00       56.562      107.620       91.595       42.862       36.120       24.034     1837.157     1304.687      577.657        1.344        0.186      121.579       20.376        0.028      331.506       -0.435      870.471
12/27/2013  09:59:00       75.547       59.299       28.038       25.446       23.392       37.138      647.500      547.168     1379.220        0.629        0.129       96.040       25.503        0.071      331.327       -0.730      870.491
12/27/2013  10:00:00      101.562       69.942       39.686       36.220       24.895       34.927     1311.888      619.781     1219.906        0.997        0.158      123.315       19.552        0.025      331.395       -0.617      870.460
12/27/2013  10:01:00       78.709       76.470       60.515       54.237       46.355       42.524     2941.691     2148.803     1808.309        1.130        0.345      109.740       31.853        0.084      331.529       -0.398      870.396
12/27/2013  10:02:00       25.940       33.186       66.960       34.042       61.515       37.496     1158.837     3784.147     1405.950        0.630        0.317       42.121       45.202        1.152      331.587       -0.302      870.422
12/27/2013  10:03:00      124.891       88.780       44.220       23.210       14.676       21.742      538.711      215.382      472.732        1.333        0.061      153.231       13.643        0.008      331.271       -0.822      870.440
12/27/2013  10:04:00      120.694       68.855       19.984       30.882       31.170       28.365      953.709      971.545      804.601        1.122        0.136      138.953        9.807        0.005      331.430       -0.561      870.406
12/27/2013  10:05:00       71.246       39.081       11.017       39.683       47.700       21.625     1574.737     2275.302      467.658        0.552        0.216       81.261       19.199        0.056      331.509       -0.430      870.391
12/27/2013  10:06:00       52.316       -0.060       26.864       28.554       21.496       27.779      815.304      462.059      771.694        0.275        0.102       52.316       13.458        0.066      331.609       -0.265      870.423
12/27/2013  10:07:00       43.983       47.066        7.789       17.181       24.754       21.183      295.184      612.770      448.718        0.278        0.068       64.418       11.284        0.031      331.475       -0.487      870.377
12/27/2013  10:08:00       30.120       39.897        6.666       32.012       33.319       18.445     1024.749     1110.188      340.209        0.251        0.124       49.990       15.808        0.100      331.638       -0.217      870.321
12/27/2013  10:09:00       82.603       51.774        5.882       27.655       28.613       24.717      764.798      818.707      610.942        0.587        0.110       97.487       11.089        0.013      331.764       -0.010      870.350
12/27/2013  10:10:00       27.041       44.803       37.632       23.478       22.919       22.709      551.224      525.290      515.690        0.287        0.080       52.331       13.024        0.062      332.032        0.432      870.353
12/27/2013  10:11:00       40.848       48.652       39.838       31.422       27.044       27.729      987.346      731.391      768.914        0.405        0.124       63.526       15.941        0.063      331.862        0.151      870.364
12/27/2013  10:12:00       39.541       31.062       16.762       30.365       30.523       30.676      922.040      931.672      941.025        0.280        0.140       50.283       14.987        0.089      331.951        0.298      870.322
12/27/2013  10:13:00       76.471       57.127       28.304       37.107       38.176       27.294     1376.960     1457.402      744.935        0.675        0.179       95.453       24.576        0.066      331.806        0.059      870.265
12/27/2013  10:14:00       20.031       92.974       88.728       36.280       39.441       41.108     1316.215     1555.560     1689.853        1.074        0.228       95.107       29.950        0.099      331.863        0.153      870.220
12/27/2013  10:15:00       65.431       91.863       66.757       40.453       30.940       34.257     1636.454      957.293     1173.535        1.047        0.188      112.783       21.812        0.037      331.785        0.024      870.188
12/27/2013  10:16:00       18.264       33.268       57.013       36.711       55.533       39.261     1347.710     3083.911     1541.445        0.533        0.299       37.952       32.487        0.733      332.035        0.436      870.219
12/27/2013  10:17:00        8.212       29.244        6.969       22.432       16.996       12.308      503.198      288.861      151.484        0.096        0.047       30.376        4.726        0.024      331.779        0.016      870.265
12/27/2013  10:18:00        1.566       23.476       13.305       16.458       15.865       17.496      270.867      251.705      306.121        0.078        0.041       23.528       12.879        0.300      332.014        0.402      870.265
12/27/2013  10:19:00       31.569       54.841       28.231       33.689       32.905       37.143     1134.950     1082.768     1379.587        0.420        0.180       63.278       23.874        0.142      332.093        0.532      870.192
12/27/2013  10:20:00       44.581       65.648       39.383       56.415       37.899       36.160     3182.659     1436.370     1307.548        0.689        0.296       79.355       27.771        0.122      332.061        0.479      870.142
12/27/2013  10:21:00        8.807       23.425       46.296       34.180       28.990       26.638     1168.239      840.429      709.559        0.274        0.136       25.026       21.677        0.750      332.106        0.552      870.186
12/27/2013  10:22:00       30.572       46.514       40.475       34.272       23.914       19.511     1174.570      571.883      380.695        0.343        0.106       55.662       20.563        0.136      332.006        0.388      870.160
12/27/2013  10:23:00      103.924       74.890       -3.710       45.617       35.340       37.744     2080.940     1248.927     1424.636        1.059        0.238      128.097       25.105        0.038      331.946        0.290      870.064
12/27/2013  10:24:00       65.769       60.346        3.328       41.561       32.840       26.238     1727.301     1078.460      688.409        0.574        0.175       89.259       21.583        0.058      331.971        0.329      870.071
12/27/2013  10:25:00       34.358       50.583       -2.620       23.248       31.737       22.041      540.465     1007.251      485.794        0.289        0.102       61.148       19.122        0.098      332.064        0.484      870.130
12/27/2013  10:26:00       34.166       67.980       -1.507       33.964       28.103       25.920     1153.536      789.765      671.836        0.420        0.131       76.083       19.126        0.063      332.081        0.511      870.078
12/27/2013  10:27:00       61.304       41.121       14.026       30.124       24.601       30.778      907.469      605.210      947.271        0.405        0.123       73.818       25.271        0.117      332.047        0.455      870.019
12/27/2013  10:28:00        9.425       37.903       -8.322       18.782       18.152       17.077      352.780      329.496      291.611        0.128        0.049       39.058        9.628        0.061      331.989        0.361      870.020
12/27/2013  10:29:00       17.964       40.022       16.924       19.678       24.511       22.042      387.230      600.786      485.844        0.184        0.074       43.869       10.008        0.052      332.211        0.726      870.026
12/27/2013  10:30:00       58.359       60.986       28.209       50.916       42.127       44.790     2592.396     1774.675     2006.119        0.715        0.319       84.410       39.771        0.222      332.232        0.761      870.008
12/27/2013  10:31:00       75.036       37.555       10.451       55.584       36.057       35.007     3089.538     1300.115     1225.463        0.638        0.281       83.909       34.397        0.168      332.073        0.497      869.991
12/27/2013  10:32:00       40.762      -25.608       -0.364       20.072       18.659       18.654      402.887      348.157      347.955        0.171        0.055       48.138       16.208        0.113      331.958        0.308      870.026
12/27/2013  10:33:00       12.059        2.425       30.626       26.962       34.902       25.343      726.929     1218.121      642.293        0.184        0.129       12.301       27.147        4.871      332.337        0.935      870.007
12/27/2013  10:34:00       31.610       15.177       21.809       32.985       35.677       22.806     1088.024     1272.842      520.131        0.229        0.144       35.064       25.388        0.524      332.450        1.121      869.998
12/27/2013  10:35:00       33.959       37.289        4.486       26.346       26.311       19.116      694.103      692.282      365.432        0.216        0.088       50.435       11.955        0.056      332.409        1.053      869.994
12/27/2013  10:36:00       18.759       72.542       -3.701       31.408       39.383       40.366      986.454     1551.014     1629.413        0.490        0.208       74.928       32.033        0.183      332.269        0.822      869.935
12/27/2013  10:37:00       11.507       33.091        0.610       28.147       42.169       25.053      792.266     1778.203      627.646        0.221        0.160       35.034       23.452        0.448      332.389        1.019      869.926
12/27/2013  10:38:00       32.513       39.892        4.684       26.171       25.813       24.694      684.931      666.308      609.797        0.232        0.098       51.463       18.963        0.136      332.391        1.023      869.966
12/27/2013  10:39:00       35.294       74.460       -4.307       25.824       50.418       30.198      666.871     2541.971      911.890        0.546        0.206       82.401       29.577        0.129      332.365        0.981      869.931
12/27/2013  10:40:00       21.169       85.095      -12.232       26.687       39.628       26.229      712.185     1570.398      687.950        0.540        0.149       87.689       21.427        0.060      332.502        1.207      869.904
12/27/2013  10:41:00       25.588       62.170        8.092       26.680       31.712       30.809      711.816     1005.646      949.167        0.363        0.133       67.230       23.314        0.120      332.430        1.087      869.907
12/27/2013  10:42:00       37.709       47.796        2.395       31.759       29.724       28.834     1008.606      883.521      831.379        0.322        0.136       60.881       23.031        0.143      332.409        1.053      869.912
12/27/2013  10:43:00       45.072       50.195       61.394       45.726       46.022       28.154     2090.878     2118.055      792.631        0.666        0.250       67.461       32.263        0.229      332.664        1.473      869.886
12/27/2013  10:44:00       33.403       72.377       74.267       41.356       43.275       26.910     1710.288     1872.745      724.136        0.809        0.215       79.713       24.755        0.096      332.535        1.261      869.851
12/27/2013  10:45:00       72.792       39.350       23.442       43.876       32.791       27.456     1925.136     1075.231      753.844        0.557        0.188       82.747       19.426        0.055      332.552        1.287      869.842
12/27/2013  10:46:00       99.346       61.586       28.710       40.851       27.832       26.462     1668.829      774.629      700.220        0.881        0.157      116.887       20.844        0.032      332.334        0.929      869.837
12/27/2013  10:47:00       97.381       83.876       -0.320       27.741       17.224       23.772      769.570      296.654      565.087        0.907        0.082      128.524        9.459        0.005      332.291        0.859      869.823
12/27/2013  10:48:00      112.465       76.196       16.726       28.116       21.247       27.798      790.535      451.418      772.750        1.037        0.101      135.846        8.154        0.004      332.243        0.781      869.774
12/27/2013  10:49:00      108.680       81.256        8.630       40.217       24.529       32.942     1617.426      601.647     1085.152        1.090        0.165      135.698       18.511        0.019      332.332        0.925      869.736
12/27/2013  10:50:00       42.072       43.723       25.454       47.388       27.847       33.591     2245.639      775.483     1128.327        0.424        0.207       60.677       33.245        0.300      332.591        1.353      869.731
12/27/2013  10:51:00       35.261       47.769       29.772       31.417       35.484       34.742      987.008     1259.117     1206.993        0.393        0.173       59.374       19.713        0.110      332.687        1.513      869.705
12/27/2013  10:52:00       16.445       44.675       34.753       35.616       38.237       24.144     1268.530     1462.065      582.944        0.339        0.166       47.605       22.664        0.227      332.955        1.955      869.689
12/27/2013  10:53:00       -7.490        6.643       32.645       17.796       23.984       21.656      316.685      575.215      468.999        0.126        0.068       10.012       10.601        1.121      333.197        2.353      869.722
12/27/2013  10:54:00       26.833       35.563       33.066       31.349       26.740       22.413      982.776      715.044      502.353        0.264        0.110       44.551       12.890        0.084      332.869        1.812      869.714
12/27/2013  10:55:00       52.269       66.213       13.402       29.488       21.989       24.216      869.525      483.536      586.398        0.462        0.097       84.358       15.445        0.034      332.737        1.595      869.660
12/27/2013  10:56:00       45.494       61.740       -1.294       22.038       25.670       24.194      485.687      658.933      585.340        0.381        0.086       76.691       17.474        0.052      332.813        1.720      869.635
12/27/2013  10:57:00       60.518       38.707        2.755       23.127       18.472       23.374      534.854      341.213      546.360        0.330        0.071       71.838       11.940        0.028      332.710        1.551      869.649
12/27/2013  10:58:00       44.947       38.065        0.404       24.950       20.508       18.243      622.521      420.581      332.789        0.242        0.069       58.900       10.063        0.029      332.658        1.464      869.674
12/27/2013  10:59:00       28.792       45.353       21.460       17.043       15.240       26.909      290.473      232.265      724.117        0.230        0.062       53.720       15.744        0.086      332.772        1.652      869.673
12/27/2013  11:00:00       24.015       21.315        9.336       22.774       45.704       23.833      518.660     2088.839      568.014        0.215        0.159       32.110        9.596        0.089      332.996        2.022      869.635
12/27/2013  11:01:00        4.910      -28.016        6.981       16.937       29.813       16.713      286.877      888.822      279.339        0.116        0.073       28.443        7.789        0.075      333.169        2.308      869.626
12/27/2013  11:02:00       87.961       70.684        5.893       42.583       33.514       30.234     1813.338     1123.198      914.080        0.831        0.193      112.842       26.703        0.056      332.862        1.802      869.610
12/27/2013  11:03:00       99.697       76.931       14.009       26.649       26.967       32.448      710.149      727.204     1052.883        0.927        0.125      125.928       18.561        0.022      332.668        1.482      869.583
12/27/2013  11:04:00       59.520       45.810        7.501       26.948       23.379       25.404      726.204      546.556      645.339        0.381        0.096       75.108       16.573        0.049      332.685        1.507      869.591
12/27/2013  11:05:00       48.203       69.522        5.125       22.170       28.287       23.162      491.506      800.130      536.471        0.451        0.091       84.598       17.436        0.042      332.715        1.556      869.599
12/27/2013  11:06:00       36.421       72.861        4.963       45.630       35.642       29.353     2082.086     1270.373      861.576        0.544        0.211       81.457       24.151        0.088      332.911        1.882      869.561
12/27/2013  11:07:00       97.337       83.108        9.928       29.772       32.618       38.987      886.360     1063.928     1519.997        0.997        0.174      127.990       22.643        0.031      332.772        1.654      869.555
12/27/2013  11:08:00       97.319       91.458       -2.728       60.802       31.743       22.899     3696.859     1007.644      524.355        1.154        0.261      133.550       19.149        0.021      332.851        1.783      869.506
12/27/2013  11:09:00       70.542       52.470        2.432       30.643       23.507       25.523      938.965      552.585      651.407        0.494        0.107       87.916       13.201        0.023      332.887        1.841      869.495
12/27/2013  11:10:00       33.960       25.594        4.898       25.104       27.650       18.090      630.202      764.517      327.258        0.178        0.086       42.525       13.828        0.106      332.953        1.953      869.494
12/27/2013  11:11:00       37.035       -2.173        5.814       18.659       19.783       17.722      348.143      391.376      314.074        0.123        0.053       37.099       10.742        0.084      332.885        1.839      869.482
12/27/2013  11:12:00       44.571        7.840       34.757       29.683       29.134       21.870      881.080      848.807      478.293        0.273        0.110       45.255       19.521        0.186      333.097        2.190      869.474
12/27/2013  11:13:00       72.676       80.078       70.132       53.042       42.712       35.792     2813.411     1824.305     1281.066        1.126        0.296      108.140       23.424        0.047      333.087        2.170      869.450
12/27/2013  11:14:00      125.061       76.731       60.044       51.927       52.078       52.203     2696.449     2712.155     2725.159        1.663        0.407      146.724       42.798        0.085      332.954        1.953      869.376
12/27/2013  11:15:00       62.553       31.455       19.924       42.506       46.033       31.123     1806.794     2119.012      968.620        0.510        0.245       70.017       29.593        0.179      333.062        2.131      869.317
12/27/2013  11:16:00       30.345       19.796       29.494       26.021       31.406       17.280      677.106      986.342      298.607        0.207        0.098       36.232        7.887        0.047      333.301        2.526      869.392
12/27/2013  11:17:00       60.018       51.431       36.748       33.489       32.404       35.955     1121.480     1050.006     1292.728        0.553        0.173       79.040       17.760        0.050      333.208        2.371      869.365
12/27/2013  11:18:00        8.508       78.565      -14.950       36.324       34.519       18.632     1319.420     1191.544      347.161        0.466        0.143       79.025       11.219        0.020      333.126        2.237      869.329
12/27/2013  11:19:00        7.960       68.891        7.778       23.472       36.789       26.281      550.934     1353.463      690.673        0.373        0.130       69.349       26.875        0.150      333.112        2.215      869.361
12/27/2013  11:20:00      162.011       91.203        1.236       59.399       31.828       33.124     3528.277     1013.030     1097.208        2.010        0.282      185.918       16.087        0.007      332.887        1.839      869.277
12/27/2013  11:21:00       95.747       86.056       52.857       82.221       40.647       48.136     6760.291     1652.187     2317.028        1.505        0.536      128.737       33.253        0.067      333.075        2.152      869.226
12/27/2013  11:22:00      -39.938        5.333       -6.362       27.311       28.167       20.570      745.903      793.404      423.120        0.181        0.098       40.292       14.005        0.121      333.189        2.341      869.339
12/27/2013  11:23:00       -9.481       26.674       17.168       45.865       20.473       21.548     2103.580      419.142      464.297        0.204        0.149       28.309       21.436        0.573      333.305        2.533      869.328
12/27/2013  11:24:00      169.727       91.456        0.685       41.681       45.876       33.477     1737.275     2104.651     1120.690        2.107        0.248      192.799       23.115        0.014      332.984        2.000      869.188
12/27/2013  11:25:00      114.062       91.073       36.452       67.949       49.573       42.593     4617.055     2457.506     1814.139        1.576        0.444      145.960       29.537        0.041      333.154        2.284      869.111
12/27/2013  11:26:00      -18.355      -14.548       16.516       30.445       27.504       31.705      926.921      756.447     1005.178        0.175        0.134       23.421       28.527        1.484      333.398        2.685      869.226
12/27/2013  11:27:00       21.729       29.039       34.307       16.867       42.451       31.250      284.493     1802.066      976.586        0.278        0.153       36.269       31.683        0.763      333.520        2.889      869.258
12/27/2013  11:28:00       79.071       93.475       57.912       49.887       53.559       49.001     2488.669     2868.586     2401.133        1.305        0.388      122.432       38.854        0.101      333.268        2.471      869.075
12/27/2013  11:29:00       10.559       24.050       59.950       22.937       49.884       28.704      526.105     2488.394      823.928        0.406        0.192       26.266       28.411        1.170      333.521        2.891      869.059
12/27/2013  11:30:00      -24.522      -10.058        1.407       25.025       23.810       24.697      626.266      566.894      609.931        0.125        0.090       26.505       19.199        0.525      333.339        2.589      869.137
12/27/2013  11:31:00      108.543       85.266       48.562       64.941       36.997       27.130     4217.324     1368.769      736.044        1.387        0.316      138.028       26.021        0.036      333.110        2.210      869.056
12/27/2013  11:32:00       83.959       58.523       37.474       73.986       52.209       39.323     5473.938     2725.825     1546.261        1.081        0.487      102.343       42.699        0.174      333.248        2.440      868.914
12/27/2013  11:33:00       21.415        8.734       32.278       35.555       76.911       38.331     1264.150     5915.331     1469.253        0.511        0.432       23.128       44.473        3.698      333.287        2.503      868.960
12/27/2013  11:34:00       48.342      -48.751       15.391       34.311       48.401       36.315     1177.258     2342.619     1318.762        0.489        0.242       68.656       37.637        0.301      333.284        2.497      869.016
12/27/2013  11:35:00       29.789       98.863      117.380       56.380       75.553       49.360     3178.684     5708.198     2436.408        1.788        0.566      103.254       53.353        0.267      333.443        2.761      868.913
12/27/2013  11:36:00       89.768      121.364       74.415       58.506       56.531       51.490     3422.966     3195.772     2651.268        1.880        0.464      150.955       48.899        0.105      333.110        2.209      868.875
12/27/2013  11:37:00       15.191       30.940       16.683       24.748       19.832       15.772      612.453      393.294      248.753        0.136        0.063       34.468       11.813        0.117      333.149        2.276      868.952
12/27/2013  11:38:00       80.631       60.049       20.588       52.616       23.932       22.366     2768.468      572.728      500.230        0.719        0.192      100.535       29.154        0.084      333.110        2.210      868.951
12/27/2013  11:39:00      132.277       82.388       19.861       48.969       37.624       31.002     2398.001     1415.559      961.118        1.473        0.239      155.836       19.379        0.015      333.089        2.174      868.837
12/27/2013  11:40:00       22.557      -77.031      -14.884       38.392       54.401       33.342     1473.928     2959.447     1111.664        0.610        0.277       80.266       23.647        0.087      333.370        2.640      868.852
12/27/2013  11:41:00       65.564       21.829       31.328       44.910       27.341       27.456     2016.899      747.516      753.810        0.464        0.176       69.102       18.768        0.074      333.439        2.753      868.869
12/27/2013  11:42:00       71.307       27.620       24.800       44.166       28.311       24.894     1950.634      801.505      619.717        0.492        0.169       76.470       17.956        0.055      333.269        2.471      868.823
12/27/2013  11:43:00        6.792      -10.591       22.747       26.196       29.820       26.494      686.218      889.234      701.949        0.148        0.114       12.581       23.406        3.461      333.483        2.828      868.810
12/27/2013  11:44:00       39.621       44.017       33.577       16.609       16.034       21.458      275.871      257.087      460.449        0.281        0.050       59.223       13.589        0.053      333.174        2.316      868.820
12/27/2013  11:45:00       36.291       43.651        2.099       12.957       21.946       13.144      167.888      481.611      172.759        0.202        0.041       56.767        5.532        0.009      333.160        2.294      868.818
12/27/2013  11:46:00      100.780       81.319        7.220       29.316       24.733       24.406      859.451      611.726      595.654        0.944        0.103      129.497       15.600        0.015      333.225        2.401      868.754
12/27/2013  11:47:00       47.485       68.226       71.385       61.075       49.014       29.465     3730.195     2402.359      868.175        0.950        0.350       83.124       23.483        0.080      333.564        2.960      868.669
12/27/2013  11:48:00        9.327       31.217       31.911       27.969       51.624       30.368      782.249     2665.059      922.198        0.322        0.218       32.580       18.888        0.336      333.503        2.861      868.698
12/27/2013  11:49:00       93.521       67.375        3.990       28.151       17.420       18.018      792.471      303.469      324.643        0.736        0.071      115.263       18.121        0.025      333.143        2.266      868.663
12/27/2013  11:50:00       51.413       56.732       32.011       51.688       35.242       49.064     2671.613     1241.977     2407.247        0.660        0.316       76.562       42.182        0.304      333.306        2.535      868.646
12/27/2013  11:51:00       33.883       60.065       34.094       27.730       24.183       26.251      768.941      584.833      689.132        0.398        0.102       68.963       18.900        0.075      333.326        2.567      868.661
12/27/2013  11:52:00       18.678       46.883       24.273       22.286       21.517       34.320      496.675      462.966     1177.856        0.264        0.107       50.467        6.530        0.017      333.473        2.810      868.644
12/27/2013  11:53:00       35.411       49.290        4.162       32.284       18.812       21.468     1042.253      353.885      460.882        0.278        0.093       60.692       13.566        0.050      333.521        2.890      868.655
12/27/2013  11:54:00       22.104        9.065       35.605       42.286       75.671       44.289     1788.147     5726.166     1961.531        0.566        0.474       23.890       38.897        2.651      333.602        3.024      868.644
12/27/2013  11:55:00       44.700      -93.379      -19.892       43.629       57.465       25.500     1903.467     3302.201      650.244        0.848        0.293      103.526       28.299        0.075      333.566        2.964      868.689
12/27/2013  11:56:00       49.564       57.975       44.260       73.397       42.400       32.462     5387.115     1797.770     1053.784        0.801        0.412       76.274       30.633        0.161      333.596        3.014      868.643
12/27/2013  11:57:00      136.471       91.220       41.406       48.453       27.585       39.401     2347.712      760.938     1552.443        1.666        0.233      164.151       34.654        0.045      333.322        2.561      868.538
12/27/2013  11:58:00       25.199       77.945       85.029       50.036       44.368       41.362     2503.636     1968.550     1710.789        1.006        0.309       81.917       38.798        0.224      333.510        2.872      868.520
12/27/2013  11:59:00       39.333       48.314       78.507       36.477       41.120       23.140     1330.568     1690.835      535.475        0.680        0.178       62.301       25.239        0.164      333.482        2.826      868.548
12/27/2013  12:00:00       15.291       33.709       13.676       20.340       21.890       22.096      413.733      479.152      488.214        0.147        0.069       37.015       11.172        0.091      333.383        2.661      868.575
12/27/2013  12:01:00       35.183       40.688       -1.658       22.632       29.817       27.163      512.205      889.040      737.837        0.252        0.107       53.790       16.207        0.091      333.466        2.798      868.585
12/27/2013  12:02:00       87.599       74.046        7.347       42.566       23.912       23.881     1811.892      571.777      570.318        0.808        0.148      114.702       13.228        0.013      333.522        2.891      868.531
12/27/2013  12:03:00       23.308       48.315       62.811       35.742       36.308       26.383     1277.521     1318.283      696.071        0.506        0.165       53.644       12.066        0.051      333.709        3.202      868.491
12/27/2013  12:04:00       57.517       74.283       64.159       48.747       39.545       31.159     2376.271     1563.769      970.856        0.893        0.246       93.948       24.631        0.069      333.471        2.807      868.492
12/27/2013  12:05:00       37.776       88.714       79.372       53.273       39.718       36.950     2838.050     1577.531     1365.315        1.069        0.289       96.422       30.326        0.099      333.606        3.030      868.457
12/27/2013  12:06:00       74.637       55.956       56.601       41.750       24.892       31.860     1743.036      619.630     1015.071        0.764        0.169       93.283       20.717        0.049      333.509        2.870      868.459
12/27/2013  12:07:00       64.526       71.111       58.210       42.420       42.051       32.502     1799.415     1768.317     1056.370        0.862        0.231       96.023       31.590        0.108      333.572        2.976      868.459
12/27/2013  12:08:00       90.034       46.483       52.404       33.332       41.394       35.688     1111.015     1713.453     1273.655        0.855        0.205      101.325       31.472        0.096      333.557        2.948      868.442
12/27/2013  12:09:00       78.889       71.998       16.945       24.147       23.819       27.072      583.081      567.324      732.878        0.679        0.094      106.804       13.676        0.016      333.510        2.873      868.394
12/27/2013  12:10:00       62.378       65.696       40.740       36.590       42.064       43.047     1338.799     1769.397     1853.025        0.741        0.248       90.592       18.924        0.044      333.773        3.307      868.341
12/27/2013  12:11:00       22.082       -9.640       31.727       35.954       68.989       37.936     1292.673     4759.518     1439.108        0.454        0.375       24.094       44.793        3.456      333.785        3.327      868.366
12/27/2013  12:12:00       10.830      -38.330        3.593       27.940       33.718       19.135      780.659     1136.883      366.130        0.194        0.114       39.831       10.593        0.071      333.836        3.412      868.437
12/27/2013  12:13:00       26.213       43.469       43.847       24.134       28.936       12.417      582.438      837.289      154.190        0.304        0.079       50.761        8.848        0.030      333.816        3.379      868.430
12/27/2013  12:14:00      110.031       81.789       19.267       41.330       30.961       34.691     1708.168      958.568     1203.445        1.152        0.194      137.099        5.499        0.002      333.638        3.084      868.344
12/27/2013  12:15:00       39.730       61.442       45.754       40.099       44.635       36.674     1607.959     1992.281     1344.955        0.620        0.247       73.168       30.425        0.173      333.634        3.078      868.332
12/27/2013  12:16:00        0.973      -24.564       10.577       32.515       42.722       24.330     1057.223     1825.188      591.956        0.209        0.174       24.583       24.792        1.017      333.917        3.547      868.406
12/27/2013  12:17:00       84.096       94.658       70.445       64.761       44.661       38.444     4193.978     1994.563     1477.935        1.433        0.383      126.618       34.808        0.076      333.801        3.353      868.357
12/27/2013  12:18:00       66.872       66.666       48.546       68.733       51.559       39.910     4724.200     2658.330     1592.784        1.012        0.449       94.426       19.669        0.043      333.763        3.291      868.249
12/27/2013  12:19:00      -14.190      -16.846       29.479       38.120       28.992       18.116     1453.165      840.549      328.200        0.199        0.131       22.026       17.942        0.664      333.856        3.445      868.288
12/27/2013  12:20:00       53.466       75.976       -8.048       25.301       34.824       21.274      640.138     1212.682      452.579        0.550        0.115       92.903       19.810        0.045      333.665        3.129      868.261
12/27/2013  12:21:00       31.489       50.000       -6.556       44.711       40.584       28.123     1999.079     1647.040      790.885        0.399        0.222       59.090       22.663        0.147      333.713        3.207      868.188
12/27/2013  12:22:00      -29.823       49.922       -9.305       16.605       20.498       12.516      275.734      420.152      156.656        0.216        0.043       58.152        7.266        0.016      333.614        3.045      868.241
12/27/2013  12:23:00      -35.981       12.237       -7.068       11.066       14.402        9.040      122.450      207.416       81.721        0.095        0.021       38.005        6.585        0.030      333.683        3.159      868.311
12/27/2013  12:24:00      -13.245       10.939       31.090       20.829       16.868       22.257      433.859      284.531      495.396        0.124        0.061       17.178       17.510        1.039      334.015        3.709      868.311
12/27/2013  12:25:00       45.307       56.340       46.861       32.635       24.641       21.330     1065.028      607.172      454.971        0.477        0.106       72.298       19.428        0.072      333.718        3.216      868.260
12/27/2013  12:26:00       29.182      -29.451       17.137       36.189       51.398       34.933     1309.675     2641.788     1220.300        0.359        0.259       41.460       35.200        0.721      333.894        3.509      868.238
12/27/2013  12:27:00       26.954      -13.720       32.564       29.006       41.279       29.803      841.337     1703.924      888.209        0.270        0.172       30.245       26.159        0.748      334.032        3.737      868.235
12/27/2013  12:28:00       64.667       44.621       47.499       49.004       31.549       31.699     2401.373      995.357     1004.801        0.641        0.220       78.568       30.226        0.148      333.882        3.488      868.191
12/27/2013  12:29:00       70.798       51.841       13.476       30.390       21.424       24.243      923.547      458.997      587.706        0.493        0.099       87.749       11.204        0.016      333.737        3.248      868.143
12/27/2013  12:30:00        9.225       25.589       14.607       15.600       22.425       28.318      243.359      502.867      801.900        0.125        0.077       27.201       14.311        0.277      333.950        3.602      868.166
12/27/2013  12:31:00        5.942       11.004        2.476       19.510       20.181       19.399      380.632      407.264      376.311        0.066        0.058       12.506       14.497        1.344      333.923        3.558      868.232
12/27/2013  12:32:00       61.134       39.922       28.172       28.316       47.515       23.943      801.775     2257.684      573.272        0.488        0.182       73.015       22.085        0.091      333.964        3.625      868.214
12/27/2013  12:33:00       40.824       71.019       35.744       39.477       40.371       36.414     1558.452     1629.817     1326.011        0.625        0.226       81.917       23.097        0.080      334.175        3.975      868.132
12/27/2013  12:34:00       18.116       20.190       27.144       25.974       25.380       27.665      674.663      644.168      765.362        0.178        0.104       27.126       17.709        0.426      334.246        4.092      868.127
12/27/2013  12:35:00       53.821       56.148        1.450       27.061       33.129       27.948      732.310     1097.543      781.063        0.433        0.131       77.777       15.284        0.039      333.814        3.376      868.147
12/27/2013  12:36:00       91.663       66.261        3.227       29.882       19.882       22.615      892.929      395.283      511.440        0.730        0.090      113.105        9.902        0.008      333.795        3.345      868.139
12/27/2013  12:37:00      -12.939       67.821      -17.037       36.597       26.274       14.080     1339.336      690.345      198.256        0.364        0.111       69.044       15.719        0.052      333.760        3.287      868.157
12/27/2013  12:38:00      -30.173       50.486      -24.053       29.521       23.579       11.191      871.468      555.979      125.232        0.279        0.078       58.815       12.534        0.045      333.712        3.208      868.158
12/27/2013  12:39:00       69.897       13.232       17.442       23.379       28.353       25.745      546.578      803.875      662.813        0.369        0.101       71.138       15.290        0.046      333.839        3.418      868.111
12/27/2013  12:40:00       32.721       41.455       14.630       36.348       23.795       25.596     1321.156      566.191      655.179        0.277        0.127       52.812       20.944        0.157      333.920        3.552      868.080
12/27/2013  12:41:00      -28.713       18.829        6.149       30.435       20.258       18.335      926.306      410.378      336.156        0.144        0.084       34.336       12.035        0.123      334.006        3.694      868.102
12/27/2013  12:42:00       -9.615       10.188       10.595       31.365       32.286       15.832      983.735     1042.359      250.643        0.129        0.114       14.009       18.813        1.803      334.125        3.893      868.112
12/27/2013  12:43:00       15.171       12.836       28.346       22.391       20.096        8.488      501.352      403.852       72.042        0.109        0.049       19.872       10.170        0.262      334.278        4.145      868.081
12/27/2013  12:44:00       11.810       23.389        9.695       46.053       30.917       21.083     2120.850      955.885      444.498        0.215        0.176       26.202       17.794        0.461      334.000        3.685      868.058
12/27/2013  12:45:00       59.189       65.742       28.865       57.173       33.412       49.401     3268.739     1116.382     2440.462        0.774        0.341       88.461       46.703        0.279      333.986        3.659      868.023
12/27/2013  12:46:00       26.454       57.955       34.759       48.006       42.973       46.618     2304.599     1846.685     2173.198        0.579        0.316       63.707       39.607        0.387      334.116        3.876      867.982
12/27/2013  12:47:00       12.043       62.248       -5.320       33.468       42.754       16.908     1120.132     1827.931      285.895        0.364        0.162       63.402       18.874        0.089      333.954        3.609      867.977
12/27/2013  12:48:00       28.811       60.678       -0.355       26.863       32.341       25.186      721.597     1045.927      634.351        0.346        0.120       67.171       21.848        0.106      333.971        3.636      867.960
12/27/2013  12:49:00       35.757       44.011        2.022       42.008       27.624       21.661     1764.670      763.097      469.179        0.311        0.150       56.706       14.736        0.068      334.013        3.707      867.952
12/27/2013  12:50:00       50.446       51.052       20.487       41.391       23.861       36.956     1713.245      569.336     1365.718        0.461        0.182       71.771       32.561        0.206      334.060        3.784      867.976
12/27/2013  12:51:00       49.351       36.525       22.238       33.414       34.505       30.053     1116.522     1190.623      903.198        0.374        0.161       61.397       26.483        0.186      334.113        3.871      868.007
12/27/2013  12:52:00       58.841       64.781        3.664       26.673       18.549       23.005      711.473      344.079      529.232        0.463        0.079       87.515       13.093        0.022      333.984        3.658      867.997
12/27/2013  12:53:00      124.186       62.266        8.863       39.304       21.198       27.492     1544.821      449.352      755.804        1.106        0.137      138.922       16.854        0.015      334.000        3.684      867.927
12/27/2013  12:54:00      106.014       68.759        7.059       49.475       34.393       29.063     2447.815     1182.874      844.650        1.025        0.224      126.360        7.662        0.004      334.026        3.726      867.849
12/27/2013  12:55:00       24.036       39.197        0.259       38.100       30.574       24.167     1451.596      934.781      584.057        0.254        0.149       45.979       22.211        0.233      334.010        3.700      867.861
12/27/2013  12:56:00       12.635       -9.791      -12.446        9.050       32.823        8.936       81.907     1077.347       79.844        0.082        0.062       15.985       13.993        0.766      333.873        3.477      867.905
12/27/2013  12:57:00       24.654       22.828       12.040       16.633       16.384       16.008      276.672      268.445      256.250        0.104        0.040       33.600        7.680        0.052      334.017        3.712      867.897
12/27/2013  12:58:00        2.039       30.085       15.952       33.432       18.792       19.709     1117.708      353.144      388.445        0.151        0.093       30.154       19.385        0.413      334.112        3.870      867.854
12/27/2013  12:59:00       -2.043       10.890       14.821       11.085       10.348       10.123      122.888      107.078      102.474        0.034        0.017       11.079        5.281        0.227      334.403        4.354      867.818
12/27/2013  13:00:00       46.072       59.733       26.367       24.366       30.866       39.422      593.705      952.732     1554.086        0.474        0.155       75.437       19.632        0.068      334.087        3.829      867.791
12/27/2013  13:01:00       21.478       40.983       51.851       42.516       36.931       32.702     1807.651     1363.907     1069.403        0.453        0.212       46.270       29.777        0.414      334.185        3.991      867.771
12/27/2013  13:02:00       15.428       40.644       53.699       24.897       20.279       16.969      619.879      411.248      287.954        0.305        0.066       43.473       12.371        0.081      334.130        3.900      867.794
12/27/2013  13:03:00       15.772       42.034       57.433       31.811       29.561       19.189     1011.928      873.834      368.228        0.378        0.113       44.896       15.261        0.116      334.172        3.969      867.789
12/27/2013  13:04:00       29.361       29.749       49.886       32.701       27.479       19.955     1069.360      755.092      398.188        0.323        0.111       41.798       18.035        0.186      334.213        4.038      867.788
12/27/2013  13:05:00       33.859       30.766       28.175       35.582       23.065       25.248     1266.109      531.996      637.452        0.266        0.122       45.750       26.353        0.332      334.125        3.891      867.817
12/27/2013  13:06:00       51.574       48.031       60.011       61.499       51.641       37.545     3782.154     2666.790     1409.655        0.821        0.393       70.476       32.291        0.210      334.279        4.146      867.794
12/27/2013  13:07:00      152.156       87.479       33.600       56.504       47.847       41.260     3192.673     2289.333     1702.421        1.956        0.359      175.511       27.080        0.024      334.047        3.760      867.716
12/27/2013  13:08:00       54.941       38.388        4.353       42.763       38.295       26.923     1828.715     1466.470      724.830        0.426        0.201       67.023       12.707        0.036      334.104        3.856      867.721
12/27/2013  13:09:00       39.252      -38.805        9.418       27.413       29.751       26.475      751.450      885.120      700.899        0.274        0.117       55.196       11.598        0.044      334.220        4.049      867.768
12/27/2013  13:10:00       43.583       41.913       46.122       25.648       27.552       24.984      657.818      759.107      624.195        0.391        0.102       60.467       18.720        0.096      334.249        4.096      867.757
12/27/2013  13:11:00       41.258       56.885       46.993       52.266       41.718       38.215     2731.688     1740.397     1460.353        0.654        0.297       70.272       31.659        0.203      334.226        4.060      867.698
12/27/2013  13:12:00       64.896       38.565       35.742       25.412       32.351       36.520      645.789     1046.576     1333.706        0.500        0.151       75.490       23.199        0.094      334.124        3.890      867.679
12/27/2013  13:13:00       97.089       68.182       22.394       45.258       47.735       34.414     2048.255     2278.596     1184.321        1.004        0.276      118.639       29.850        0.063      334.116        3.877      867.613
12/27/2013  13:14:00       10.539       30.748       53.912       22.077       47.948       25.178      487.395     2299.020      633.931        0.369        0.171       32.504       29.423        0.819      334.275        4.139      867.606
12/27/2013  13:15:00        6.663       29.251       44.881       39.363       31.879       29.861     1549.475     1016.246      891.652        0.319        0.173       30.001       27.932        0.867      334.331        4.236      867.627
12/27/2013  13:16:00       30.948       49.457       65.407       36.724       33.205       24.089     1348.688     1102.590      580.272        0.536        0.152       58.342       13.957        0.057      334.292        4.168      867.588
12/27/2013  13:17:00       68.808     -108.381       -7.455       40.324       58.700       35.130     1626.027     3445.697     1234.133        1.142        0.315      128.378       30.933        0.058      334.221        4.050      867.605
12/27/2013  13:18:00       87.440      -98.518      -33.616       52.308       72.901       35.921     2736.124     5314.566     1290.350        1.391        0.467      131.725       36.217        0.076      334.224        4.054      867.659
12/27/2013  13:19:00       44.429      119.598      106.775       65.266       66.501       50.048     4259.715     4422.370     2504.810        1.943        0.559      127.584       49.077        0.148      334.223        4.051      867.623
12/27/2013  13:20:00       53.400       31.399       58.502       65.639      102.832       56.095     4308.433    10574.519     3146.696        1.264        0.901       61.947       65.384        1.114      334.214        4.037      867.588
12/27/2013  13:21:00       14.764       -5.285       31.091       32.927       38.879       19.316     1084.180     1511.583      373.123        0.209        0.148       15.682       22.142        1.994      334.493        4.502      867.624
12/27/2013  13:22:00       86.830       62.271       35.255       32.996       16.540       21.086     1088.765      273.578      444.607        0.723        0.090      106.851       12.884        0.015      334.180        3.983      867.598
12/27/2013  13:23:00       14.405       11.053       47.307       21.638       40.390       19.075      468.192     1631.368      363.849        0.252        0.123       18.157       18.024        0.985      334.479        4.479      867.551
12/27/2013  13:24:00       82.851       41.484       15.127       37.000       29.327       31.942     1368.984      860.053     1020.281        0.603        0.162       92.656       19.808        0.046      334.314        4.206      867.494
12/27/2013  13:25:00       38.273       14.658        4.962       24.662       24.819       14.935      608.194      615.995      223.059        0.158        0.072       40.984        6.986        0.029      334.197        4.010      867.489
12/27/2013  13:26:00       48.162       35.409        8.704       31.235       29.064       20.412      975.613      844.689      416.639        0.294        0.112       59.778       18.980        0.101      334.272        4.135      867.519
12/27/2013  13:27:00       37.434        6.533        9.836       23.039       36.253       25.784      530.793     1314.310      664.828        0.202        0.125       37.999       19.227        0.256      334.353        4.269      867.516
12/27/2013  13:28:00       -0.289      -28.443       -9.926       20.103       34.501       15.461      404.134     1190.342      239.039        0.137        0.092       28.444        9.801        0.119      334.330        4.232      867.498
12/27/2013  13:29:00       10.310       33.965       30.652       18.028       30.108       29.170      325.007      906.521      850.874        0.214        0.104       35.496       21.891        0.380      334.520        4.547      867.451
12/27/2013  13:30:00       15.470       50.916       66.990       29.538       35.824       32.137      872.475     1283.342     1032.777        0.525        0.159       53.215       27.419        0.265      334.458        4.444      867.415
12/27/2013  13:31:00        6.304       23.037       29.279       14.600       23.615       19.670      213.157      557.655      386.923        0.129        0.058       23.884       13.463        0.318      334.441        4.417      867.422
12/27/2013  13:32:00       50.634       60.710       43.980       21.137       20.789       17.994      446.768      432.164      323.783        0.469        0.060       79.054       14.056        0.032      334.217        4.045      867.425
12/27/2013  13:33:00       45.215       30.009       33.313       15.935       14.360       17.412      253.912      206.215      303.182        0.241        0.038       54.268       11.106        0.042      334.280        4.148      867.423
12/27/2013  13:34:00       62.201       41.961        7.897       12.492       12.202       16.551      156.050      148.899      273.928        0.314        0.029       75.031        8.768        0.014      334.238        4.080      867.397
12/27/2013  13:35:00       39.477       40.984        9.102       30.298       19.064       14.663      917.958      363.443      215.001        0.241        0.075       56.905       10.587        0.035      334.286        4.159      867.348
12/27/2013  13:36:00      -11.284      -22.932        0.858       20.688       19.581       17.478      427.984      383.416      305.477        0.089        0.056       25.558       11.905        0.217      334.532        4.567      867.353
12/27/2013  13:37:00      -31.568       -0.176       10.670       17.800       23.838       17.536      316.842      568.228      307.529        0.115        0.060       31.569       10.143        0.103      334.580        4.647      867.362
12/27/2013  13:38:00       41.589       46.840       10.222       24.926       14.884       17.407      621.293      221.533      303.009        0.259        0.057       62.639       13.806        0.049      334.480        4.482      867.338
12/27/2013  13:39:00       35.231       34.934        8.124       24.387       21.073       18.913      594.718      444.055      357.691        0.196        0.070       49.615       14.046        0.080      334.387        4.327      867.335
12/27/2013  13:40:00       81.889       49.619       20.996       36.257       34.294       24.249     1314.581     1176.103      588.015        0.634        0.154       95.749       12.865        0.018      334.442        4.418      867.333
12/27/2013  13:41:00       28.535       67.700       70.169       40.696       39.873       22.953     1656.151     1589.840      526.849        0.705        0.189       73.468       12.901        0.031      334.694        4.835      867.331
12/27/2013  13:42:00       43.535       70.709       64.120       35.596       37.411       21.111     1267.099     1399.558      445.671        0.706        0.156       83.036       14.204        0.029      334.597        4.675      867.323
12/27/2013  13:43:00       62.464       52.916       23.116       33.006       36.687       36.019     1089.418     1345.970     1297.354        0.548        0.187       81.865       13.347        0.027      334.597        4.674      867.278
12/27/2013  13:44:00       89.063       59.781        8.312       24.970       26.583       21.446      623.513      706.668      459.930        0.668        0.090      107.266       10.066        0.009      334.362        4.286      867.267
12/27/2013  13:45:00      116.747       68.404       15.124       26.968       26.478       22.201      727.290      701.094      492.892        1.023        0.096      135.311       17.292        0.016      334.313        4.203      867.221
12/27/2013  13:46:00      155.928       78.616        2.442       41.958       32.468       28.557     1760.433     1054.175      815.519        1.706        0.182      174.625       22.993        0.017      334.329        4.230      867.138
12/27/2013  13:47:00      114.800       57.304       -8.841       34.589       31.165       20.974     1196.388      971.237      439.900        0.957        0.130      128.307        3.478        0.001      334.283        4.153      867.115
12/27/2013  13:48:00       54.271       17.915        7.588       20.670       18.160       19.107      427.233      329.782      365.088        0.222        0.056       57.152       15.472        0.073      334.401        4.351      867.176
12/27/2013  13:49:00       73.879       40.737       25.447       36.235       34.522       35.463     1312.956     1191.764     1257.632        0.576        0.188       84.366       24.560        0.085      334.390        4.332      867.192
12/27/2013  13:50:00      110.133       65.469       12.671       21.957       25.642       19.565      482.116      657.532      382.797        0.905        0.076      128.122       10.566        0.007      334.314        4.207      867.195
12/27/2013  13:51:00       66.844       57.409       45.440       36.245       26.763       25.753     1313.673      716.259      663.241        0.626        0.135       88.113       15.700        0.032      334.432        4.402      867.198
12/27/2013  13:52:00       97.378       54.584       37.159       36.922       30.846       28.577     1363.239      951.456      816.627        0.849        0.157      111.633       15.873        0.020      334.512        4.533      867.182
12/27/2013  13:53:00      112.169       67.198       17.474       32.068       31.410       36.615     1028.360      986.593     1340.656        1.038        0.168      130.757       15.654        0.014      334.401        4.350      867.169
12/27/2013  13:54:00       70.224       62.834        9.957       49.083       34.433       31.031     2409.100     1185.637      962.935        0.677        0.228       94.231       24.195        0.066      334.391        4.333      867.158
12/27/2013  13:55:00      108.778       53.228        7.461       22.199       25.119       24.319      492.805      630.975      591.435        0.822        0.086      121.103        9.227        0.006      334.379        4.314      867.137
12/27/2013  13:56:00       71.972       59.639       -7.559       25.426       23.796       19.147      646.465      566.230      366.602        0.519        0.079       93.471       13.103        0.020      334.364        4.287      867.134
12/27/2013  13:57:00       74.181       61.897        2.409       33.754       21.006       22.049     1139.352      441.259      486.146        0.570        0.103       96.613       12.775        0.017      334.437        4.410      867.158
12/27/2013  13:58:00       75.122       19.585        8.090       46.000       33.465       25.033     2115.976     1119.877      626.657        0.498        0.193       77.633       23.070        0.088      334.530        4.564      867.167
12/27/2013  13:59:00       86.038       52.356       -3.166       33.042       22.830       28.156     1091.764      521.219      792.757        0.628        0.120      100.716       12.141        0.015      334.481        4.483      867.151
12/27/2013  14:00:00       56.270       22.757       21.387       34.411       23.538       25.888     1184.096      554.053      670.179        0.327        0.120       60.698       18.315        0.091      334.537        4.575      867.184
12/27/2013  14:01:00       90.713       58.062       30.624       29.037       25.244       22.759      843.144      637.268      517.972        0.727        0.100      107.704       10.344        0.009      334.486        4.489      867.189
12/27/2013  14:02:00       51.578       33.152        7.710       28.255       26.162       18.579      798.350      684.427      345.196        0.282        0.091       61.313        9.165        0.022      334.556        4.606      867.146
12/27/2013  14:03:00       37.503       36.766       -2.991       24.850       20.031       18.442      617.529      401.251      340.109        0.206        0.068       52.518        9.195        0.031      334.529        4.561      867.117
12/27/2013  14:04:00       20.680       58.869        6.778       29.706       27.829       23.898      882.476      774.431      571.117        0.308        0.111       62.396       20.720        0.110      334.514        4.536      867.103
12/27/2013  14:05:00       32.806       84.867       -9.114       15.361       27.426       18.856      235.971      752.181      355.547        0.485        0.067       90.987       18.326        0.041      334.426        4.390      867.095
12/27/2013  14:06:00       51.192       89.264       -9.584       28.787       29.837       21.115      828.711      890.253      445.853        0.642        0.108      102.901       16.573        0.026      334.452        4.434      867.096
12/27/2013  14:07:00       90.396       46.630       11.652       23.988       16.019       16.625      575.437      256.621      276.403        0.579        0.055      101.715       13.106        0.017      334.429        4.397      867.130
12/27/2013  14:08:00      103.151       55.589        3.082       23.657       16.532       18.080      559.632      273.293      326.903        0.745        0.058      117.176       16.122        0.019      334.431        4.400      867.136
12/27/2013  14:09:00       60.182       44.426       14.486       28.327       15.055       17.513      802.437      226.643      306.707        0.357        0.067       74.804        5.339        0.005      334.458        4.445      867.103
12/27/2013  14:10:00      128.826       75.184       12.070       25.899       22.688       26.623      670.778      514.744      708.784        1.214        0.095      149.160       16.729        0.013      334.487        4.491      867.060
12/27/2013  14:11:00      118.645       84.858       18.526       28.501       24.983       26.764      812.307      624.146      716.292        1.189        0.108      145.868       15.156        0.011      334.509        4.527      867.023
12/27/2013  14:12:00       83.936       56.067        4.711       27.165       27.753       23.659      737.964      770.253      559.743        0.614        0.103      100.940       10.086        0.010      334.506        4.524      867.007
12/27/2013  14:13:00       60.473       16.589       17.096       33.995       21.771       21.524     1155.687      473.983      463.292        0.316        0.105       62.707       13.498        0.046      334.545        4.588      867.012
12/27/2013  14:14:00       17.422       16.401        3.991       12.925       28.165       13.139      167.047      793.289      172.626        0.086        0.057       23.928       13.291        0.309      334.573        4.635      867.048
12/27/2013  14:15:00       54.139       30.548        2.401       25.447       18.181       10.909      647.558      330.564      119.015        0.248        0.055       62.163        9.471        0.023      334.492        4.502      867.082
12/27/2013  14:16:00       54.337       50.188       24.730       28.615       19.292       23.270      818.790      372.191      541.502        0.391        0.087       73.968       20.957        0.080      334.568        4.625      867.072
12/27/2013  14:17:00       52.097       43.912       50.170       53.025       28.706       34.947     2811.599      824.050     1221.321        0.601        0.243       68.135       34.071        0.250      334.649        4.761      867.065
12/27/2013  14:18:00       90.856       55.060       16.821       38.227       31.571       25.076     1461.334      996.702      628.821        0.733        0.154      106.238       16.513        0.024      334.559        4.612      867.020
12/27/2013  14:19:00       67.038       58.062       18.691       27.511       30.254       23.204      756.877      915.289      538.419        0.521        0.111       88.686       13.486        0.023      334.613        4.700      866.983
12/27/2013  14:20:00       56.965       65.248        5.561       31.882       35.654       25.704     1016.476     1271.185      660.710        0.524        0.147       86.616       24.495        0.080      334.556        4.607      866.978
12/27/2013  14:21:00       53.981       62.605       28.723       39.076       22.766       30.277     1526.920      518.302      916.686        0.531        0.148       82.664       19.138        0.054      334.600        4.677      866.992
12/27/2013  14:22:00       13.113       61.468       77.417       35.546       32.934       17.417     1263.519     1084.670      303.354        0.630        0.133       62.851       14.260        0.051      334.647        4.756      867.029
12/27/2013  14:23:00       73.183       67.223       37.374       24.598       16.141       21.341      605.059      260.528      455.440        0.630        0.066       99.372       16.414        0.027      334.576        4.640      867.034
12/27/2013  14:24:00       93.613       39.369       16.377       30.634       20.917       27.196      938.447      437.502      739.644        0.635        0.106      101.554       15.619        0.024      334.505        4.521      867.009
12/27/2013  14:25:00        8.744       -1.064       26.138       26.629       27.731       25.140      709.101      769.009      632.037        0.144        0.106        8.808       24.337        7.634      334.718        4.876      866.986
12/27/2013  14:26:00       -1.540       18.514       44.259       15.841       27.054       16.324      250.922      731.928      266.463        0.178        0.062       18.578       17.808        0.919      334.882        5.149      866.973
12/27/2013  14:27:00       24.242       82.010       74.064       32.158       36.263       27.698     1034.131     1314.981      767.182        0.796        0.156       85.518       20.660        0.058      334.657        4.773      866.934
12/27/2013  14:28:00        2.214       43.863       62.531       20.915       34.698       19.768      437.430     1203.922      390.787        0.394        0.102       43.919       15.268        0.121      334.675        4.803      866.954
12/27/2013  14:29:00       12.625       34.667       50.064       17.630       23.023        9.409      310.819      530.060       88.537        0.240        0.046       36.895        9.440        0.065      334.655        4.771      867.016
12/27/2013  14:30:00       83.394       69.819       38.076       38.731       26.471       21.968     1500.070      700.700      482.594        0.798        0.134      108.763       25.215        0.054      334.563        4.617      866.996
12/27/2013  14:31:00       16.426       21.130       42.904       27.728       28.586       15.991      768.850      817.164      255.698        0.220        0.092       26.764       12.251        0.210      334.731        4.896      867.020
12/27/2013  14:32:00       46.740       56.313       41.868       27.602       18.074       22.616      761.889      326.676      511.500        0.435        0.080       73.183       19.615        0.072      334.586        4.657      867.080
12/27/2013  14:33:00       17.746       49.618       57.724       24.273       26.028       28.012      589.196      677.479      784.687        0.408        0.103       52.696       24.632        0.218      334.650        4.762      867.077
12/27/2013  14:34:00       50.039       43.347       38.821       32.731       46.053       36.745     1071.304     2120.908     1350.191        0.522        0.227       66.203       33.503        0.256      334.596        4.673      867.046
12/27/2013  14:35:00       85.897       52.676       -2.642       37.667       23.165       14.614     1418.830      536.633      213.568        0.616        0.108      100.762       10.025        0.010      334.559        4.612      867.003
12/27/2013  14:36:00      100.336       55.183       -8.257       22.934       19.508       19.081      525.978      380.564      364.072        0.723        0.064      114.510       13.605        0.014      334.578        4.643      866.953
12/27/2013  14:37:00       61.705       42.241        8.362       28.330       24.996       25.192      802.606      624.778      634.613        0.386        0.103       74.778       23.399        0.098      334.588        4.661      866.936
12/27/2013  14:38:00       18.796       15.574       28.502       17.477       19.627       16.424      305.462      385.230      269.751        0.118        0.048       24.410       15.108        0.383      334.716        4.872      866.924
12/27/2013  14:39:00        8.577        6.838       26.884       20.042       35.762       18.524      401.685     1278.940      343.129        0.143        0.101       10.969       16.293        2.206      334.811        5.030      866.955
12/27/2013  14:40:00      101.056       77.278       28.655       31.710       29.624       25.586     1005.510      877.608      654.636        0.977        0.127      127.217       13.894        0.012      334.630        4.729      866.947
12/27/2013  14:41:00       95.207       72.934       38.970       54.527       31.856       31.797     2973.157     1014.802     1011.067        1.045        0.250      119.933       31.624        0.070      334.675        4.804      866.908
12/27/2013  14:42:00       86.808       63.242       41.410       39.666       27.902       38.731     1573.404      778.527     1500.112        0.855        0.193      107.402       29.209        0.074      334.657        4.774      866.888
12/27/2013  14:43:00       74.281       49.389        9.684       27.801       17.375       23.021      772.914      301.889      529.988        0.483        0.080       89.202       13.103        0.022      334.603        4.684      866.877
12/27/2013  14:44:00       57.611       48.646        6.775       19.569       16.724       13.754      382.952      279.676      189.166        0.329        0.043       75.402       12.743        0.029      334.528        4.559      866.866
12/27/2013  14:45:00       15.631       14.997       -2.117       15.229       15.831       10.049      231.922      250.623      100.988        0.053        0.029       21.662        7.235        0.112      334.557        4.607      866.867
12/27/2013  14:46:00       58.069       34.060       12.911       40.869       31.047       25.079     1670.239      963.936      628.956        0.398        0.163       67.320       18.556        0.076      334.639        4.744      866.878
12/27/2013  14:47:00       20.414       26.525       21.578       26.953       24.281       21.020      726.488      589.578      441.820        0.167        0.088       33.471       14.040        0.176      334.692        4.833      866.921
12/27/2013  14:48:00        9.847       38.733       40.800       28.100       22.272       20.414      789.598      496.050      416.721        0.248        0.085       39.965       17.443        0.191      334.696        4.839      866.967
12/27/2013  14:49:00       54.149       59.972       39.088       19.176       16.158       23.325      367.736      261.078      544.045        0.461        0.059       80.801       14.669        0.033      334.604        4.685      866.975
12/27/2013  14:50:00       20.298       36.990       24.071       18.012        8.448        9.674      324.428       71.377       93.591        0.142        0.024       42.193        7.878        0.035      334.591        4.664      866.989
12/27/2013  14:51:00       53.330       47.978       18.431       18.006       12.413       17.882      324.199      154.086      319.779        0.314        0.040       71.736       11.918        0.028      334.606        4.691      866.998
12/27/2013  14:52:00       55.733       53.172        8.090       24.572       27.070       18.490      603.778      732.776      341.872        0.384        0.084       77.029        9.212        0.014      334.626        4.725      866.947
12/27/2013  14:53:00       49.806       47.096       12.701       22.470       16.865       19.150      504.879      284.439      366.735        0.301        0.058       68.547       11.162        0.027      334.651        4.764      866.913
12/27/2013  14:54:00      107.633       79.783       30.151       42.577       26.941       32.574     1812.807      725.837     1061.055        1.123        0.180      133.978       20.263        0.023      334.679        4.810      866.861
12/27/2013  14:55:00       95.233       81.248       46.348       54.662       27.657       29.545     2987.973      764.894      872.905        1.122        0.231      125.182       27.535        0.048      334.642        4.748      866.845
12/27/2013  14:56:00       -1.077       50.055       63.220       25.581       31.854       15.850      654.413     1014.671      251.222        0.421        0.096       50.067       17.688        0.125      334.759        4.944      866.908
12/27/2013  14:57:00       41.670       57.460       58.906       42.258       45.996       27.909     1785.754     2115.675      778.934        0.659        0.234       70.979       28.802        0.165      334.709        4.861      866.954
12/27/2013  14:58:00       33.788       93.575       91.987       41.234       43.638       26.419     1700.221     1904.241      697.941        1.133        0.215       99.489       27.326        0.075      334.662        4.782      866.941
12/27/2013  14:59:00       35.857       89.688       91.215       41.864       38.328       34.347     1752.577     1469.052     1179.705        1.102        0.220       96.590       32.676        0.114      334.634        4.735      866.903
12/27/2013  15:00:00       80.267       35.364       28.173       30.404       44.196       30.804      924.433     1953.254      948.868        0.616        0.191       87.713       29.031        0.110      334.654        4.770      866.864
12/27/2013  15:01:00       38.347       30.893       27.787       30.296       19.408       21.494      917.855      376.674      461.992        0.248        0.088       49.242       19.531        0.157      334.708        4.860      866.823
12/27/2013  15:02:00       47.116       19.858       14.037       39.999       33.852       18.949     1599.949     1145.971      359.047        0.296        0.155       51.130       17.340        0.115      334.659        4.776      866.815
12/27/2013  15:03:00       86.918       60.843        4.016       22.455       14.457       17.114      504.223      209.007      292.891        0.614        0.050      106.097       10.064        0.009      334.554        4.602      866.790
12/27/2013  15:04:00       92.604       63.108        4.304       33.408       22.732       25.350     1116.071      516.755      642.608        0.743        0.114      112.063       22.863        0.042      334.583        4.650      866.783
12/27/2013  15:05:00       22.636       53.407       54.316       33.585       30.462       28.327     1127.963      927.913      802.432        0.459        0.143       58.006       22.832        0.155      334.653        4.767      866.816
12/27/2013  15:06:00       11.863       63.062       62.645       26.615       24.534       22.971      708.342      601.920      527.673        0.494        0.092       64.169       21.221        0.109      334.649        4.760      866.868
12/27/2013  15:07:00       60.408       49.362       20.249       11.461        9.824       12.226      131.351       96.509      149.475        0.344        0.019       78.011        9.421        0.015      334.583        4.650      866.882
12/27/2013  15:08:00       58.807       48.725       12.189       15.315       15.797       18.090      234.558      249.545      327.231        0.340        0.041       76.371       11.192        0.021      334.572        4.633      866.878
12/27/2013  15:09:00       59.363       31.035        0.191       20.437       15.328       17.076      417.657      234.959      291.584        0.272        0.047       66.986       11.623        0.030      334.609        4.693      866.862
12/27/2013  15:10:00       86.886       42.305       12.017       38.152       20.847       23.959     1455.606      434.599      574.048        0.597        0.123       96.637       20.184        0.044      334.624        4.719      866.833
12/27/2013  15:11:00       95.463       76.189       55.391       24.442       21.942       27.547      597.414      481.435      758.847        0.991        0.092      122.139       17.973        0.022      334.659        4.778      866.803
12/27/2013  15:12:00       33.618       85.802       75.125       37.531       27.664       21.835     1408.592      765.296      476.755        0.839        0.133       92.152       21.333        0.054      334.686        4.822      866.786
12/27/2013  15:13:00       28.360       43.601       44.117       35.552       27.231       20.972     1263.978      741.517      439.822        0.355        0.122       52.013       15.727        0.091      334.666        4.790      866.835
12/27/2013  15:14:00       55.407       52.036       38.113       31.009       25.670       28.001      961.541      658.973      784.079        0.482        0.120       76.011       22.082        0.084      334.645        4.754      866.893
12/27/2013  15:15:00       18.859       -4.836       31.546       20.656       27.919       18.267      426.675      779.492      333.693        0.146        0.077       19.469       12.953        0.443      334.692        4.833      866.907
12/27/2013  15:16:00       33.158       55.110       19.611       26.417       34.998       24.735      697.855     1224.847      611.836        0.353        0.127       64.317       12.107        0.035      334.662        4.783      866.892
12/27/2013  15:17:00       34.846       51.048       -8.421       17.601       29.826       16.295      309.781      889.576      265.512        0.268        0.073       61.808       16.697        0.073      334.583        4.651      866.891
12/27/2013  15:18:00       25.366       27.970        7.348       17.187       13.015       16.457      295.403      169.396      270.836        0.111        0.037       37.759        8.585        0.052      334.604        4.686      866.892
12/27/2013  15:19:00       72.259       55.685       22.215       11.243       14.578       14.746      126.394      212.531      217.446        0.469        0.028       91.226       14.344        0.025      334.555        4.608      866.855
12/27/2013  15:20:00       57.554       37.309       13.090       17.564       16.940       16.821      308.505      286.970      282.951        0.288        0.044       68.589       14.177        0.043      334.569        4.629      866.818
12/27/2013  15:21:00       57.636       36.422        7.608       22.262       24.011       16.138      495.596      576.551      260.441        0.302        0.067       68.179       14.096        0.043      334.591        4.663      866.821
12/27/2013  15:22:00       43.844       38.807        3.928       22.198       16.577       12.250      492.762      274.811      150.059        0.218        0.046       58.551        9.779        0.028      334.566        4.622      866.838
12/27/2013  15:23:00       79.272       58.981        0.468       14.471       17.937       19.395      209.399      321.735      376.147        0.533        0.045       98.806       10.186        0.011      334.585        4.652      866.811
12/27/2013  15:24:00       70.001       50.882        2.557       25.425       15.270       20.294      646.442      233.172      411.848        0.439        0.065       86.540       10.243        0.014      334.565        4.621      866.810
12/27/2013  15:25:00       70.662       54.965        3.172       20.910       25.151       19.703      437.217      632.565      388.212        0.474        0.073       89.523       12.942        0.021      334.555        4.606      866.812
12/27/2013  15:26:00      105.035       73.995       18.080       17.486       16.002       21.230      305.747      256.063      450.699        0.892        0.051      128.482        7.326        0.003      334.599        4.676      866.783
12/27/2013  15:27:00       81.062       62.132       25.532       21.783       19.017       21.492      474.504      361.665      461.900        0.619        0.065      102.134       14.332        0.020      334.595        4.672      866.787
12/27/2013  15:28:00      101.246       58.119       15.739       28.709       19.777       21.536      824.214      391.137      463.790        0.778        0.084      116.742       15.706        0.018      334.539        4.577      866.774
12/27/2013  15:29:00       78.758       41.941        6.409       30.184       22.833       22.968      911.051      521.354      527.543        0.498        0.098       89.229       19.960        0.050      334.546        4.590      866.749
12/27/2013  15:30:00       43.017       37.347       -2.114       22.060       18.075       12.879      486.630      326.692      165.874        0.211        0.049       56.967        9.590        0.028      334.530        4.562      866.709
12/27/2013  15:31:00       35.917       40.473       -2.264       18.890       16.909       13.408      356.834      285.915      179.763        0.188        0.041       54.112        8.154        0.023      334.550        4.597      866.657
12/27/2013  15:32:00       91.630       59.819        4.856       37.814       25.789       20.208     1429.909      665.086      408.347        0.725        0.125      109.427       18.824        0.030      334.539        4.578      866.629
12/27/2013  15:33:00       81.396       38.344        4.798       28.575       31.809       16.326      816.510     1011.823      266.531        0.511        0.105       89.975       11.184        0.015      334.551        4.597      866.641
12/27/2013  15:34:00       61.634       21.473       -1.875       19.337       12.795       17.100      373.912      163.716      292.394        0.255        0.042       65.267       13.248        0.041      334.571        4.631      866.666
12/27/2013  15:35:00       50.112       28.476       14.466       23.196       12.282       21.163      538.035      150.847      447.853        0.233        0.057       57.638       12.604        0.048      334.574        4.637      866.664
12/27/2013  15:36:00       62.498       38.627        8.361       20.492       13.642       15.162      419.917      186.099      229.900        0.315        0.042       73.471        8.296        0.013      334.557        4.609      866.660
12/27/2013  15:37:00       69.451       33.495        0.988       15.100       12.482       14.120      228.002      155.797      199.379        0.326        0.029       77.107        8.036        0.011      334.563        4.620      866.684
12/27/2013  15:38:00       44.652       46.015       15.581       10.013        8.378       11.468      100.267       70.197      131.506        0.233        0.015       64.118        5.378        0.007      334.566        4.626      866.691
12/27/2013  15:39:00       25.995       46.690       17.577       15.265       14.723       14.667      233.026      216.770      215.126        0.191        0.033       53.439        4.594        0.007      334.586        4.657      866.701
12/27/2013  15:40:00       34.467       46.253        7.118       21.003       19.846       18.662      441.142      393.861      348.267        0.228        0.059       57.683        9.361        0.026      334.575        4.637      866.710
12/27/2013  15:41:00       65.663       56.140        6.535       20.497       15.352       12.815      420.142      235.683      164.216        0.416        0.041       86.391       10.909        0.016      334.562        4.618      866.675
12/27/2013  15:42:00       53.819       43.877       -3.940       27.680       19.537       16.205      766.173      381.706      262.608        0.312        0.071       69.438        9.326        0.018      334.548        4.594      866.668
12/27/2013  15:43:00       42.173       23.322       -6.389       12.170       12.617        6.639      148.097      159.190       44.073        0.136        0.018       48.192        4.039        0.007      334.555        4.606      866.666
12/27/2013  15:44:00       46.855       37.656        4.995       16.885       19.624       12.536      285.102      385.082      157.156        0.223        0.041       60.111        4.718        0.006      334.562        4.619      866.633
12/27/2013  15:45:00       31.797       37.597       14.896       14.613       15.839       11.379      213.543      250.872      129.483        0.162        0.030       49.240        7.031        0.020      334.590        4.662      866.650
12/27/2013  15:46:00       14.103       37.323        6.949       10.067        9.347       10.674      101.349       87.375      113.926        0.097        0.015       39.899        6.056        0.023      334.568        4.626      866.671
12/27/2013  15:47:00       31.697       46.556       -0.442       19.108        9.287       10.646      365.127       86.247      113.329        0.187        0.028       56.322        9.285        0.027      334.573        4.633      866.658
12/27/2013  15:48:00       80.431       38.652        6.050       18.246       17.175       15.915      332.909      294.976      253.285        0.444        0.044       89.236       12.928        0.021      334.558        4.613      866.644
12/27/2013  15:49:00       12.043        0.907        1.887       20.896       25.687       18.296      436.645      659.801      334.730        0.079        0.072       12.077       14.566        1.455      334.636        4.739      866.689
12/27/2013  15:50:00        8.761        8.997       13.165        7.367       15.439        9.500       54.273      238.361       90.259        0.036        0.019       12.558        9.979        0.631      334.633        4.734      866.705
12/27/2013  15:51:00       23.172       46.943        2.594       11.479        8.494       13.387      131.763       72.146      179.206        0.157        0.019       52.351        7.983        0.023      334.581        4.647      866.691
12/27/2013  15:52:00       35.177       38.449       -4.400       21.128       17.457       14.447      446.400      304.736      208.704        0.185        0.048       52.113        5.045        0.009      334.533        4.567      866.663
12/27/2013  15:53:00       19.057       22.011       -7.595       16.904       12.355        7.170      285.741      152.640       51.406        0.070        0.024       29.114        6.830        0.055      334.529        4.560      866.636
12/27/2013  15:54:00        3.872       30.282       -7.481        6.759        7.837        5.208       45.680       61.421       27.127        0.056        0.007       30.529        1.998        0.004      334.574        4.635      866.622
12/27/2013  15:55:00       -6.952       42.116      -12.863       10.551        9.321        6.922      111.319       86.874       47.911        0.112        0.012       42.686        3.664        0.007      334.598        4.675      866.617
12/27/2013  15:56:00      -41.548       43.778       -7.963       21.573       19.300       17.168      465.396      372.504      294.738        0.242        0.057       60.355        7.463        0.015      334.757        4.941      866.600
12/27/2013  15:57:00       11.682       26.541       13.709       24.534       22.356       15.871      601.937      499.812      251.890        0.119        0.068       28.998       15.585        0.289      334.599        4.677      866.555
12/27/2013  15:58:00       22.821       69.621      -11.711       18.026       17.690       13.459      324.941      312.940      181.156        0.316        0.041       73.266        8.876        0.015      334.566        4.623      866.519
12/27/2013  15:59:00       -7.219       29.098      -11.390        8.756       13.547        6.441       76.670      183.526       41.489        0.067        0.015       29.980        6.799        0.051      334.571        4.631      866.535
12/27/2013  16:00:00       14.125        8.857       13.843       19.717       19.894        9.465      388.771      395.780       89.578        0.067        0.044       16.672       11.696        0.492      334.611        4.698      866.545
12/27/2013  16:01:00       32.610       34.239        3.492       20.891       18.774        9.890      436.413      352.450       97.818        0.157        0.044       47.284        9.243        0.038      334.558        4.608      866.551
12/27/2013  16:02:00       -1.154       16.684       -5.315       18.525       11.661        6.796      343.168      135.987       46.188        0.042        0.026       16.724        3.478        0.043      334.502        4.515      866.578
12/27/2013  16:03:00      -17.722       -1.717       -2.593       17.257        4.756        5.328      297.808       22.619       28.389        0.034        0.017       17.805        6.896        0.150      334.517        4.543      866.581
12/27/2013  16:04:00      -22.514        9.965        5.126       15.407       12.740        8.862      237.385      162.312       78.540        0.056        0.024       24.621        6.238        0.064      334.558        4.610      866.571
12/27/2013  16:05:00       -6.308        0.492        5.185        7.031        5.176        5.248       49.429       26.791       27.541        0.009        0.005        6.327        2.835        0.201      334.562        4.614      866.537
12/27/2013  16:06:00        2.593        2.343        3.230        7.042        5.238        6.186       49.594       27.439       38.264        0.007        0.006        3.495        5.966        2.913      334.558        4.611      866.534
12/27/2013  16:07:00       44.604       17.121       20.971       22.602       16.697       19.621      510.864      278.780      384.975        0.195        0.059       47.777       16.390        0.118      334.514        4.536      866.537
12/27/2013  16:08:00       30.354        7.267        9.855       21.943       15.219       11.653      481.490      231.613      135.804        0.096        0.042       31.211        6.953        0.050      334.533        4.569      866.554
12/27/2013  16:09:00       57.601       36.883       -0.096       17.427       15.584        8.926      303.695      242.862       79.668        0.265        0.031       68.397        7.235        0.011      334.522        4.551      866.539
12/27/2013  16:10:00       98.490       50.894        0.979       19.022       16.784       13.009      361.825      281.698      169.223        0.655        0.041      110.862       10.886        0.010      334.501        4.513      866.473
12/27/2013  16:11:00       27.612       11.862       -4.312       27.235       13.241        7.267      741.762      175.329       52.810        0.095        0.048       30.052       10.546        0.123      334.500        4.515      866.474
12/27/2013  16:12:00       -7.176       13.158       -5.270       13.494        7.496        9.869      182.084       56.195       97.406        0.029        0.017       14.987        5.378        0.129      334.447        4.427      866.494
12/27/2013  16:13:00       27.851       25.893       14.631       16.951       10.004        9.725      287.352      100.090       94.578        0.107        0.024       38.028        7.846        0.043      334.470        4.465      866.489
12/27/2013  16:14:00       14.449       17.348        2.671       17.669       13.774       10.353      312.191      189.717      107.188        0.056        0.030       22.577        6.307        0.078      334.513        4.535      866.495
12/27/2013  16:15:00      -16.711        5.214       -5.212       16.842        6.997        4.443      283.656       48.957       19.736        0.034        0.018       17.506        5.067        0.084      334.514        4.533      866.504
12/27/2013  16:16:00      -49.054        5.772       -4.419        8.636        8.961        4.322       74.579       80.300       18.680        0.132        0.009       49.392        4.400        0.008      334.407        4.360      866.496
12/27/2013  16:17:00      -22.184        4.588        0.318       15.579        5.733        6.249      242.690       32.865       39.056        0.041        0.016       22.653        7.631        0.113      334.327        4.227      866.470
12/27/2013  16:18:00        0.894        3.396       10.627        6.645        7.057        4.843       44.150       49.796       23.459        0.012        0.006        3.512        3.893        1.229      334.422        4.384      866.455
12/27/2013  16:19:00      -21.065       -3.809       -0.510        7.599        6.064        3.431       57.740       36.776       11.771        0.028        0.005       21.407        2.954        0.019      334.431        4.401      866.467
12/27/2013  16:20:00      -22.002       12.828       -1.012        7.624        7.892        6.867       58.125       62.286       47.160        0.041        0.008       25.468        5.371        0.044      334.474        4.470      866.460
12/27/2013  16:21:00        5.418       26.003        6.418       12.959       15.290       10.223      167.935      233.773      104.504        0.063        0.025       26.562        6.374        0.058      334.500        4.515      866.413
12/27/2013  16:22:00      -20.373      -26.322       -0.969       15.023       17.642        7.859      225.686      311.248       61.759        0.085        0.030       33.285        5.754        0.030      334.620        4.712      866.389
12/27/2013  16:23:00       18.988       14.204        7.465       16.309       23.371       11.737      265.994      546.222      137.752        0.078        0.047       23.713       12.192        0.264      334.545        4.588      866.380
12/27/2013  16:24:00       39.040       54.257       39.413       31.770       22.610       15.687     1009.361      511.229      246.068        0.389        0.088       66.842       13.442        0.040      334.534        4.570      866.359
12/27/2013  16:25:00      -16.320      -13.369        8.420       18.901       27.774       22.905      357.236      771.421      524.618        0.108        0.083       21.097       22.888        1.177      334.491        4.498      866.366
12/27/2013  16:26:00      -30.291       -9.828       -5.683       18.190       12.947       11.230      330.879      167.617      126.104        0.084        0.031       31.845       10.109        0.101      334.222        4.052      866.363
12/27/2013  16:27:00        7.359       11.894        3.059       17.598       12.765       14.652      309.694      162.949      214.691        0.045        0.034       13.986       10.924        0.610      334.411        4.366      866.333
12/27/2013  16:28:00      -42.885        1.036       -4.774       24.428       14.707        5.639      596.739      216.297       31.797        0.135        0.042       42.897        5.339        0.015      334.341        4.252      866.350
12/27/2013  16:29:00      -51.640      -25.663       -2.847       15.737       10.734        9.361      247.650      115.221       87.622        0.189        0.023       57.665        8.404        0.021      334.113        3.871      866.360
12/27/2013  16:30:00      -26.479      -12.608        2.526       17.131       10.644       12.227      293.462      113.303      149.509        0.071        0.028       29.328       11.182        0.145      334.136        3.910      866.323
12/27/2013  16:31:00      -29.377       -1.177       -3.367       16.567       13.314        9.346      274.479      177.267       87.342        0.071        0.027       29.401        9.500        0.104      334.190        4.000      866.281
12/27/2013  16:32:00      -36.577       14.848       -0.039       28.080       15.886       10.751      788.481      252.362      115.574        0.136        0.058       39.475        9.724        0.061      334.240        4.082      866.242
12/27/2013  16:33:00        1.313       12.158        8.934       13.160        9.509       10.362      173.175       90.414      107.370        0.030        0.019       12.228        7.546        0.381      334.243        4.088      866.202
12/27/2013  16:34:00      -48.980        0.895       -5.872       22.616       14.141        7.953      511.483      199.968       63.251        0.160        0.039       48.988        5.697        0.014      334.259        4.111      866.224
12/27/2013  16:35:00      -57.744      -20.600       -4.823       35.672       15.125       18.828     1272.521      228.755      354.485        0.282        0.093       61.309       23.714        0.150      334.186        3.993      866.293
12/27/2013  16:36:00       -9.323      -27.420        7.199       31.278       15.883       14.072      978.303      252.256      198.025        0.116        0.071       28.961       13.972        0.233      334.205        4.026      866.327
12/27/2013  16:37:00      -43.130      -13.927       -3.773       28.214       10.601        9.884      796.025      112.373       97.702        0.154        0.050       45.322       11.089        0.060      334.237        4.078      866.318
12/27/2013  16:38:00      -66.317        4.548       -5.914        8.079       13.089        6.744       65.271      171.325       45.486        0.237        0.014       66.473        5.119        0.006      334.136        3.909      866.309
12/27/2013  16:39:00      -36.573        2.275       -2.789        7.123        5.086        4.226       50.744       25.865       17.857        0.072        0.005       36.644        1.540        0.002      334.205        4.025      866.284
12/27/2013  16:40:00      -46.177      -13.133       -4.649       11.197        8.696        5.356      125.371       75.617       28.689        0.128        0.011       48.009        4.404        0.008      334.266        4.125      866.274
12/27/2013  16:41:00      -13.821       -8.004       -1.306       11.478       10.563        5.748      131.743      111.583       33.038        0.027        0.014       15.971        5.319        0.111      334.219        4.047      866.272
12/27/2013  16:42:00      -20.592      -28.128       -5.320       10.602       17.989        4.794      112.402      323.588       22.983        0.085        0.023       34.860        5.690        0.027      334.318        4.213      866.289
12/27/2013  16:43:00      -31.995       -5.781       -3.078        5.675        8.031        3.792       32.201       64.489       14.378        0.059        0.006       32.513        1.591        0.002      334.306        4.193      866.270
12/27/2013  16:44:00      -51.887       15.049       -6.932        6.900        6.706        6.197       47.612       44.965       38.403        0.155        0.007       54.025        5.565        0.011      334.172        3.969      866.249
12/27/2013  16:45:00      -28.330        6.755       -7.615       10.013        5.751        5.622      100.265       33.077       31.606        0.054        0.008       29.124        5.404        0.034      334.108        3.864      866.210
12/27/2013  16:46:00      -33.112       -4.852       -4.974       10.417       10.509        3.736      108.522      110.434       13.957        0.069        0.012       33.466        5.753        0.030      334.187        3.995      866.170
12/27/2013  16:47:00      -66.738      -39.190       -7.750       21.032       19.978       10.422      442.339      399.127      108.622        0.350        0.048       77.394        8.506        0.012      334.069        3.798      866.169
12/27/2013  16:48:00     -106.222      -18.705       -8.152       26.045       40.679       18.366      678.333     1654.745      337.292        0.718        0.134      107.856       14.374        0.018      333.886        3.496      866.158
12/27/2013  16:49:00     -109.219       14.800      -14.635       24.835       15.722       11.468      616.766      247.169      131.516        0.668        0.050      110.218       12.385        0.013      333.921        3.553      866.121
12/27/2013  16:50:00      -65.947      -12.576       -3.047       40.780       20.038       15.547     1662.990      401.530      241.705        0.341        0.115       67.135       19.363        0.083      333.954        3.607      866.121
12/27/2013  16:51:00      -48.307       -7.691        5.940       34.304       26.844       20.148     1176.793      720.609      405.947        0.237        0.115       48.915       18.713        0.146      333.822        3.390      866.127
12/27/2013  16:52:00     -113.822       42.976      -13.880       44.842       41.693       21.959     2010.780     1738.280      482.184        0.961        0.212      121.665       15.703        0.017      333.878        3.482      866.124
12/27/2013  16:53:00     -159.708       53.690       -9.472       53.962       31.249       19.491     2911.859      976.498      379.904        1.637        0.213      168.491       16.768        0.010      333.812        3.371      866.143
12/27/2013  16:54:00     -106.567       34.082      -12.649       55.452       38.879       19.016     3074.885     1511.559      361.601        0.881        0.247      111.884       13.961        0.016      333.824        3.392      866.171
12/27/2013  16:55:00      -40.192        5.692        3.013       28.010       36.543       21.504      784.556     1335.413      462.420        0.212        0.129       40.593       16.191        0.159      333.908        3.532      866.179
12/27/2013  16:56:00      -28.770       -5.819       -1.669       24.965       12.177       15.976      623.263      148.278      255.228        0.095        0.051       29.352       13.324        0.206      333.859        3.451      866.163
12/27/2013  16:57:00      -31.810       -6.562       -5.571       28.880       13.739       12.726      834.066      188.750      161.963        0.114        0.059       32.479       15.630        0.232      333.843        3.424      866.123
12/27/2013  16:58:00      -84.914        2.278      -18.254       10.940       13.540       12.418      119.681      183.322      154.215        0.400        0.023       84.944        5.350        0.004      333.852        3.441      866.093
12/27/2013  16:59:00      -77.163       -4.354       -5.751       16.956       22.869       10.155      287.501      522.982      103.124        0.346        0.046       77.286        6.319        0.007      333.862        3.456      866.060
12/27/2013  17:00:00      -64.794      -32.977       -0.089       20.421       12.913       15.733      417.025      166.745      247.539        0.306        0.042       72.704        8.468        0.014      333.770        3.302      866.068
12/27/2013  17:01:00      -75.960      -25.823      -12.127       21.972       28.734       16.252      482.788      825.637      264.143        0.408        0.079       80.229        8.611        0.012      333.641        3.089      866.111
12/27/2013  17:02:00      -56.858        3.998       -6.414       17.074       15.624       12.095      291.517      244.107      146.298        0.199        0.034       56.999        8.089        0.020      333.684        3.159      866.144
12/27/2013  17:03:00      -63.554        0.359      -16.227       17.777       19.125       13.947      316.018      365.751      194.515        0.259        0.044       63.555        9.848        0.024      333.694        3.177      866.146
12/27/2013  17:04:00      -83.914       -3.221      -13.468       31.872       26.870       12.682     1015.847      722.008      160.839        0.457        0.095       83.976        4.286        0.003      333.722        3.222      866.133
12/27/2013  17:05:00      -68.026      -33.873       -3.699       22.643       19.465       14.134      512.701      378.869      199.764        0.344        0.055       75.993       13.210        0.030      333.730        3.235      866.110
12/27/2013  17:06:00      -82.746      -29.272       -8.574       44.043       12.395       11.861     1939.781      153.643      140.679        0.501        0.112       87.771       15.619        0.032      333.714        3.209      866.061
12/27/2013  17:07:00     -147.150      -21.604       -8.828       39.987       26.436       19.853     1598.937      698.845      394.160        1.244        0.135      148.728       19.164        0.017      333.626        3.064      866.042
12/27/2013  17:08:00     -104.699      -54.295        1.469       69.373       32.741       27.505     4812.680     1071.949      756.537        1.028        0.332      117.940       37.016        0.099      333.605        3.028      866.051
12/27/2013  17:09:00      -41.602      -42.411        1.657       37.147       19.680       21.707     1379.908      387.319      471.187        0.288        0.112       59.409       23.526        0.157      333.718        3.215      866.033
12/27/2013  17:10:00      -70.203      -11.970       -2.797       31.058       31.210       12.398      964.603      974.087      153.708        0.359        0.105       71.216       15.919        0.050      333.835        3.411      865.997
12/27/2013  17:11:00      -59.504       43.963       -7.641       23.266       27.206       17.462      541.311      740.168      304.920        0.356        0.079       73.982       12.505        0.029      333.816        3.379      865.976
12/27/2013  17:12:00      -99.531      -16.643      -12.630       21.196       29.306       13.834      449.275      858.828      191.375        0.592        0.075      100.913        8.822        0.008      333.825        3.393      866.035
12/27/2013  17:13:00       -9.454      -10.201       16.355       22.470       25.267       16.405      504.886      638.403      269.110        0.094        0.071       13.908       11.889        0.731      333.783        3.325      866.056
12/27/2013  17:14:00      -30.454        0.606        1.776       17.186       14.328        7.994      295.369      205.279       63.896        0.075        0.028       30.460        8.847        0.084      333.886        3.496      865.979
12/27/2013  17:15:00      -89.395      -33.371       -4.292       24.661       16.345        9.654      608.169      267.170       93.207        0.505        0.048       95.420        7.614        0.006      333.960        3.619      865.946
12/27/2013  17:16:00     -129.738      -45.877       -3.894       27.411       31.318       15.868      751.386      980.836      251.795        1.047        0.099      137.610       11.775        0.007      333.787        3.331      865.944
12/27/2013  17:17:00      -80.200       30.004       -2.794       35.357       24.072       17.126     1250.152      579.440      293.312        0.473        0.106       85.628       19.865        0.054      333.779        3.318      865.901
12/27/2013  17:18:00     -105.271       88.521      -26.358       17.052       25.199       14.296      290.757      635.010      204.370        1.037        0.057      137.543        4.618        0.001      334.094        3.840      865.849
12/27/2013  17:19:00     -133.491      -44.050       -7.368       44.426       53.773       26.975     1973.635     2891.513      727.625        1.270        0.280      140.571       13.675        0.009      333.879        3.482      865.931
12/27/2013  17:20:00     -110.926      -48.399       -8.349       62.051       51.184       28.129     3850.362     2619.770      791.258        1.099        0.363      121.025       28.721        0.056      333.642        3.090      866.042
12/27/2013  17:21:00      -45.055       14.883       -4.100       23.462       23.116       18.844      550.471      534.346      355.110        0.185        0.072       47.450       16.158        0.116      333.775        3.312      866.020
12/27/2013  17:22:00      -34.473       -8.497       -4.242       14.645       15.018        9.561      214.463      225.526       91.422        0.090        0.027       35.505        6.146        0.030      333.864        3.460      865.971
12/27/2013  17:23:00       -4.574      -23.485       -2.340        9.682        7.175       15.530       93.738       51.479      241.185        0.048        0.019       23.926        6.695        0.078      333.884        3.492      865.962
12/27/2013  17:24:00      -15.433        8.921      -12.273       29.496       13.976        7.759      870.017      195.322       60.200        0.080        0.056       17.826        9.418        0.279      333.924        3.558      865.949
12/27/2013  17:25:00      -89.361       12.526      -12.225       18.297       17.280       10.581      334.766      298.599      111.954        0.452        0.037       90.235        6.414        0.005      333.800        3.352      865.923
12/27/2013  17:26:00     -101.674       43.477      -12.037       33.865       35.268       16.713     1146.858     1243.815      279.337        0.752        0.134      110.579       14.994        0.018      333.670        3.136      865.897
12/27/2013  17:27:00      -57.273        2.427       -3.855       39.196       33.915       16.803     1536.362     1150.226      282.350        0.313        0.148       57.324       14.504        0.064      333.715        3.212      865.890
12/27/2013  17:28:00      -14.624      -20.490       11.484       23.865       20.678       14.106      569.523      427.573      198.967        0.098        0.060       25.173       14.825        0.347      333.710        3.203      865.906
12/27/2013  17:29:00      -19.745        1.101        3.875       15.207       21.655        8.738      231.243      468.948       76.347        0.059        0.039       19.776        7.403        0.140      333.813        3.375      865.891
12/27/2013  17:30:00        3.792       46.265       -0.208       22.346       16.510       15.588      499.345      272.582      242.973        0.158        0.051       46.420       12.065        0.068      333.771        3.304      865.876
12/27/2013  17:31:00      -26.559       48.744       -9.962       41.356       28.077       13.199     1710.348      788.317      174.223        0.293        0.134       55.510        7.182        0.017      333.796        3.345      865.901
12/27/2013  17:32:00      -90.766       19.192      -13.078       29.996       21.880       14.777      899.752      478.732      218.362        0.519        0.080       92.773       13.530        0.021      333.648        3.101      865.910
12/27/2013  17:33:00     -108.229       26.205      -16.804       34.969       33.615       18.853     1222.860     1129.986      355.424        0.769        0.135      111.356       11.431        0.011      333.642        3.092      865.914
12/27/2013  17:34:00     -122.387      -48.829       -2.675       38.035       41.509       26.047     1446.688     1722.987      678.438        1.061        0.192      131.768       20.893        0.025      333.572        2.974      865.953
12/27/2013  17:35:00     -121.658      -49.474      -10.729       48.093       30.879       23.455     2312.921      953.489      550.121        1.059        0.191      131.333       23.507        0.032      333.568        2.967      865.972
12/27/2013  17:36:00      -88.728       28.369       -4.201       38.151       30.460       23.189     1455.463      927.817      537.725        0.581        0.146       93.153       16.537        0.032      333.415        2.716      865.941
12/27/2013  17:37:00      -62.345       22.246       -3.654       27.959       29.329       13.668      781.706      860.178      186.817        0.311        0.091       66.195        8.106        0.015      333.655        3.112      865.895
12/27/2013  17:38:00      -79.124        3.312       -4.766       23.217       23.876       14.138      539.029      570.061      199.883        0.380        0.065       79.194        8.011        0.010      333.752        3.273      865.911
12/27/2013  17:39:00     -125.787      -37.445      -10.205       39.984       31.573       20.209     1598.697      996.885      408.413        1.017        0.150      131.242       13.988        0.011      333.590        3.004      865.956
12/27/2013  17:40:00     -115.315      -32.572       -3.414       44.837       42.433       21.542     2010.356     1800.534      464.072        0.932        0.214      119.827       21.750        0.033      333.463        2.793      865.972
12/27/2013  17:41:00      -25.652      101.781       -2.047       20.302       41.284       20.576      412.167     1704.407      423.384        0.678        0.127      104.964       20.696        0.039      333.634        3.077      865.875
12/27/2013  17:42:00       -6.618      155.158      -23.425       26.940       33.870       14.355      725.779     1147.162      206.076        1.337        0.104      155.299       11.469        0.005      334.035        3.741      865.808
12/27/2013  17:43:00       -1.968       -5.054        9.919       40.908       46.711       25.264     1673.494     2181.931      638.280        0.231        0.225        5.424       15.142        7.794      333.856        3.446      865.903
12/27/2013  17:44:00      -81.397      -50.568        3.756       37.881       35.755       22.127     1434.977     1278.452      489.587        0.620        0.160       95.826       20.171        0.044      333.696        3.179      865.942
12/27/2013  17:45:00        7.794        9.512       20.804       27.241       15.798       13.846      742.083      249.569      191.717        0.088        0.059       12.298       18.538        2.272      333.730        3.235      865.866
12/27/2013  17:46:00       15.113       15.137        6.084       15.692       15.957       15.402      246.233      254.637      237.233        0.062        0.037       21.390       10.124        0.224      333.717        3.213      865.829
12/27/2013  17:47:00      -60.246      -56.830       -8.725       63.218       46.967       16.814     3996.463     2205.890      282.724        0.671        0.324       82.820       18.015        0.047      333.759        3.284      865.914
12/27/2013  17:48:00      -98.247     -105.610       12.627       57.882       46.969       35.843     3350.274     2206.116     1284.746        1.390        0.342      144.243       23.835        0.027      333.721        3.222      866.004
12/27/2013  17:49:00      -55.751      -18.183       10.617       76.555       47.063       26.053     5860.601     2214.939      678.754        0.615        0.438       58.641       39.070        0.444      333.847        3.430      865.962
12/27/2013  17:50:00      120.554       75.094       27.268       40.147       38.222       41.601     1611.796     1460.904     1730.643        1.286        0.240      142.029       18.125        0.016      333.768        3.298      865.776
12/27/2013  17:51:00      131.169       76.920       14.278       82.373       57.162       42.429     6785.320     3267.503     1800.262        1.759        0.593      152.059       44.580        0.086      333.891        3.501      865.630
12/27/2013  17:52:00        5.915       44.756       -8.704       50.632       40.776       30.882     2563.594     1662.680      953.706        0.365        0.259       45.145       21.956        0.237      333.814        3.375      865.643
12/27/2013  17:53:00      -56.181      -14.432       -6.874       51.346       68.766       22.547     2636.402     4728.742      508.376        0.564        0.394       58.005       19.029        0.108      333.902        3.523      865.764
12/27/2013  17:54:00     -102.946      -93.652       17.430       89.301       66.540       48.032     7974.596     4427.511     2307.112        1.719        0.735      139.172       51.007        0.134      333.826        3.395      865.917
12/27/2013  17:55:00      -73.296      -50.218       12.243      105.168       71.503       36.419    11060.260     5112.723     1326.367        1.277        0.875       88.849       55.918        0.396      333.887        3.497      865.898
12/27/2013  17:56:00       53.234      106.518      -11.142       21.446       46.508       28.161      459.949     2162.989      793.050        0.886        0.171      119.080       31.111        0.068      333.822        3.388      865.701
12/27/2013  17:57:00      -24.554      112.844      -24.857       44.277       43.895       15.092     1960.435     1926.811      227.770        0.903        0.206      115.485       19.472        0.028      333.756        3.280      865.642
12/27/2013  17:58:00     -116.816      -20.476      -16.378       51.135       37.075       24.269     2614.828     1374.530      589.008        0.946        0.229      118.597       21.660        0.033      333.689        3.168      865.721
12/27/2013  17:59:00     -178.082      -80.816      -10.819       74.381       44.464       28.156     5532.513     1977.041      792.757        2.333        0.415      195.562       32.972        0.028      333.584        2.992      865.834
12/27/2013  18:00:00      -54.993      -42.148        0.805       50.553       41.958       29.234     2555.574     1760.435      854.618        0.499        0.259       69.287       21.529        0.097      333.578        2.984      865.879
12/27/2013  18:01:00       21.440       36.779       21.223       22.025       29.477       18.424      485.115      868.868      339.455        0.198        0.085       42.572       14.867        0.122      333.659        3.119      865.785
12/27/2013  18:02:00       56.673       41.276       -2.626       37.801       32.152       20.004     1428.908     1033.744      400.161        0.389        0.143       70.111       14.582        0.043      333.616        3.048      865.672
12/27/2013  18:03:00      -37.049       79.283      -23.990       51.209       62.518       13.756     2622.326     3908.512      189.215        0.748        0.336       87.512       14.515        0.028      333.542        2.925      865.676
12/27/2013  18:04:00     -129.225      -54.612      -17.244       83.297       62.582       25.847     6938.362     3916.520      668.058        1.575        0.576      140.291       28.867        0.042      333.527        2.900      865.829
12/27/2013  18:05:00      -72.700      -86.080        1.144       74.768       60.178       39.026     5590.226     3621.405     1523.031        1.171        0.537      112.673       26.426        0.055      333.526        2.897      865.971
12/27/2013  18:06:00      -14.000      -65.091       18.409       41.322      100.957       24.661     1707.521    10192.301      608.168        0.864        0.625       66.580       36.748        0.305      333.715        3.210      865.910
12/27/2013  18:07:00       31.418       97.127       92.368       28.487       32.045       23.994      811.530     1026.869      575.714        1.068        0.121      102.082       15.295        0.022      333.729        3.233      865.758
12/27/2013  18:08:00       -1.185       49.280       69.418       22.988       30.239       16.634      528.443      914.420      276.697        0.448        0.086       49.294       16.009        0.105      333.744        3.258      865.717
12/27/2013  18:09:00       55.838       60.728       -2.459       38.513       31.624       20.083     1483.270     1000.094      403.318        0.485        0.144       82.498       15.177        0.034      333.708        3.200      865.727
12/27/2013  18:10:00      -73.129       12.890      -16.282       48.940       61.876       20.313     2395.118     3828.662      412.598        0.621        0.332       74.256       23.810        0.103      333.735        3.243      865.828
12/27/2013  18:11:00     -157.761      -83.249       -9.418       85.519       42.395       34.727     7313.414     1797.340     1205.977        2.111        0.516      178.379       21.163        0.014      333.651        3.103      865.936
12/27/2013  18:12:00      -98.226      -67.715       -3.337       78.563       64.492       34.433     6172.130     4159.245     1185.662        1.288        0.576      119.305       38.974        0.107      333.611        3.038      865.911
12/27/2013  18:13:00       98.477       67.545       20.209       57.625       44.916       31.491     3320.659     2017.461      991.689        1.050        0.316      119.415       25.251        0.045      333.715        3.211      865.731
12/27/2013  18:14:00       52.774       50.889       -8.015       60.993       37.399       28.958     3720.183     1398.719      838.551        0.570        0.298       73.313       22.410        0.093      333.646        3.098      865.654
12/27/2013  18:15:00      -34.597       16.033      -16.572       36.436       43.345       17.399     1327.568     1878.756      302.733        0.262        0.175       38.132       11.161        0.086      333.588        3.002      865.726
12/27/2013  18:16:00      -67.574       -4.633       -4.871       26.973       30.310       16.667      727.561      918.701      277.773        0.327        0.096       67.733       11.232        0.027      333.537        2.915      865.766
12/27/2013  18:17:00      -12.637      -26.760       -6.532       25.899       24.569       14.602      670.757      603.638      213.204        0.120        0.074       29.594       11.085        0.140      333.580        2.988      865.778
12/27/2013  18:18:00       -2.975      -36.819        6.361       35.990       24.622       28.475     1295.252      606.244      810.840        0.206        0.136       36.939       23.976        0.421      333.692        3.173      865.784
12/27/2013  18:19:00      -65.062      -13.617        0.013       20.085       30.240       10.903      403.405      914.463      118.866        0.293        0.072       66.471       10.527        0.025      333.584        2.994      865.755
12/27/2013  18:20:00      -45.337       43.745       -7.664       27.347       21.158       16.525      747.842      447.670      273.070        0.275        0.073       63.000       17.932        0.081      333.598        3.016      865.711
12/27/2013  18:21:00      -56.652       84.659      -16.550       31.724       23.321       16.692     1006.387      543.853      278.615        0.624        0.091      101.865       15.514        0.023      333.635        3.079      865.694
12/27/2013  18:22:00      -85.592       -7.381      -13.878       40.558       52.231       18.942     1644.979     2728.067      358.796        0.615        0.237       85.910       15.522        0.033      333.569        2.969      865.770
12/27/2013  18:23:00     -145.430     -138.440        5.291       99.483       81.209       53.170     9896.954     6594.898     2827.077        2.983        0.966      200.787       43.121        0.046      333.500        2.852      865.910
12/27/2013  18:24:00     -189.694     -125.393      -15.703       92.350       77.889       50.658     8528.479     6066.678     2566.221        3.455        0.858      227.393       25.709        0.013      333.444        2.759      865.948
12/27/2013  18:25:00      153.650      114.958       18.988      101.856       49.418       35.938    10374.680     2442.164     1291.515        2.564        0.705      191.895       30.571        0.025      333.519        2.885      865.804
12/27/2013  18:26:00      214.010      110.820       14.000       90.498       74.234       60.473     8189.910     5510.680     3657.040        3.781        0.868      241.000       49.968        0.043      333.465        2.794      865.631
12/27/2013  18:27:00       41.568       74.659       -1.641      115.813       71.794       60.561    13412.643     5154.410     3667.638        1.477        1.112       85.450       39.690        0.216      333.478        2.817      865.756
12/27/2013  18:28:00     -206.520     -136.851      -16.846       87.044       67.246       37.362     7576.688     4521.988     1395.935        3.758        0.675      247.748       14.610        0.003      333.632        3.069      865.993
12/27/2013  18:29:00     -177.224     -118.293       -0.627      103.409      109.176       69.162    10693.374    11919.496     4783.426        3.639        1.370      213.076       59.048        0.077      333.627        3.063      866.112
12/27/2013  18:30:00      -53.806      -51.666        7.885      120.452       94.568       37.750    14508.776     8943.016     1425.094        1.525        1.244       74.595       54.513        0.534      333.517        2.883      866.115
12/27/2013  18:31:00      125.287       73.240        7.213       67.780       33.248       38.601     4594.077     1105.411     1490.000        1.415        0.359      145.124       16.926        0.014      333.591        3.005      866.001
12/27/2013  18:32:00      146.293       84.732        6.785       50.651       29.625       33.515     2565.555      877.651     1123.236        1.660        0.228      169.059       10.786        0.004      333.664        3.126      865.982
12/27/2013  18:33:00       34.658       80.483       -8.057       41.192       33.392       21.530     1696.768     1115.037      463.552        0.551        0.164       87.629       14.529        0.027      333.573        2.976      866.046
12/27/2013  18:34:00      -80.250       20.799      -13.111       71.527       68.481       23.217     5116.107     4689.691      539.030        0.869        0.517       82.902       21.925        0.070      333.633        3.074      866.167
12/27/2013  18:35:00     -182.157     -103.505       -3.972       71.813       44.592       30.145     5157.086     1988.490      908.726        2.598        0.403      209.510       26.246        0.016      333.528        2.898      866.290
12/27/2013  18:36:00       10.234       -6.203       16.710       48.781       25.589       24.986     2379.633      654.792      624.321        0.204        0.183       11.967       28.499        5.672      333.654        3.110      866.295
12/27/2013  18:37:00      100.289       71.619       26.383       36.582       22.232       27.720     1338.211      494.253      768.371        0.924        0.130      123.236       23.690        0.037      333.616        3.048      866.153
12/27/2013  18:38:00       38.657       69.148       -8.482       55.300       50.722       37.285     3058.060     2572.762     1390.208        0.668        0.351       79.220       29.108        0.135      333.517        2.881      866.019
12/27/2013  18:39:00       16.250       66.156       -2.046       28.088       52.517       24.660      788.926     2758.032      608.135        0.440        0.208       68.122       26.943        0.156      333.582        2.990      866.023
12/27/2013  18:40:00       36.400       35.530        1.003       28.031       32.535       23.855      785.764     1058.541      569.045        0.250        0.121       50.866       25.596        0.253      333.676        3.147      866.054
12/27/2013  18:41:00       21.173       -1.258       16.680       34.186       20.818       27.484     1168.686      433.376      755.356        0.154        0.118       21.210        7.781        0.135      333.781        3.321      866.081
12/27/2013  18:42:00      -98.656      -51.073       -6.923       77.697       28.998       18.514     6036.896      840.868      342.759        0.980        0.361      111.092       17.114        0.024      333.761        3.287      866.178
12/27/2013  18:43:00     -111.912      -81.275        0.735      100.217       64.870       43.409    10043.360     4208.177     1884.383        1.763        0.807      138.312       39.496        0.082      333.694        3.175      866.255
12/27/2013  18:44:00      -89.840      -63.300        8.116       77.298       59.465       29.441     5975.033     3536.041      866.757        1.126        0.519      109.901       37.343        0.115      333.702        3.188      866.221
12/27/2013  18:45:00      148.240       83.822       27.178       83.411       32.059       43.293     6957.458     1027.798     1874.301        1.980        0.493      170.297       30.394        0.032      333.727        3.229      866.048
12/27/2013  18:46:00      135.683       68.667       34.911       84.862       58.692       41.458     7201.550     3444.737     1718.739        1.835        0.618      152.069       18.378        0.015      333.791        3.336      865.978
12/27/2013  18:47:00     -108.522      -48.919       -5.653       82.402       39.525       30.620     6790.049     1562.261      937.554        1.174        0.464      119.038       23.430        0.039      333.836        3.410      866.096
12/27/2013  18:48:00     -144.653     -143.698        9.316      119.721       91.127       60.294    14333.192     8304.059     3635.360        3.396        1.314      203.896       57.195        0.079      333.823        3.387      866.210
12/27/2013  18:49:00     -134.887     -103.921       -3.471       80.543       68.579       38.105     6487.244     4703.110     1452.002        2.082        0.632      170.277       28.371        0.028      333.835        3.408      866.240
12/27/2013  18:50:00       23.601       26.426        8.347       31.554       27.495       22.598      995.673      755.998      510.663        0.179        0.113       35.430       15.794        0.199      333.899        3.517      866.158
12/27/2013  18:51:00       53.921       39.459        5.471       32.181       30.404       21.530     1035.615      924.425      463.546        0.346        0.121       66.816       15.323        0.053      333.909        3.535      866.111
12/27/2013  18:52:00      -19.547        6.549      -10.698       18.183       17.275       14.588      330.619      298.434      212.809        0.069        0.042       20.615       10.251        0.247      333.887        3.498      866.155
12/27/2013  18:53:00      -63.525      -35.161       -2.774       60.993       30.421       27.910     3720.174      925.413      778.984        0.535        0.271       72.607       25.523        0.124      333.867        3.465      866.233
12/27/2013  18:54:00      -77.168      -53.036        0.657       54.653       32.946       20.749     2986.916     1085.409      430.523        0.663        0.225       93.636       23.212        0.061      333.827        3.397      866.289
12/27/2013  18:55:00      -64.194      -43.963       -0.206       27.236       30.588       15.350      741.791      935.631      235.629        0.398        0.096       77.805        7.574        0.009      333.850        3.436      866.321
12/27/2013  18:56:00        4.770       11.788       10.131       41.265       23.668       15.067     1702.792      560.171      227.018        0.138        0.124       12.717       14.965        1.385      333.893        3.505      866.327
12/27/2013  18:57:00       69.603       57.030       26.885       17.171       18.339       19.787      294.830      336.302      391.523        0.492        0.051       89.983        8.464        0.009      333.950        3.603      866.303
12/27/2013  18:58:00      103.715       76.405       50.273       39.888       32.775       34.617     1591.036     1074.177     1198.324        1.149        0.193      128.820        7.808        0.004      333.990        3.667      866.252
12/27/2013  18:59:00       75.180       79.521       82.487       42.581       44.108       29.519     1813.137     1945.521      871.377        1.170        0.232      109.433       26.803        0.060      333.920        3.552      866.229
12/27/2013  19:00:00       46.062       28.694       30.299       43.662       38.575       27.329     1906.380     1488.003      746.870        0.400        0.207       54.269       25.152        0.215      333.854        3.443      866.257
12/27/2013  19:01:00        8.575      -22.575       -9.629       29.716       24.036       12.306      883.053      577.744      151.431        0.114        0.081       24.148       10.664        0.195      333.943        3.589      866.319
12/27/2013  19:02:00        0.406      -12.752        3.974        8.368       22.408       14.946       70.024      502.114      223.369        0.049        0.040       12.758       14.524        1.296      333.991        3.667      866.349
12/27/2013  19:03:00       47.013       28.229       17.532       43.543       30.854       26.888     1896.017      951.957      722.977        0.344        0.179       54.837       18.155        0.110      333.945        3.594      866.314
12/27/2013  19:04:00       48.631       46.740       28.378       35.112       28.570       35.121     1232.838      816.226     1233.463        0.432        0.164       67.451       20.851        0.096      333.929        3.566      866.270
12/27/2013  19:05:00        4.810       53.835       67.642       29.015       36.445       18.819      841.895     1328.253      354.166        0.501        0.126       54.050       21.951        0.165      333.916        3.547      866.253
12/27/2013  19:06:00       80.566      -83.995       -1.476       34.090       46.329       25.915     1162.134     2146.347      671.601        0.876        0.199      116.388       29.139        0.063      333.963        3.623      866.259
12/27/2013  19:07:00       49.276      -47.551        3.014       28.402       20.748       15.335      806.673      430.469      235.174        0.309        0.074       68.478       11.043        0.026      333.992        3.672      866.264
12/27/2013  19:08:00        1.567      -37.299       11.394       25.517       14.611       15.323      651.135      213.491      234.801        0.131        0.055       37.332       12.742        0.116      333.959        3.617      866.285
12/27/2013  19:09:00      -19.550      -34.814        2.298       17.147       17.790       21.838      294.030      316.494      476.914        0.134        0.054       39.928       12.385        0.096      333.881        3.486      866.327
12/27/2013  19:10:00       18.220       24.783       49.678       31.296       31.369       28.653      979.449      984.000      820.991        0.310        0.139       30.760       23.514        0.584      333.912        3.540      866.310
12/27/2013  19:11:00       66.870       49.220       39.922       49.755       41.627       41.203     2475.595     1732.807     1697.709        0.720        0.295       83.031       28.723        0.120      333.892        3.507      866.233
12/27/2013  19:12:00       43.958       52.098       -1.147       49.943       31.292       25.753     2494.266      979.203      663.197        0.439        0.207       68.166       16.038        0.055      333.854        3.443      866.208
12/27/2013  19:13:00      -48.424       26.915      -10.396       33.330       50.280       15.693     1110.879     2528.113      246.273        0.353        0.194       55.401        7.474        0.018      333.767        3.297      866.277
12/27/2013  19:14:00     -119.810      -32.462       -6.496       39.781       61.213       26.371     1582.508     3747.052      695.416        1.074        0.301      124.130       16.089        0.017      333.490        2.837      866.352
12/27/2013  19:15:00      -70.671       17.016      -11.933       42.267       31.745       17.567     1786.477     1007.764      308.606        0.426        0.155       72.691        9.316        0.016      333.418        2.719      866.370
12/27/2013  19:16:00      -78.722        9.953      -11.190       25.221       24.807       14.484      636.123      615.364      209.778        0.394        0.073       79.348        9.923        0.016      333.363        2.628      866.360
12/27/2013  19:17:00      -29.908        4.524      -10.931       16.927       15.205       11.556      286.512      231.179      133.548        0.084        0.033       30.248        3.105        0.011      333.367        2.634      866.377
12/27/2013  19:18:00      -61.017       29.066       -5.691       35.852       26.373       21.247     1285.346      695.548      451.453        0.352        0.122       67.586       11.449        0.029      333.444        2.762      866.395
12/27/2013  19:19:00      -46.510        7.395       -8.349       18.260       19.610       12.458      333.436      384.566      155.194        0.158        0.044       47.094       11.049        0.055      333.415        2.715      866.381
12/27/2013  19:20:00      -52.555      -22.951      -10.028       22.432       25.690        8.976      503.186      659.970       80.571        0.232        0.062       57.348       10.647        0.034      333.421        2.725      866.371
12/27/2013  19:21:00      -79.083      -48.307       -1.028       56.871       30.864       19.714     3234.272      952.581      388.652        0.658        0.229       92.670       23.532        0.064      333.393        2.678      866.411
12/27/2013  19:22:00      -61.856      -48.757        2.900       50.955       38.401       27.929     2596.456     1474.616      780.053        0.553        0.243       78.762       31.657        0.162      333.429        2.738      866.421
12/27/2013  19:23:00      -10.012        4.231        9.794       17.661       15.377       11.126      311.900      236.456      123.788        0.044        0.034       10.869       11.588        1.137      333.421        2.725      866.368
12/27/2013  19:24:00      -23.842        7.337       -4.853       20.436        8.971        8.733      417.627       80.475       76.263        0.061        0.029       24.945        8.384        0.113      333.460        2.788      866.321
12/27/2013  19:25:00      -55.200      -32.673      -10.544       18.800       19.711       10.981      353.431      388.505      120.585        0.254        0.043       64.145        9.650        0.023      333.498        2.850      866.317
12/27/2013  19:26:00      -53.499      -33.628       -3.215       16.607       16.207       11.048      275.797      262.673      122.067        0.233        0.033       63.190        8.383        0.018      333.338        2.587      866.309
12/27/2013  19:27:00      -62.987      -45.089        0.436       32.417       20.465       17.183     1050.858      418.797      295.250        0.388        0.088       77.463       10.631        0.019      333.352        2.608      866.291
12/27/2013  19:28:00      -96.320      -91.318        0.247       55.836       47.105       27.452     3117.661     2218.915      753.586        1.185        0.305      132.727       26.786        0.041      333.461        2.789      866.308
12/27/2013  19:29:00      -82.291      -59.036       11.230       57.999       45.305       28.171     3363.925     2052.573      793.583        0.830        0.311      101.277       32.016        0.100      333.469        2.805      866.293
12/27/2013  19:30:00      -64.065      -41.877       -0.118       29.932       29.788       15.475      895.954      887.329      239.482        0.394        0.101       76.538       11.416        0.022      333.576        2.981      866.221
12/27/2013  19:31:00      -33.696        3.049        3.718       28.250       17.936       15.144      798.077      321.710      229.331        0.125        0.067       33.833       13.103        0.150      333.559        2.953      866.168
12/27/2013  19:32:00      -37.636       19.057       -8.616       24.576       15.813       14.128      604.003      250.067      199.612        0.145        0.053       42.186       14.032        0.111      333.400        2.690      866.155
12/27/2013  19:33:00      -42.017       15.842       -0.711       19.054       25.800       15.628      363.039      665.658      244.228        0.164        0.064       44.904        8.178        0.033      333.554        2.943      866.151
12/27/2013  19:34:00      -76.381      -22.939      -11.658       17.640       19.045       15.828      311.164      362.711      250.513        0.371        0.046       79.751       12.388        0.024      333.378        2.655      866.186
12/27/2013  19:35:00     -106.325      -56.403      -10.172       43.403       34.552       19.034     1883.805     1193.850      362.301        0.901        0.172      120.359       15.864        0.017      333.323        2.562      866.237
12/27/2013  19:36:00     -128.653      -36.446       -2.896       44.732       25.062       20.481     2000.949      628.127      419.475        1.047        0.152      133.715       17.427        0.017      333.350        2.607      866.260
12/27/2013  19:37:00      -84.438        9.605       -4.730       39.395       30.095       20.408     1551.940      905.707      416.502        0.506        0.144       84.983       15.154        0.032      333.397        2.685      866.242
12/27/2013  19:38:00      -50.489       28.414       -3.977       23.341       18.929       13.591      544.792      358.312      184.716        0.223        0.054       57.935        9.934        0.029      333.291        2.509      866.218
12/27/2013  19:39:00      -41.219      -16.894       -5.838       21.644       24.188       11.166      468.447      585.038      124.677        0.160        0.059       44.547        6.461        0.021      333.306        2.535      866.247
12/27/2013  19:40:00      -43.616      -26.290        1.462       34.156       22.658       16.107     1166.615      513.368      259.445        0.227        0.097       50.926       14.013        0.076      333.233        2.413      866.319
12/27/2013  19:41:00      -25.350       -3.439        1.983       38.568       29.232       12.508     1487.496      854.501      156.439        0.158        0.125       25.582       16.955        0.439      333.250        2.440      866.360
12/27/2013  19:42:00       19.204       32.531        6.320       24.735       17.145       11.207      611.798      293.940      125.589        0.125        0.052       37.777        9.913        0.069      333.249        2.438      866.341
12/27/2013  19:43:00       19.847       53.264       -2.409       16.554       19.299       15.470      274.038      372.448      239.336        0.206        0.044       56.841       10.581        0.035      333.258        2.454      866.314
12/27/2013  19:44:00       -7.261       38.233      -10.382       22.209       21.137        8.482      493.226      446.768       71.945        0.132        0.051       38.916        6.781        0.030      333.368        2.637      866.347
12/27/2013  19:45:00      -39.927      -24.164       -7.260       23.948       16.778       16.179      573.523      281.515      261.759        0.167        0.056       46.670       11.015        0.056      333.351        2.608      866.408
12/27/2013  19:46:00      -28.524      -21.793        2.683       12.568       14.353        9.049      157.948      206.000       81.884        0.087        0.022       35.896        5.718        0.025      333.241        2.427      866.445
12/27/2013  19:47:00      -46.666      -35.231       -7.143       18.680        7.857        8.723      348.945       61.740       76.082        0.198        0.024       58.471        7.448        0.016      333.256        2.450      866.444
12/27/2013  19:48:00      -77.538      -38.199       -9.017       19.242       10.122       10.018      370.245      102.450      100.361        0.406        0.029       86.437        9.069        0.011      333.069        2.142      866.455
12/27/2013  19:49:00      -48.172       -7.117      -10.217        8.441       14.829        7.747       71.247      219.905       60.016        0.141        0.018       48.695        3.757        0.006      333.104        2.200      866.458
12/27/2013  19:50:00      -37.073       -6.137       -1.586        9.222        9.687        8.754       85.039       93.837       76.641        0.084        0.013       37.578        5.941        0.025      333.123        2.232      866.435
12/27/2013  19:51:00      -49.170      -10.547       -2.800       12.584       10.536        8.756      158.363      111.007       76.659        0.144        0.017       50.289        7.043        0.020      333.193        2.345      866.400
12/27/2013  19:52:00      -65.303      -19.315       -8.219       15.354        8.725        7.286      235.738       76.120       53.086        0.253        0.018       68.099        2.768        0.002      333.270        2.474      866.359
12/27/2013  19:53:00      -37.581      -17.655       -9.421       14.251       11.025        7.683      203.104      121.545       59.027        0.110        0.019       41.522        5.907        0.020      333.148        2.272      866.321
12/27/2013  19:54:00      -45.026      -25.838       -5.308       12.774        8.357        8.084      163.170       69.839       65.352        0.151        0.015       51.913        5.548        0.011      333.139        2.257      866.303
12/27/2013  19:55:00      -67.590      -40.372       -6.441       12.635       11.197        8.964      159.651      125.383       80.361        0.330        0.018       78.729        6.435        0.007      333.068        2.141      866.314
12/27/2013  19:56:00      -55.940      -28.700       -2.987       21.645       15.985       11.253      468.497      255.506      126.634        0.241        0.043       62.873       11.131        0.031      332.949        1.943      866.321
12/27/2013  19:57:00      -99.247      -37.185       -9.274       13.521       20.163        7.729      182.810      406.529       59.738        0.598        0.032      105.984        6.813        0.004      333.001        2.029      866.303
12/27/2013  19:58:00      -87.601      -42.151        4.321       36.264       21.245       12.506     1315.066      451.349      156.396        0.570        0.096       97.214       13.859        0.020      332.988        2.009      866.277
12/27/2013  19:59:00      -94.850      -57.292       -0.829       36.281       24.657       18.524     1316.304      607.985      343.152        0.727        0.113      110.810       18.792        0.029      333.058        2.126      866.271
12/27/2013  20:00:00     -103.833      -18.882       -4.207       30.421       16.946       14.965      925.461      287.172      223.965        0.630        0.072      105.536       14.079        0.018      332.908        1.876      866.297
12/27/2013  20:01:00     -101.509      -32.075       -3.135       28.804       19.045       14.752      829.646      362.725      217.614        0.638        0.070      106.456       12.075        0.013      332.923        1.901      866.306
12/27/2013  20:02:00      -91.319      -13.855       -4.490       21.559       17.235       12.045      464.776      297.036      145.072        0.473        0.045       92.364        8.442        0.008      332.955        1.952      866.291
12/27/2013  20:03:00      -90.877      -20.173        1.777       36.416       27.206       18.340     1326.156      740.179      336.356        0.554        0.120       93.089       17.634        0.036      332.833        1.754      866.283
12/27/2013  20:04:00     -122.025      -16.820       -1.224       35.309       28.915       21.474     1246.694      836.059      461.142        0.886        0.127      123.179       19.488        0.025      332.799        1.697      866.272
12/27/2013  20:05:00     -102.538      -22.902       -7.605       41.679       23.458       14.044     1737.164      550.281      197.226        0.679        0.124      105.064       16.092        0.023      332.708        1.547      866.273
12/27/2013  20:06:00      -55.756        7.696       -1.670       25.114       28.007       16.105      630.723      784.388      259.379        0.242        0.084       56.284        9.476        0.028      332.735        1.591      866.271
12/27/2013  20:07:00      -80.596       -4.645      -16.731       17.069       28.075       12.606      291.355      788.206      158.899        0.402        0.062       80.730       13.707        0.029      332.821        1.735      866.250
12/27/2013  20:08:00      -87.926        0.312      -12.022       39.071       35.324       17.516     1526.525     1247.785      306.796        0.548        0.154       87.926       14.233        0.026      332.769        1.647      866.235
12/27/2013  20:09:00      -66.154      -31.946        0.627       38.645       32.123       23.456     1493.459     1031.869      550.163        0.424        0.154       73.463       20.159        0.075      332.654        1.457      866.263
12/27/2013  20:10:00     -116.097      -60.615       -6.005       46.254       28.148       20.360     2139.394      792.319      414.543        1.027        0.167      130.968       14.271        0.012      332.605        1.376      866.288
12/27/2013  20:11:00     -113.810      -36.332       -9.930       47.559       36.992       20.957     2261.831     1368.432      439.177        0.922        0.203      119.469       21.187        0.031      332.607        1.379      866.301
12/27/2013  20:12:00     -113.546        8.403       -3.274       32.795       19.092       18.108     1075.532      364.491      327.896        0.737        0.088      113.857       17.102        0.023      332.685        1.509      866.301
12/27/2013  20:13:00     -108.364        5.505      -14.993       17.224       16.888       10.655      296.662      285.207      113.536        0.635        0.035      108.504       10.002        0.008      332.646        1.444      866.293
12/27/2013  20:14:00     -141.404      -28.002      -11.319       23.825       20.329       15.535      567.634      413.279      241.331        1.106        0.061      144.150       11.721        0.007      332.731        1.585      866.312
12/27/2013  20:15:00     -117.967      -37.700       -9.152       22.736       35.895       18.350      516.912     1288.428      336.711        0.878        0.107      123.845       13.120        0.011      332.670        1.483      866.330
12/27/2013  20:16:00      -92.242        9.056       -9.293       37.639       24.772       19.237     1416.675      613.667      370.078        0.554        0.120       92.685       15.716        0.029      332.593        1.357      866.334
12/27/2013  20:17:00      -70.363       -4.462       -4.363       30.021       24.861       13.242      901.253      618.089      175.361        0.334        0.085       70.504       10.303        0.021      332.581        1.336      866.323
12/27/2013  20:18:00     -133.009      -25.507       -8.563       28.336       27.434       18.317      802.937      752.632      335.504        1.015        0.095      135.432       13.392        0.010      332.659        1.466      866.345
12/27/2013  20:19:00     -106.457      -10.577        0.009       56.307       33.413       26.397     3170.484     1116.411      696.797        0.821        0.249      106.981       26.680        0.062      332.529        1.251      866.351
12/27/2013  20:20:00      -46.828        1.577       -1.348       34.245       25.277       16.968     1172.751      638.940      287.905        0.215        0.105       46.855       14.731        0.099      332.487        1.179      866.308
12/27/2013  20:21:00      -74.309       17.841       -6.058       35.705       25.860       18.733     1274.854      668.732      350.925        0.409        0.115       76.420        7.996        0.011      332.717        1.562      866.259
12/27/2013  20:22:00     -102.033      -25.853      -13.300       30.533       34.902       17.997      932.267     1218.142      323.881        0.686        0.124      105.257       14.141        0.018      332.645        1.441      866.262
12/27/2013  20:23:00     -111.235      -27.087        2.669       31.962       37.065       22.274     1021.546     1373.797      496.136        0.800        0.145      114.485       20.707        0.033      332.472        1.156      866.281
12/27/2013  20:24:00      -70.585       -5.436       -8.253       16.648       23.413       16.162      277.162      548.149      261.198        0.308        0.054       70.794        7.212        0.010      332.399        1.036      866.280
12/27/2013  20:25:00      -87.441       -4.605       -9.271       15.916       16.387        9.976      253.330      268.518       99.515        0.419        0.031       87.562        7.434        0.007      332.393        1.026      866.261
12/27/2013  20:26:00     -113.950      -13.567       -9.399       23.599       18.842       16.877      556.891      355.025      284.830        0.723        0.060      114.755       14.756        0.017      332.455        1.128      866.239
12/27/2013  20:27:00      -85.809      -16.354       -7.120       26.363       27.977       15.875      695.013      782.726      252.017        0.471        0.086       87.354       13.806        0.025      332.326        0.916      866.208
12/27/2013  20:28:00      -61.525      -29.158       -2.888       30.699       23.779       20.150      942.458      565.440      406.032        0.328        0.096       68.085       20.672        0.092      332.379        1.002      866.192
12/27/2013  20:29:00      -34.379      -40.546       -4.860       48.328       18.119       13.996     2335.640      328.287      195.893        0.285        0.143       53.159       19.076        0.129      332.438        1.101      866.186
12/27/2013  20:30:00       13.158      -19.260       13.812       18.787       19.235       11.113      352.933      369.993      123.503        0.079        0.042       23.325        8.537        0.134      332.470        1.154      866.162
12/27/2013  20:31:00        6.391       15.740       -8.754       18.823       12.831       11.827      354.312      164.637      139.879        0.051        0.033       16.988        8.859        0.272      332.591        1.353      866.133
12/27/2013  20:32:00      -49.269       -5.826       -5.540       11.886       10.650       11.740      141.285      113.424      137.829        0.144        0.020       49.612        9.047        0.033      332.605        1.378      866.106
12/27/2013  20:33:00      -68.942       -7.414       -5.050       19.085        9.488       11.767      364.232       90.028      138.466        0.271        0.030       69.340       10.516        0.023      332.494        1.192      866.086
12/27/2013  20:34:00      -66.838        0.214       -5.143       25.242       18.577       14.099      637.165      345.100      198.770        0.284        0.059       66.838       15.167        0.051      332.411        1.056      866.096
12/27/2013  20:35:00      -39.719       -5.982       -4.641       22.279       12.418       10.517      496.367      154.207      110.602        0.120        0.038       40.167        9.919        0.061      332.442        1.105      866.105
12/27/2013  20:36:00      -75.469      -42.045       -7.990       22.343       16.292       11.132      499.189      265.418      123.925        0.421        0.044       86.390        8.139        0.009      332.457        1.133      866.104
12/27/2013  20:37:00      -72.256      -34.609       -5.084       25.039       22.112       13.077      626.943      488.946      171.000        0.387        0.064       80.117        5.947        0.006      332.359        0.969      866.120
12/27/2013  20:38:00      -19.252      -13.767        2.129       22.921       14.129        9.309      525.390      199.618       86.665        0.069        0.041       23.668        3.092        0.017      332.475        1.161      866.150
12/27/2013  20:39:00      -27.718       -3.689       12.586       11.051       15.947       12.040      122.134      254.322      144.968        0.073        0.026       27.962        8.667        0.096      332.554        1.292      866.144
12/27/2013  20:40:00      -22.363      -12.294       12.936       20.662       29.798       11.394      426.911      887.925      129.832        0.113        0.072       25.519        5.708        0.050      332.779        1.664      866.112
12/27/2013  20:41:00      -54.044       -2.899       -6.347       13.657       16.646       10.241      186.504      277.082      104.886        0.177        0.028       54.122        5.856        0.012      332.584        1.342      866.099
12/27/2013  20:42:00      -50.848      -32.148       -4.807       25.553       17.749       12.398      652.944      315.025      153.701        0.238        0.056       60.159        9.846        0.027      332.457        1.130      866.104
12/27/2013  20:43:00      -75.202      -38.202       -5.159       24.864       24.006       14.984      618.207      576.277      224.529        0.428        0.071       84.349        7.681        0.008      332.333        0.926      866.144
12/27/2013  20:44:00      -42.740      -26.896        6.895       38.196       29.636       19.009     1458.923      878.283      361.328        0.265        0.135       50.498       19.288        0.146      332.358        0.968      866.184
12/27/2013  20:45:00       -8.695      -22.265       12.511       13.056       17.738       11.709      170.451      314.650      137.106        0.067        0.031       23.902        9.629        0.162      332.445        1.113      866.192
12/27/2013  20:46:00      -43.635      -43.571       -3.396       19.952       18.326       11.020      398.067      335.830      121.436        0.233        0.043       61.664        5.692        0.009      332.512        1.221      866.196
12/27/2013  20:47:00      -49.816      -32.579        0.289       21.147       17.185       11.223      447.209      295.322      125.966        0.221        0.043       59.523        7.074        0.014      332.387        1.016      866.203
12/27/2013  20:48:00      -68.940      -46.813       -2.112       29.481       19.044       14.070      869.120      362.681      197.957        0.419        0.071       83.332       11.411        0.019      332.356        0.965      866.211
12/27/2013  20:49:00      -28.226      -33.040        5.427       36.875       25.380       16.956     1359.758      644.139      287.505        0.210        0.115       43.455       16.094        0.137      332.407        1.048      866.231
12/27/2013  20:50:00       -2.217      -28.732       15.088       30.747       22.886       18.074      945.372      523.778      326.657        0.143        0.090       28.817       19.531        0.459      332.414        1.061      866.237
12/27/2013  20:51:00      -37.037      -24.702       10.197       31.075       23.368       16.271      965.641      546.056      264.748        0.193        0.089       44.519       15.386        0.119      332.374        0.994      866.234
12/27/2013  20:52:00      -50.496      -49.982        7.282       37.114       29.397       15.747     1377.481      864.168      247.979        0.379        0.124       71.050       13.244        0.035      332.453        1.125      866.211
12/27/2013  20:53:00      -40.997      -32.070       -0.530       39.046       19.521       13.179     1524.621      381.068      173.677        0.239        0.104       52.051        9.150        0.031      332.415        1.063      866.182
12/27/2013  20:54:00      -16.593        1.451        4.617       22.894       17.621        9.043      524.129      310.514       81.780        0.061        0.046       16.657       10.110        0.368      332.448        1.117      866.145
12/27/2013  20:55:00      -79.662       14.479       -3.101       18.335       18.945        6.769      336.173      358.922       45.819        0.365        0.037       80.967        4.143        0.003      332.413        1.059      866.117
12/27/2013  20:56:00      -92.006        2.891      -14.257       16.377        9.456        8.777      268.216       89.407       77.040        0.456        0.022       92.051        5.203        0.003      332.421        1.073      866.112
12/27/2013  20:57:00      -69.619      -26.666       -2.849       38.230       19.839       15.176     1461.547      393.580      230.324        0.383        0.104       74.551       20.385        0.075      332.409        1.052      866.122
12/27/2013  20:58:00      -89.334      -26.955       -1.515       28.230       22.320       14.808      796.910      498.200      219.266        0.511        0.076       93.312       12.813        0.019      332.359        0.968      866.138
12/27/2013  20:59:00      -75.973      -26.356       -0.830       33.317       29.377       16.546     1110.043      862.983      273.772        0.436        0.112       80.415       17.559        0.048      332.311        0.891      866.164
12/27/2013  21:00:00      -75.873      -43.065        1.109       26.046       27.335       12.402      678.381      747.211      153.806        0.460        0.079       87.243        8.567        0.010      332.330        0.924      866.189
12/27/2013  21:01:00      -66.001      -16.654        0.700       32.699       22.736       18.350     1069.217      516.944      336.723        0.328        0.096       68.070       19.646        0.083      332.324        0.912      866.201
12/27/2013  21:02:00      -52.813       -3.990        1.504       19.870       13.991        9.028      394.820      195.742       81.500        0.174        0.034       52.963        9.362        0.031      332.258        0.805      866.200
12/27/2013  21:03:00      -17.187       -6.977        5.204       16.619       13.079        8.135      276.197      171.060       66.186        0.044        0.026       18.549        8.341        0.202      332.286        0.850      866.207
12/27/2013  21:04:00      -19.063      -12.886       -4.856       13.670       13.475        7.105      186.859      181.587       50.478        0.049        0.021       23.010        4.632        0.041      332.388        1.017      866.216
12/27/2013  21:05:00      -55.193        0.154      -13.136       13.668        8.914        7.378      186.802       79.462       54.430        0.177        0.016       55.193        4.353        0.006      332.411        1.057      866.217
12/27/2013  21:06:00      -84.508      -15.957      -12.839       10.241        9.095        6.257      104.882       82.714       39.148        0.389        0.011       86.002        2.378        0.001      332.461        1.138      866.226
12/27/2013  21:07:00      -80.803      -36.873       -1.206       25.668       16.249       11.225      658.833      264.033      125.997        0.447        0.052       88.819       11.498        0.017      332.389        1.019      866.249
12/27/2013  21:08:00      -82.302      -11.880       -3.191       25.449       14.992        7.518      647.630      224.766       56.516        0.393        0.046       83.155        7.506        0.008      332.358        0.968      866.249
12/27/2013  21:09:00       -9.519        3.020        2.506       11.882       11.341        9.429      141.177      128.625       88.913        0.023        0.018        9.987        8.850        0.785      332.281        0.841      866.242
12/27/2013  21:10:00      -61.702       -9.241      -10.389       13.214       16.112        6.572      174.610      259.590       43.193        0.224        0.024       62.390        5.151        0.007      332.300        0.873      866.245
12/27/2013  21:11:00      -69.557      -16.565       -8.254       16.098       16.604       10.223      259.151      275.703      104.513        0.291        0.032       71.502        8.267        0.013      332.267        0.820      866.239
12/27/2013  21:12:00      -64.344        6.769      -12.966       11.401       11.555        9.118      129.976      133.527       83.130        0.235        0.017       64.699        2.819        0.002      332.193        0.697      866.213
12/27/2013  21:13:00      -72.145        3.011      -15.199       13.102        9.898        9.876      171.664       97.970       97.539        0.291        0.018       72.208        7.505        0.011      332.192        0.696      866.199
12/27/2013  21:14:00      -99.519      -21.951       -9.955       15.175       14.745        9.914      230.292      217.428       98.296        0.552        0.027      101.911        6.184        0.004      332.183        0.681      866.193
12/27/2013  21:15:00     -108.621      -22.340      -11.522       10.851       11.103        8.068      117.744      123.268       65.092        0.637        0.015      110.895        4.413        0.002      332.221        0.745      866.191
12/27/2013  21:16:00      -99.563       -5.746      -13.233       15.136       13.563        9.811      229.112      183.952       96.258        0.532        0.025       99.729        8.235        0.007      332.035        0.435      866.179
12/27/2013  21:17:00     -109.735      -12.924      -11.750       24.411       17.395       11.431      595.885      302.584      130.661        0.669        0.051      110.494        8.094        0.005      331.936        0.272      866.162
12/27/2013  21:18:00     -123.347       -9.897      -13.757       22.206       15.108       12.104      493.097      228.249      146.514        0.818        0.043      123.743       11.373        0.008      331.919        0.244      866.141
12/27/2013  21:19:00     -120.531      -20.734      -10.464       30.350       16.628       15.924      921.098      276.494      253.567        0.826        0.073      122.301       12.489        0.010      331.860        0.146      866.124
12/27/2013  21:20:00      -96.218      -20.290       -1.537       28.298       19.794       17.779      800.791      391.789      316.090        0.559        0.075       98.334       15.228        0.024      331.747       -0.037      866.116
12/27/2013  21:21:00      -96.488      -12.070       -5.860       34.418       18.932       17.582     1184.574      358.419      309.123        0.567        0.093       97.240       16.965        0.030      331.772        0.004      866.107
12/27/2013  21:22:00      -54.910        2.562       -1.119       44.975       24.241       19.309     2022.740      587.620      372.823        0.300        0.149       54.970       20.265        0.136      331.711       -0.097      866.092
12/27/2013  21:23:00      -23.538        3.874        2.602       35.964       27.064       22.229     1293.408      732.460      494.121        0.155        0.126       23.855       21.285        0.796      331.745       -0.041      866.100
12/27/2013  21:24:00       -9.498      -21.458        5.045       30.506       21.885       17.199      930.603      478.970      295.814        0.114        0.085       23.467       14.702        0.392      331.775        0.009      866.104
12/27/2013  21:25:00      -40.168      -33.468        7.725       31.081       22.059       17.303      966.014      486.605      299.377        0.227        0.088       52.283       13.805        0.070      331.715       -0.091      866.090
12/27/2013  21:26:00      -34.007       -5.393       -3.567       19.314       11.085       12.234      373.036      122.878      149.681        0.092        0.032       34.432        7.330        0.045      331.670       -0.164      866.072
12/27/2013  21:27:00      -15.457        2.075       -0.640       13.950        9.631        8.955      194.604       92.749       80.197        0.031        0.018       15.595        9.603        0.379      331.828        0.096      866.053
12/27/2013  21:28:00       15.587       27.676       -4.166        8.364       10.379        5.655       69.956      107.723       31.976        0.062        0.010       31.763        4.910        0.024      331.973        0.335      866.048
12/27/2013  21:29:00       13.807       10.370        2.602        6.819       12.643       12.818       46.500      159.858      164.305        0.034        0.019       17.268        4.008        0.054      332.067        0.489      866.039
12/27/2013  21:30:00       16.249       12.796        6.143        9.577        6.920        8.253       91.722       47.889       68.113        0.034        0.010       20.683        6.114        0.087      331.933        0.269      866.034
12/27/2013  21:31:00        4.408       17.047       -1.765        6.257        8.378        5.792       39.147       70.198       33.547        0.023        0.007       17.608        2.932        0.028      331.904        0.219      866.032
12/27/2013  21:32:00        6.139        5.391       -0.139        3.068        4.868        3.797        9.414       23.698       14.415        0.006        0.002        8.170        3.050        0.139      331.909        0.227      866.017
12/27/2013  21:33:00        4.774       14.957        5.527        5.351        6.442        7.033       28.637       41.502       49.460        0.020        0.006       15.701        4.988        0.101      331.870        0.162      866.005
12/27/2013  21:34:00       11.614       17.820       -2.000        7.707        3.774        4.835       59.396       14.247       23.379        0.028        0.005       21.271        4.648        0.048      332.026        0.423      865.985
12/27/2013  21:35:00      -39.397       -8.428       -9.715       19.852       11.192        9.170      394.095      125.265       84.083        0.116        0.030       40.288       12.284        0.093      331.787        0.028      865.979
12/27/2013  21:36:00      -62.344      -25.868       -8.420        9.906        7.926        5.734       98.127       62.821       32.880        0.241        0.010       67.497        5.459        0.007      331.773        0.005      865.969
12/27/2013  21:37:00      -70.544      -20.069      -11.178        9.531        9.919        6.112       90.847       98.378       37.351        0.287        0.011       73.343        5.039        0.005      331.730       -0.066      865.942
12/27/2013  21:38:00      -78.353       -3.860      -12.468        9.875       10.467        8.244       97.515      109.549       67.964        0.329        0.014       78.448        4.566        0.003      331.678       -0.152      865.921
12/27/2013  21:39:00     -105.351       -2.840      -11.963       16.459       10.195       13.155      270.914      103.936      173.065        0.590        0.027      105.390        4.758        0.002      331.656       -0.187      865.892
12/27/2013  21:40:00      -61.007      -10.046      -12.840       15.100        7.157        9.578      228.006       51.223       91.747        0.218        0.019       61.828        7.497        0.015      331.728       -0.069      865.862
12/27/2013  21:41:00      -52.740      -24.597      -10.055        8.694       10.181        7.849       75.585      103.643       61.608        0.186        0.012       58.194        5.126        0.008      331.621       -0.246      865.836
12/27/2013  21:42:00      -50.695      -22.268       -6.461       17.679       15.207       11.383      312.564      231.263      129.573        0.189        0.034       55.370        7.905        0.020      331.604       -0.273      865.812
12/27/2013  21:43:00      -89.673      -39.160       -8.701       14.169       14.149        9.678      200.761      200.194       93.660        0.507        0.025       97.850        7.111        0.005      331.527       -0.399      865.790
12/27/2013  21:44:00     -109.713      -39.402      -19.022       18.765       15.354       10.483      352.139      235.745      109.893        0.732        0.035      116.574        8.544        0.005      331.515       -0.422      865.769
12/27/2013  21:45:00     -134.451      -16.945      -20.148       14.745       14.366       10.843      217.400      206.374      117.571        0.966        0.027      135.514        3.758        0.001      331.578       -0.317      865.748
12/27/2013  21:46:00     -148.284      -30.874      -17.020       16.515       13.276        9.767      272.730      176.243       95.386        1.189        0.027      151.464        6.468        0.002      331.611       -0.262      865.737
12/27/2013  21:47:00     -139.818      -23.715      -21.921       13.987       14.495       11.552      195.650      210.112      133.445        1.057        0.027      141.815        7.050        0.002      331.604       -0.273      865.733
12/27/2013  21:48:00     -119.304       -2.623      -11.474       34.435       17.089       17.467     1185.776      292.018      305.079        0.808        0.089      119.333       18.835        0.025      331.543       -0.376      865.729
12/27/2013  21:49:00      -82.263       -9.299        0.881       34.843       29.766       24.317     1214.002      886.031      591.317        0.477        0.135       82.787       21.529        0.068      331.498       -0.449      865.724
12/27/2013  21:50:00      -51.005      -27.229       -4.466       38.569       34.370       19.797     1487.593     1181.284      391.932        0.321        0.153       57.818       17.682        0.094      331.513       -0.424      865.728
12/27/2013  21:51:00      -45.074      -41.204        3.203       31.115       21.320       17.090      968.117      454.521      292.058        0.273        0.086       61.069       18.770        0.094      331.548       -0.366      865.755
12/27/2013  21:52:00      -96.927      -13.532       -8.086       17.135       13.262       11.161      293.621      175.885      124.574        0.512        0.030       97.867        9.499        0.009      331.583       -0.308      865.766
12/27/2013  21:53:00     -102.480       -0.798      -11.632       12.350        9.280        8.807      152.532       86.121       77.563        0.548        0.016      102.483        6.196        0.004      331.682       -0.146      865.771
12/27/2013  21:54:00      -92.184       -5.404       -9.967       15.376       11.331        6.804      236.409      128.402       46.292        0.452        0.021       92.343        2.427        0.001      331.648       -0.201      865.765
12/27/2013  21:55:00      -91.224      -12.379       -6.215       18.945       15.089       12.017      358.928      227.663      144.399        0.462        0.037       92.060        8.789        0.009      331.582       -0.311      865.759
12/27/2013  21:56:00     -107.235      -16.620       -7.425       28.795       13.914       13.787      829.170      193.609      190.077        0.652        0.061      108.516       14.458        0.018      331.593       -0.292      865.740
12/27/2013  21:57:00      -61.753      -18.226       -3.623       37.543       25.387       18.234     1409.444      644.502      332.482        0.327        0.119       64.386       18.138        0.079      331.546       -0.368      865.723
12/27/2013  21:58:00     -101.719       10.156      -10.312       30.238       36.764       23.113      914.342     1351.566      534.206        0.668        0.140      102.225       18.650        0.033      331.702       -0.112      865.721
12/27/2013  21:59:00      -83.525       23.269       -6.188       43.890       33.290       20.968     1926.326     1108.248      439.676        0.551        0.174       86.705       22.888        0.070      331.692       -0.128      865.743
12/27/2013  22:00:00     -106.352       -3.943       -1.917       35.587       24.179       17.716     1266.404      584.645      313.854        0.675        0.108      106.425       17.122        0.026      331.656       -0.188      865.782
12/27/2013  22:01:00      -85.444      -43.492       -3.296       17.798       18.920       15.809      316.753      357.961      249.934        0.506        0.046       95.876       10.184        0.011      331.631       -0.228      865.826
12/27/2013  22:02:00      -53.788      -23.695       -0.328       18.252       16.297       13.431      333.123      265.596      180.404        0.212        0.039       58.775        8.953        0.023      331.638       -0.216      865.845
12/27/2013  22:03:00      -76.258       -3.835       -9.801       19.046       12.528       10.631      362.737      156.959      113.008        0.328        0.032       76.355        6.450        0.007      331.598       -0.283      865.830
12/27/2013  22:04:00      -60.685       -9.625       -6.544       18.973       12.423        9.200      359.968      154.326       84.646        0.221        0.030       61.444        8.474        0.019      331.598       -0.285      865.816
12/27/2013  22:05:00      -56.180      -16.236       -7.673       11.014       11.441        6.495      121.312      130.898       42.181        0.189        0.015       58.479        6.423        0.012      331.629       -0.232      865.797
12/27/2013  22:06:00      -66.027      -33.577       -5.667       27.242       18.630       11.440      742.104      347.070      130.870        0.337        0.061       74.074       10.990        0.022      331.606       -0.270      865.786
12/27/2013  22:07:00     -100.672      -30.033      -10.644       19.162       20.868       16.693      367.182      435.459      278.640        0.612        0.054      105.056       12.630        0.014      331.545       -0.371      865.774
12/27/2013  22:08:00      -76.068      -37.968      -13.200       16.612       16.039       16.762      275.947      257.236      280.955        0.411        0.041       85.017        4.703        0.003      331.523       -0.408      865.766
12/27/2013  22:09:00      -92.269      -32.328       -7.676       14.919       15.824        8.646      222.562      250.387       74.760        0.508        0.027       97.768        2.777        0.001      331.538       -0.383      865.755
12/27/2013  22:10:00      -97.512      -15.399       -8.840       20.542       15.839       16.606      421.994      250.882      275.765        0.539        0.047       98.720       13.185        0.018      331.504       -0.439      865.750
12/27/2013  22:11:00     -113.762      -30.011       -1.960       22.222       21.548       15.797      493.827      464.313      249.530        0.753        0.060      117.654       12.365        0.011      331.462       -0.508      865.771
12/27/2013  22:12:00     -119.129      -51.560       -0.107       30.293       24.820       18.040      917.650      616.057      325.451        0.935        0.093      129.808       16.909        0.017      331.453       -0.522      865.792
12/27/2013  22:13:00     -107.078      -42.784        1.827       27.041       21.223       15.734      731.202      450.397      247.564        0.736        0.071      115.309       13.867        0.014      331.445       -0.536      865.788
12/27/2013  22:14:00      -75.210      -41.040        2.365       44.051       24.801       18.399     1940.459      615.096      338.537        0.512        0.145       85.679       15.673        0.033      331.398       -0.612      865.776
12/27/2013  22:15:00      -99.093      -53.294       -0.722       32.713       26.820       18.380     1070.162      719.330      337.815        0.739        0.106      112.516       14.894        0.018      331.412       -0.589      865.766
12/27/2013  22:16:00     -110.213      -28.414       -3.522       31.275       25.731       17.919      978.103      662.075      321.105        0.746        0.098      113.816       13.685        0.014      331.444       -0.537      865.750
12/27/2013  22:17:00     -136.007      -41.276       -4.090       31.511       21.536       14.993      992.923      463.820      224.777        1.095        0.084      142.132       14.269        0.010      331.387       -0.632      865.728
12/27/2013  22:18:00     -122.716      -39.849       -4.724       30.902       29.771       19.831      954.941      886.328      393.260        0.945        0.112      129.024       17.066        0.017      331.330       -0.724      865.695
12/27/2013  22:19:00     -157.548      -41.330      -14.018       36.542       30.848       19.311     1335.343      951.612      372.905        1.469        0.133      162.879       19.321        0.014      331.277       -0.811      865.668
12/27/2013  22:20:00     -116.759      -62.886       -7.393       40.759       29.766       22.184     1661.289      886.012      492.145        1.034        0.152      132.617       24.462        0.034      331.302       -0.770      865.653
12/27/2013  22:21:00     -111.470      -47.755       -1.694       37.188       27.769       16.146     1382.932      771.142      260.707        0.856        0.121      121.269       16.167        0.018      331.351       -0.691      865.658
12/27/2013  22:22:00     -108.387      -46.425        3.926       45.278       29.489       21.310     2050.131      869.614      454.118        0.865        0.169      117.911       20.445        0.030      331.426       -0.566      865.660
12/27/2013  22:23:00      -97.763      -44.532      -10.650       40.626       35.456       22.966     1650.431     1257.117      527.459        0.754        0.172      107.428       12.391        0.013      331.468       -0.499      865.648
12/27/2013  22:24:00     -135.506      -89.943       -4.940       31.352       28.423       23.303      982.975      807.893      543.041        1.440        0.117      162.639       18.940        0.014      331.430       -0.559      865.610
12/27/2013  22:25:00     -108.925      -86.466      -13.186       48.996       26.989       24.052     2400.601      728.404      578.475        1.161        0.185      139.072       22.612        0.026      331.407       -0.600      865.601
12/27/2013  22:26:00     -152.702      -50.200      -13.275       33.018       22.290       23.500     1090.193      496.841      552.272        1.408        0.107      160.741       17.797        0.012      331.381       -0.640      865.606
12/27/2013  22:27:00     -168.701      -58.540      -12.819       28.057       27.032       16.787      787.173      730.705      281.797        1.693        0.090      178.569       13.608        0.006      331.412       -0.590      865.601
12/27/2013  22:28:00     -207.657      -58.478       -3.857       60.615       39.322       31.159     3674.226     1546.220      970.902        2.637        0.310      215.734       29.819        0.019      331.316       -0.749      865.586
12/27/2013  22:29:00     -209.352      -78.410      -12.537       47.008       47.751       31.991     2209.732     2280.117     1023.411        2.782        0.276      223.554       23.028        0.011      331.275       -0.817      865.580
12/27/2013  22:30:00      -68.051       -2.732        6.263       71.796       49.379       37.231     5154.697     2438.285     1386.142        0.683        0.449       68.106       34.655        0.259      331.318       -0.744      865.578
12/27/2013  22:31:00     -143.759       21.523      -15.598       27.433       33.379       21.829      752.562     1114.159      476.504        1.186        0.117      145.361       16.798        0.013      331.263       -0.834      865.552
12/27/2013  22:32:00     -131.782       31.005       -9.957       38.281       23.055       24.730     1465.408      531.517      611.590        1.052        0.130      135.380       24.443        0.033      331.270       -0.822      865.501
12/27/2013  22:33:00     -115.723       18.781       -7.627       36.332       40.024       19.189     1319.978     1601.909      368.211        0.855        0.165      117.237       16.269        0.019      331.314       -0.751      865.474
12/27/2013  22:34:00     -101.093      -25.463      -10.289       35.838       29.127       21.002     1284.390      848.386      441.090        0.677        0.129      104.251       17.543        0.028      331.344       -0.700      865.474
12/27/2013  22:35:00     -142.943      -42.694      -14.162       40.977       38.177       24.112     1679.089     1457.455      581.391        1.309        0.186      149.183       20.869        0.020      331.304       -0.767      865.483
12/27/2013  22:36:00     -193.723      -14.985      -21.752       43.043       71.352       25.955     1852.685     5091.138      673.674        2.292        0.381      194.301       21.988        0.013      331.263       -0.836      865.496
12/27/2013  22:37:00     -147.744        3.551      -19.339       39.018       34.348       23.186     1522.381     1179.795      537.597        1.273        0.162      147.786        7.904        0.003      331.312       -0.754      865.500
12/27/2013  22:38:00     -127.729       21.548       -9.483       54.144       46.589       25.279     2931.607     2170.543      639.005        1.130        0.287      129.534       25.322        0.038      331.395       -0.617      865.496
12/27/2013  22:39:00     -123.249       30.875       -8.577       30.953       27.390       13.079      958.087      750.199      171.059        0.905        0.094      127.057        8.831        0.005      331.410       -0.593      865.480
12/27/2013  22:40:00     -116.054       16.757      -13.790       31.519       28.955       17.306      993.419      838.377      299.495        0.804        0.107      117.258        9.965        0.007      331.492       -0.459      865.446
12/27/2013  22:41:00     -160.454       19.098      -17.870       36.029       36.544       23.255     1298.070     1335.460      540.783        1.480        0.159      161.587       18.516        0.013      331.599       -0.282      865.415
12/27/2013  22:42:00     -162.686      -33.089      -15.533       38.563       33.851       30.107     1487.120     1145.890      906.458        1.567        0.177      166.016       23.135        0.019      331.487       -0.468      865.413
12/27/2013  22:43:00     -127.823       -1.089      -22.346       52.932       37.604       22.190     2801.804     1414.088      492.410        1.077        0.235      127.828       22.843        0.032      331.427       -0.565      865.418
12/27/2013  22:44:00      -97.533       16.310       -5.954       31.206       31.378       22.969      973.807      984.554      527.588        0.615        0.124       98.887       19.148        0.037      331.453       -0.521      865.426
12/27/2013  22:45:00      -60.360        0.701       -2.825       34.131       24.132       19.444     1164.909      582.333      378.078        0.289        0.106       60.364       15.742        0.068      331.494       -0.456      865.440
12/27/2013  22:46:00     -105.713        7.597      -12.676       31.829       19.029       12.119     1013.093      362.108      146.866        0.646        0.076      105.986       12.616        0.014      331.437       -0.550      865.430
12/27/2013  22:47:00     -106.457      -28.455       -9.915       36.681       30.506       17.324     1345.505      930.645      300.116        0.741        0.129      110.194       17.223        0.024      331.296       -0.780      865.395
12/27/2013  22:48:00     -113.487      -32.032       -4.314       44.109       39.471       20.516     1945.562     1557.967      420.893        0.892        0.196      117.921       21.956        0.035      331.219       -0.908      865.379
12/27/2013  22:49:00      -93.439        4.989       -4.552       56.291       35.455       26.820     3168.685     1257.027      719.293        0.696        0.257       93.572       25.009        0.071      331.166       -0.993      865.347
12/27/2013  22:50:00     -173.507       25.053      -15.706       45.627       34.575       27.720     2081.837     1195.448      768.394        1.751        0.202      175.307       16.614        0.009      331.289       -0.792      865.325
12/27/2013  22:51:00     -161.079      -15.073      -16.018       33.957       29.798       19.636     1153.111      887.892      385.582        1.443        0.121      161.783       15.512        0.009      331.266       -0.829      865.314
12/27/2013  22:52:00     -116.863       -8.711       -4.147       43.449       49.114       24.222     1887.787     2412.142      586.728        0.932        0.244      117.187       20.684        0.031      331.192       -0.951      865.281
12/27/2013  22:53:00      -65.089       -2.496        0.644       41.494       34.831       19.758     1721.757     1213.172      390.379        0.378        0.166       65.136       20.345        0.098      331.234       -0.881      865.235
12/27/2013  22:54:00      -95.429       -5.011       -7.322       28.411       26.679       24.210      807.157      711.777      586.121        0.564        0.105       95.561       10.776        0.013      331.393       -0.621      865.218
12/27/2013  22:55:00     -129.251      -25.351      -16.742       43.851       22.976       18.487     1922.888      527.883      341.767        1.021        0.140      131.714       20.983        0.025      331.304       -0.768      865.211
12/27/2013  22:56:00     -157.859      -31.957       -7.011       39.823       42.223       24.107     1585.891     1782.823      581.160        1.497        0.197      161.061       23.650        0.022      331.237       -0.878      865.207
12/27/2013  22:57:00     -138.034      -23.615      -12.553       26.585       29.845       20.407      706.785      890.707      416.449        1.089        0.101      140.040       17.598        0.016      331.195       -0.945      865.214
12/27/2013  22:58:00     -137.777       -9.861      -11.270       47.588       31.342       27.696     2264.647      982.325      767.088        1.161        0.201      138.130       28.583        0.043      331.157       -1.009      865.226
12/27/2013  22:59:00     -180.092       59.886       -8.063       49.244       30.480       18.163     2425.015      929.022      329.910        1.988        0.184      189.788       14.110        0.006      331.295       -0.782      865.229
12/27/2013  23:00:00      -97.168       53.945       -5.346       41.845       29.382       23.023     1750.964      863.317      530.080        0.776        0.157      111.138       19.477        0.031      331.546       -0.368      865.206
12/27/2013  23:01:00      -55.425       29.516       -9.314       40.313       41.772       20.988     1625.107     1744.880      440.510        0.392        0.191       62.794       20.442        0.106      331.667       -0.169      865.186
12/27/2013  23:02:00      -25.281      -28.824       -4.485       20.814       16.607       14.166      433.229      275.791      200.685        0.120        0.045       38.340       10.589        0.076      331.572       -0.326      865.201
12/27/2013  23:03:00      -45.734      -33.310       -8.598       27.717       18.007       19.326      768.209      324.265      373.481        0.237        0.073       56.579        6.496        0.013      331.392       -0.623      865.226
12/27/2013  23:04:00      -45.044      -23.874       -5.765       13.883       16.284       19.335      192.744      265.153      373.855        0.173        0.042       50.980       11.114        0.048      331.250       -0.856      865.253
12/27/2013  23:05:00      -65.229      -25.217      -11.919       28.028       26.430       17.019      785.546      698.563      289.663        0.340        0.089       69.934       10.966        0.025      331.182       -0.967      865.245
12/27/2013  23:06:00      -77.464      -19.289       -9.576       13.497       11.969        8.420      182.159      143.258       70.893        0.343        0.020       79.829        7.046        0.008      331.250       -0.855      865.235
12/27/2013  23:07:00      -42.060      -16.326       -6.924       20.277       11.265        5.908      411.147      126.897       34.908        0.133        0.029       45.117        6.887        0.023      331.234       -0.881      865.231
12/27/2013  23:08:00       25.660        9.113        9.822       25.663       12.876       11.348      658.571      165.793      128.767        0.090        0.048       27.230       12.607        0.214      331.295       -0.784      865.213
12/27/2013  23:09:00       33.500       26.897       27.277       23.763       13.361       12.493      564.697      178.505      156.066        0.174        0.045       42.962        7.828        0.033      331.399       -0.610      865.218
12/27/2013  23:10:00       -3.304      -25.013        9.583       15.199       16.472       13.357      231.018      271.330      178.406        0.070        0.034       25.230        8.997        0.127      331.549       -0.364      865.223
12/27/2013  23:11:00      -46.683       -2.657        3.886       13.755       10.169        7.997      189.213      103.418       63.960        0.128        0.018       46.759        7.502        0.026      331.345       -0.698      865.208
12/27/2013  23:12:00      -72.879      -11.884       -9.802       13.791       18.775        8.228      190.185      352.515       67.699        0.308        0.031       73.842        4.692        0.004      331.129       -1.055      865.200
12/27/2013  23:13:00      -31.917      -12.068        2.594       21.661       13.245       11.118      469.192      175.427      123.610        0.097        0.038       34.122       10.321        0.091      331.134       -1.048      865.189
12/27/2013  23:14:00      -26.149        2.743        3.661       12.787        7.984        7.534      163.504       63.744       56.763        0.049        0.014       26.293        6.547        0.062      331.182       -0.968      865.161
12/27/2013  23:15:00      -45.554      -10.619       -5.625       17.778        8.702       10.602      316.061       75.717      112.399        0.136        0.025       46.776        6.549        0.020      331.272       -0.819      865.158
12/27/2013  23:16:00      -72.526       -9.535      -10.005       15.174        9.454        8.172      230.238       89.372       66.774        0.292        0.019       73.150        5.798        0.006      331.219       -0.907      865.160
12/27/2013  23:17:00      -79.822      -11.125      -12.489       10.428        7.337        6.054      108.739       53.834       36.655        0.343        0.010       80.593        4.106        0.003      331.154       -1.016      865.149
12/27/2013  23:18:00      -88.984      -15.799      -12.590       20.955       15.454       14.379      439.094      238.823      206.744        0.461        0.044       90.376       11.468        0.016      331.144       -1.032      865.142
12/27/2013  23:19:00     -129.457      -48.044       -9.759       11.314       10.845        8.247      128.005      117.617       68.005        0.974        0.016      138.084        3.249        0.001      331.103       -1.098      865.163
12/27/2013  23:20:00     -120.911      -41.564       -8.942       18.982       20.066       12.493      360.304      402.651      156.070        0.867        0.046      127.856        9.062        0.005      331.053       -1.180      865.182
12/27/2013  23:21:00      -99.780      -17.219       -9.877       19.695       14.414       11.701      387.907      207.773      136.921        0.554        0.037      101.255        9.238        0.008      331.039       -1.203      865.164
12/27/2013  23:22:00     -105.000       -9.212      -12.986       23.800       11.291       13.156      566.437      127.497      173.086        0.607        0.043      105.403       11.649        0.012      331.036       -1.207      865.132
12/27/2013  23:23:00     -123.191      -22.991      -13.563       27.754       15.773       15.188      770.308      248.785      230.689        0.857        0.062      125.318       12.181        0.009      330.995       -1.276      865.099
12/27/2013  23:24:00     -124.201      -37.910      -11.265       17.320       14.330       12.309      299.990      205.357      151.507        0.882        0.033      129.858       10.139        0.006      330.924       -1.391      865.083
12/27/2013  23:25:00     -110.705      -27.776      -11.596       17.957       25.182       14.915      322.447      634.125      222.462        0.717        0.059      114.136        7.823        0.005      330.888       -1.449      865.053
12/27/2013  23:26:00      -88.962      -29.518       -6.462       24.509       19.753       14.820      600.705      390.179      219.630        0.502        0.061       93.731       13.417        0.020      330.874       -1.472      865.021
12/27/2013  23:27:00     -108.657      -28.883      -16.148       11.375       12.053       12.992      129.393      145.282      168.781        0.667        0.022      112.430        6.181        0.003      330.898       -1.434      864.992
12/27/2013  23:28:00     -108.359      -21.807       -8.733       18.232       12.478       12.976      332.420      155.696      168.376        0.647        0.033      110.532       12.638        0.013      330.965       -1.325      864.969
12/27/2013  23:29:00     -128.205      -45.555       -7.721       15.157       17.166       11.257      229.721      294.664      126.729        0.961        0.033      136.058        6.573        0.002      330.962       -1.329      864.955
12/27/2013  23:30:00     -125.059      -28.125       -9.034       30.706       15.650       14.337      942.878      244.926      205.563        0.895        0.070      128.182       15.831        0.015      330.965       -1.325      864.942
12/27/2013  23:31:00      -93.043      -29.033       -1.626       24.006       19.987       15.483      576.267      399.478      239.732        0.536        0.061       97.468       15.944        0.027      330.905       -1.423      864.911
12/27/2013  23:32:00      -93.467      -46.323       -7.612       13.949       12.554        9.463      194.584      157.591       89.549        0.569        0.022      104.316        5.786        0.003      330.916       -1.404      864.892
12/27/2013  23:33:00      -93.607      -46.858       -5.152       24.533       14.494       13.524      601.890      210.085      182.903        0.599        0.050      104.680       11.723        0.013      331.021       -1.232      864.866
12/27/2013  23:34:00      -86.114      -41.770       -5.180       23.389       12.761       11.078      547.059      162.843      122.719        0.501        0.042       95.710       12.008        0.016      331.060       -1.168      864.824
12/27/2013  23:35:00      -23.780      -24.735        4.341       35.142       24.691       11.355     1234.938      609.625      128.943        0.158        0.099       34.311       14.686        0.183      331.124       -1.065      864.798
12/27/2013  23:36:00      -27.117       -9.078        2.855       24.145       11.995        9.220      582.962      143.884       85.011        0.082        0.041       28.596       11.096        0.151      331.085       -1.130      864.788
12/27/2013  23:37:00      -46.848      -32.976       -2.698       17.490       12.848       12.571      305.895      165.065      158.026        0.196        0.031       57.290        6.804        0.014      331.007       -1.257      864.784
12/27/2013  23:38:00      -71.718      -35.288       -0.841       34.793       22.088       15.927     1210.568      487.885      253.654        0.417        0.098       79.930       14.586        0.033      330.921       -1.395      864.779
12/27/2013  23:39:00      -76.583      -19.231       -9.244       17.552       14.520        9.359      308.075      210.824       87.586        0.346        0.030       78.960        7.596        0.009      330.898       -1.434      864.755
12/27/2013  23:40:00      -59.847      -16.355       -4.303       17.283       11.072        8.661      298.704      122.582       75.010        0.218        0.025       62.042        6.649        0.011      330.872       -1.477      864.711
12/27/2013  23:41:00      -77.294      -27.307      -13.875       11.646        8.973        6.973      135.640       80.510       48.626        0.359        0.013       81.976        2.196        0.001      330.938       -1.368      864.678
12/27/2013  23:42:00      -89.998      -43.735       -5.017       15.824        8.077       13.718      250.406       65.242      188.177        0.527        0.025      100.062       10.628        0.011      330.890       -1.446      864.676
12/27/2013  23:43:00      -89.169      -40.408        0.670       20.977       11.287       13.731      440.029      127.401      188.532        0.517        0.038       97.897       13.969        0.020      330.885       -1.455      864.684
12/27/2013  23:44:00      -98.688      -13.013      -10.551       18.476       17.761       12.089      341.361      315.444      146.136        0.541        0.040       99.542       10.519        0.011      330.876       -1.471      864.670
12/27/2013  23:45:00     -122.436       -4.903      -16.477       11.008       12.369       12.649      121.184      152.989      160.000        0.786        0.022      122.535        7.441        0.004      330.871       -1.478      864.662
12/27/2013  23:46:00      -90.264      -28.241       -8.964       18.187       14.291       13.607      330.775      204.237      185.150        0.487        0.036       94.579       10.353        0.012      330.819       -1.564      864.672
12/27/2013  23:47:00      -58.201      -26.864      -10.224       17.189       21.313       12.368      295.459      454.230      152.969        0.256        0.045       64.102       11.648        0.033      330.812       -1.577      864.681
12/27/2013  23:48:00      -57.293      -19.137       -9.370       20.795       14.215       12.519      432.447      202.077      156.727        0.226        0.040       60.405       11.046        0.033      330.829       -1.548      864.667
12/27/2013  23:49:00      -65.420      -19.536      -12.794       12.592       14.711        8.980      158.565      216.425       80.640        0.264        0.023       68.275        3.790        0.003      330.815       -1.572      864.654
12/27/2013  23:50:00      -77.325      -24.767      -10.384       10.724       10.125        8.399      115.010      102.506       70.549        0.349        0.014       81.195        5.418        0.004      330.733       -1.706      864.658
12/27/2013  23:51:00      -99.677      -25.264      -15.210       13.743       14.364        8.934      188.879      206.311       79.818        0.564        0.024      102.829        3.278        0.001      330.671       -1.804      864.658
12/27/2013  23:52:00      -83.676      -17.478      -10.128       18.860       18.311       13.402      355.718      335.277      179.607        0.414        0.044       85.482        8.204        0.009      330.638       -1.861      864.642
12/27/2013  23:53:00      -76.131      -40.358       -3.293       19.767       22.189       13.902      390.747      492.347      193.269        0.426        0.054       86.167        8.621        0.010      330.558       -1.992      864.632
12/27/2013  23:54:00     -120.938      -32.553      -17.616       30.702       22.513       11.255      942.618      506.830      126.679        0.879        0.079      125.243       10.231        0.007      330.621       -1.888      864.635
12/27/2013  23:55:00     -109.168      -47.014      -28.304       16.879       17.094       12.570      284.890      292.190      157.998        0.783        0.037      118.862        7.936        0.004      330.612       -1.904      864.624
12/27/2013  23:56:00      -90.135      -23.154      -16.010       21.797       20.066       16.232      475.112      402.639      263.476        0.503        0.057       93.061       11.587        0.016      330.586       -1.947      864.613
12/27/2013  23:57:00     -108.546      -19.278      -13.390       30.779       17.987       17.411      947.332      323.517      303.136        0.695        0.079      110.245       13.032        0.014      330.491       -2.102      864.607
12/27/2013  23:58:00     -118.645      -31.632      -14.346       20.931       23.025       14.998      438.095      530.139      224.954        0.824        0.060      122.790        9.438        0.006      330.483       -2.115      864.604
12/27/2013  23:59:00     -124.672      -42.750      -13.501       37.608       24.297       13.150     1414.372      590.343      172.918        0.986        0.109      131.798        7.975        0.004      330.546       -2.012      864.609
